<?xml version="1.0" encoding="UTF-8" standalone="no" ?>
<gpx xmlns="http://www.topografix.com/GPX/1/1" xmlns:xsi="http://www.w3.org/2001/XMLSchema-instance" xsi:schemaLocation="http://www.topografix.com/GPX/1/1 http://www.topografix.com/GPX/1/1/gpx.xsd" version="1.1" creator="VisuGPX - https://www.visugpx.com">
  <metadata>
    <name>Chamonix/Zermatt - Etape3 - Verbier/Cabane de Prat Fleuri</name>
    <desc><![CDATA[Chamonix/Zermatt - Etape3 - Verbier/Cabane de Prat Fleuri]]></desc>
  </metadata>
  <trk>
    <name><![CDATA[ETAPE3-10 16:26:31]]></name>
    <trkseg>
      <trkpt lat="46.08554" lon="7.30121">
        <ele>2973.5</ele>
        <time>2010-04-13T08:13:02Z</time>
      </trkpt>
      <trkpt lat="46.08553" lon="7.30131">
        <ele>2971.57</ele>
        <time>2010-04-13T08:13:05Z</time>
      </trkpt>
      <trkpt lat="46.08533" lon="7.30138">
        <ele>2970.13</ele>
        <time>2010-04-13T08:13:20Z</time>
      </trkpt>
      <trkpt lat="46.08522" lon="7.30137">
        <ele>2971.09</ele>
        <time>2010-04-13T08:13:34Z</time>
      </trkpt>
      <trkpt lat="46.08505" lon="7.30123">
        <ele>2971.57</ele>
        <time>2010-04-13T08:13:46Z</time>
      </trkpt>
      <trkpt lat="46.08492" lon="7.30112">
        <ele>2970.13</ele>
        <time>2010-04-13T08:14:07Z</time>
      </trkpt>
      <trkpt lat="46.08492" lon="7.30112">
        <ele>2966.77</ele>
        <time>2010-04-13T08:14:36Z</time>
      </trkpt>
      <trkpt lat="46.08483" lon="7.30116">
        <ele>2964.36</ele>
        <time>2010-04-13T08:15:09Z</time>
      </trkpt>
      <trkpt lat="46.08483" lon="7.30116">
        <ele>2963.4</ele>
        <time>2010-04-13T08:15:24Z</time>
      </trkpt>
      <trkpt lat="46.08482" lon="7.30115">
        <ele>2961.48</ele>
        <time>2010-04-13T08:15:45Z</time>
      </trkpt>
      <trkpt lat="46.08482" lon="7.30111">
        <ele>2960.52</ele>
        <time>2010-04-13T08:15:55Z</time>
      </trkpt>
      <trkpt lat="46.08481" lon="7.30106">
        <ele>2959.56</ele>
        <time>2010-04-13T08:16:08Z</time>
      </trkpt>
      <trkpt lat="46.08481" lon="7.30103">
        <ele>2957.63</ele>
        <time>2010-04-13T08:16:29Z</time>
      </trkpt>
      <trkpt lat="46.08481" lon="7.30104">
        <ele>2957.63</ele>
        <time>2010-04-13T08:16:32Z</time>
      </trkpt>
      <trkpt lat="46.08481" lon="7.30107">
        <ele>2956.67</ele>
        <time>2010-04-13T08:16:46Z</time>
      </trkpt>
      <trkpt lat="46.08476" lon="7.3011">
        <ele>2954.75</ele>
        <time>2010-04-13T08:17:01Z</time>
      </trkpt>
      <trkpt lat="46.08475" lon="7.30119">
        <ele>2953.79</ele>
        <time>2010-04-13T08:17:04Z</time>
      </trkpt>
      <trkpt lat="46.08474" lon="7.30123">
        <ele>2953.79</ele>
        <time>2010-04-13T08:17:16Z</time>
      </trkpt>
      <trkpt lat="46.08475" lon="7.30123">
        <ele>2953.31</ele>
        <time>2010-04-13T08:17:25Z</time>
      </trkpt>
      <trkpt lat="46.08471" lon="7.3012">
        <ele>2952.35</ele>
        <time>2010-04-13T08:17:36Z</time>
      </trkpt>
      <trkpt lat="46.08466" lon="7.30119">
        <ele>2949.94</ele>
        <time>2010-04-13T08:17:46Z</time>
      </trkpt>
      <trkpt lat="46.0846" lon="7.30113">
        <ele>2947.06</ele>
        <time>2010-04-13T08:17:59Z</time>
      </trkpt>
      <trkpt lat="46.08459" lon="7.30121">
        <ele>2944.17</ele>
        <time>2010-04-13T08:18:10Z</time>
      </trkpt>
      <trkpt lat="46.08456" lon="7.30119">
        <ele>2945.14</ele>
        <time>2010-04-13T08:18:15Z</time>
      </trkpt>
      <trkpt lat="46.08452" lon="7.30102">
        <ele>2945.62</ele>
        <time>2010-04-13T08:18:28Z</time>
      </trkpt>
      <trkpt lat="46.0845" lon="7.30101">
        <ele>2945.62</ele>
        <time>2010-04-13T08:18:38Z</time>
      </trkpt>
      <trkpt lat="46.08449" lon="7.301">
        <ele>2945.14</ele>
        <time>2010-04-13T08:18:46Z</time>
      </trkpt>
      <trkpt lat="46.0845" lon="7.301">
        <ele>2943.69</ele>
        <time>2010-04-13T08:18:54Z</time>
      </trkpt>
      <trkpt lat="46.0845" lon="7.30099">
        <ele>2940.81</ele>
        <time>2010-04-13T08:20:28Z</time>
      </trkpt>
      <trkpt lat="46.0845" lon="7.301">
        <ele>2942.25</ele>
        <time>2010-04-13T08:21:16Z</time>
      </trkpt>
      <trkpt lat="46.0845" lon="7.301">
        <ele>2941.77</ele>
        <time>2010-04-13T08:21:38Z</time>
      </trkpt>
      <trkpt lat="46.08449" lon="7.301">
        <ele>2940.81</ele>
        <time>2010-04-13T08:22:05Z</time>
      </trkpt>
      <trkpt lat="46.0845" lon="7.30101">
        <ele>2940.81</ele>
        <time>2010-04-13T08:22:20Z</time>
      </trkpt>
      <trkpt lat="46.08448" lon="7.30103">
        <ele>2940.81</ele>
        <time>2010-04-13T08:22:29Z</time>
      </trkpt>
      <trkpt lat="46.08447" lon="7.30104">
        <ele>2940.33</ele>
        <time>2010-04-13T08:22:31Z</time>
      </trkpt>
      <trkpt lat="46.08441" lon="7.30123">
        <ele>2940.33</ele>
        <time>2010-04-13T08:22:37Z</time>
      </trkpt>
      <trkpt lat="46.08427" lon="7.30138">
        <ele>2938.89</ele>
        <time>2010-04-13T08:22:41Z</time>
      </trkpt>
      <trkpt lat="46.08403" lon="7.30153">
        <ele>2937.45</ele>
        <time>2010-04-13T08:22:49Z</time>
      </trkpt>
      <trkpt lat="46.08386" lon="7.30185">
        <ele>2934.56</ele>
        <time>2010-04-13T08:22:56Z</time>
      </trkpt>
      <trkpt lat="46.08382" lon="7.30186">
        <ele>2934.56</ele>
        <time>2010-04-13T08:22:57Z</time>
      </trkpt>
      <trkpt lat="46.08374" lon="7.30175">
        <ele>2931.2</ele>
        <time>2010-04-13T08:22:59Z</time>
      </trkpt>
      <trkpt lat="46.08363" lon="7.30161">
        <ele>2925.91</ele>
        <time>2010-04-13T08:23:01Z</time>
      </trkpt>
      <trkpt lat="46.08333" lon="7.30128">
        <ele>2914.37</ele>
        <time>2010-04-13T08:23:05Z</time>
      </trkpt>
      <trkpt lat="46.08326" lon="7.30115">
        <ele>2910.53</ele>
        <time>2010-04-13T08:23:06Z</time>
      </trkpt>
      <trkpt lat="46.08321" lon="7.30102">
        <ele>2907.65</ele>
        <time>2010-04-13T08:23:07Z</time>
      </trkpt>
      <trkpt lat="46.08314" lon="7.30076">
        <ele>2904.28</ele>
        <time>2010-04-13T08:23:09Z</time>
      </trkpt>
      <trkpt lat="46.08312" lon="7.3005">
        <ele>2899.47</ele>
        <time>2010-04-13T08:23:11Z</time>
      </trkpt>
      <trkpt lat="46.0831" lon="7.30038">
        <ele>2897.55</ele>
        <time>2010-04-13T08:23:12Z</time>
      </trkpt>
      <trkpt lat="46.08303" lon="7.3">
        <ele>2889.86</ele>
        <time>2010-04-13T08:23:16Z</time>
      </trkpt>
      <trkpt lat="46.08305" lon="7.29994">
        <ele>2889.86</ele>
        <time>2010-04-13T08:23:17Z</time>
      </trkpt>
      <trkpt lat="46.08307" lon="7.2999">
        <ele>2887.46</ele>
        <time>2010-04-13T08:23:20Z</time>
      </trkpt>
      <trkpt lat="46.08307" lon="7.2999">
        <ele>2887.46</ele>
        <time>2010-04-13T08:23:57Z</time>
      </trkpt>
      <trkpt lat="46.08308" lon="7.29989">
        <ele>2887.46</ele>
        <time>2010-04-13T08:24:02Z</time>
      </trkpt>
      <trkpt lat="46.08299" lon="7.29993">
        <ele>2884.57</ele>
        <time>2010-04-13T08:24:06Z</time>
      </trkpt>
      <trkpt lat="46.08292" lon="7.29988">
        <ele>2881.69</ele>
        <time>2010-04-13T08:24:08Z</time>
      </trkpt>
      <trkpt lat="46.08286" lon="7.29987">
        <ele>2878.32</ele>
        <time>2010-04-13T08:24:09Z</time>
      </trkpt>
      <trkpt lat="46.08275" lon="7.29981">
        <ele>2871.6</ele>
        <time>2010-04-13T08:24:11Z</time>
      </trkpt>
      <trkpt lat="46.0827" lon="7.2998">
        <ele>2869.67</ele>
        <time>2010-04-13T08:24:12Z</time>
      </trkpt>
      <trkpt lat="46.08252" lon="7.29977">
        <ele>2858.14</ele>
        <time>2010-04-13T08:24:16Z</time>
      </trkpt>
      <trkpt lat="46.08248" lon="7.29976">
        <ele>2856.69</ele>
        <time>2010-04-13T08:24:17Z</time>
      </trkpt>
      <trkpt lat="46.08234" lon="7.29972">
        <ele>2844.2</ele>
        <time>2010-04-13T08:24:21Z</time>
      </trkpt>
      <trkpt lat="46.08232" lon="7.29977">
        <ele>2841.31</ele>
        <time>2010-04-13T08:24:24Z</time>
      </trkpt>
      <trkpt lat="46.08234" lon="7.29982">
        <ele>2841.79</ele>
        <time>2010-04-13T08:24:29Z</time>
      </trkpt>
      <trkpt lat="46.0822" lon="7.29981">
        <ele>2835.06</ele>
        <time>2010-04-13T08:24:33Z</time>
      </trkpt>
      <trkpt lat="46.08207" lon="7.29979">
        <ele>2829.3</ele>
        <time>2010-04-13T08:24:36Z</time>
      </trkpt>
      <trkpt lat="46.08202" lon="7.2998">
        <ele>2825.45</ele>
        <time>2010-04-13T08:24:37Z</time>
      </trkpt>
      <trkpt lat="46.08192" lon="7.29983">
        <ele>2819.2</ele>
        <time>2010-04-13T08:24:39Z</time>
      </trkpt>
      <trkpt lat="46.08177" lon="7.29985">
        <ele>2813.92</ele>
        <time>2010-04-13T08:24:41Z</time>
      </trkpt>
      <trkpt lat="46.08166" lon="7.29995">
        <ele>2810.55</ele>
        <time>2010-04-13T08:24:43Z</time>
      </trkpt>
      <trkpt lat="46.08144" lon="7.30025">
        <ele>2805.26</ele>
        <time>2010-04-13T08:24:48Z</time>
      </trkpt>
      <trkpt lat="46.0813" lon="7.30043">
        <ele>2802.38</ele>
        <time>2010-04-13T08:24:52Z</time>
      </trkpt>
      <trkpt lat="46.08129" lon="7.30049">
        <ele>2800.94</ele>
        <time>2010-04-13T08:24:55Z</time>
      </trkpt>
      <trkpt lat="46.0813" lon="7.30054">
        <ele>2801.42</ele>
        <time>2010-04-13T08:25:10Z</time>
      </trkpt>
      <trkpt lat="46.0813" lon="7.30055">
        <ele>2801.42</ele>
        <time>2010-04-13T08:25:25Z</time>
      </trkpt>
      <trkpt lat="46.08129" lon="7.30057">
        <ele>2800.46</ele>
        <time>2010-04-13T08:25:30Z</time>
      </trkpt>
      <trkpt lat="46.08109" lon="7.3007">
        <ele>2799.02</ele>
        <time>2010-04-13T08:25:36Z</time>
      </trkpt>
      <trkpt lat="46.08098" lon="7.30081">
        <ele>2796.61</ele>
        <time>2010-04-13T08:25:39Z</time>
      </trkpt>
      <trkpt lat="46.08084" lon="7.30094">
        <ele>2793.25</ele>
        <time>2010-04-13T08:25:43Z</time>
      </trkpt>
      <trkpt lat="46.08063" lon="7.30111">
        <ele>2789.88</ele>
        <time>2010-04-13T08:25:49Z</time>
      </trkpt>
      <trkpt lat="46.08052" lon="7.30117">
        <ele>2787.96</ele>
        <time>2010-04-13T08:25:52Z</time>
      </trkpt>
      <trkpt lat="46.08042" lon="7.30123">
        <ele>2785.08</ele>
        <time>2010-04-13T08:25:55Z</time>
      </trkpt>
      <trkpt lat="46.08029" lon="7.30129">
        <ele>2781.71</ele>
        <time>2010-04-13T08:26:00Z</time>
      </trkpt>
      <trkpt lat="46.08017" lon="7.30135">
        <ele>2780.27</ele>
        <time>2010-04-13T08:26:05Z</time>
      </trkpt>
      <trkpt lat="46.08006" lon="7.3014">
        <ele>2778.83</ele>
        <time>2010-04-13T08:26:08Z</time>
      </trkpt>
      <trkpt lat="46.08002" lon="7.3014">
        <ele>2777.39</ele>
        <time>2010-04-13T08:26:09Z</time>
      </trkpt>
      <trkpt lat="46.07993" lon="7.3014">
        <ele>2776.91</ele>
        <time>2010-04-13T08:26:11Z</time>
      </trkpt>
      <trkpt lat="46.07982" lon="7.30142">
        <ele>2774.5</ele>
        <time>2010-04-13T08:26:13Z</time>
      </trkpt>
      <trkpt lat="46.07964" lon="7.30145">
        <ele>2772.1</ele>
        <time>2010-04-13T08:26:16Z</time>
      </trkpt>
      <trkpt lat="46.07954" lon="7.30148">
        <ele>2771.14</ele>
        <time>2010-04-13T08:26:18Z</time>
      </trkpt>
      <trkpt lat="46.07942" lon="7.30144">
        <ele>2769.7</ele>
        <time>2010-04-13T08:26:21Z</time>
      </trkpt>
      <trkpt lat="46.07907" lon="7.30136">
        <ele>2767.77</ele>
        <time>2010-04-13T08:26:32Z</time>
      </trkpt>
      <trkpt lat="46.07881" lon="7.30137">
        <ele>2765.85</ele>
        <time>2010-04-13T08:26:42Z</time>
      </trkpt>
      <trkpt lat="46.0787" lon="7.30138">
        <ele>2764.89</ele>
        <time>2010-04-13T08:26:51Z</time>
      </trkpt>
      <trkpt lat="46.07869" lon="7.30136">
        <ele>2764.89</ele>
        <time>2010-04-13T08:27:03Z</time>
      </trkpt>
      <trkpt lat="46.07869" lon="7.30136">
        <ele>2762.97</ele>
        <time>2010-04-13T08:27:32Z</time>
      </trkpt>
      <trkpt lat="46.07869" lon="7.30136">
        <ele>2759.6</ele>
        <time>2010-04-13T08:29:53Z</time>
      </trkpt>
      <trkpt lat="46.07867" lon="7.30133">
        <ele>2759.6</ele>
        <time>2010-04-13T08:31:22Z</time>
      </trkpt>
      <trkpt lat="46.07867" lon="7.30134">
        <ele>2756.24</ele>
        <time>2010-04-13T08:33:40Z</time>
      </trkpt>
      <trkpt lat="46.07867" lon="7.30135">
        <ele>2754.8</ele>
        <time>2010-04-13T08:35:12Z</time>
      </trkpt>
      <trkpt lat="46.07868" lon="7.30136">
        <ele>2754.31</ele>
        <time>2010-04-13T08:37:00Z</time>
      </trkpt>
      <trkpt lat="46.07867" lon="7.30135">
        <ele>2750.95</ele>
        <time>2010-04-13T08:39:34Z</time>
      </trkpt>
      <trkpt lat="46.07867" lon="7.30135">
        <ele>2751.91</ele>
        <time>2010-04-13T08:39:48Z</time>
      </trkpt>
      <trkpt lat="46.07866" lon="7.30134">
        <ele>2742.78</ele>
        <time>2010-04-13T08:39:51Z</time>
      </trkpt>
      <trkpt lat="46.07866" lon="7.30134">
        <ele>2749.03</ele>
        <time>2010-04-13T08:39:52Z</time>
      </trkpt>
      <trkpt lat="46.07866" lon="7.30134">
        <ele>2752.87</ele>
        <time>2010-04-13T08:39:55Z</time>
      </trkpt>
      <trkpt lat="46.07866" lon="7.30134">
        <ele>2752.39</ele>
        <time>2010-04-13T08:39:56Z</time>
      </trkpt>
      <trkpt lat="46.07866" lon="7.30132">
        <ele>2751.91</ele>
        <time>2010-04-13T08:40:50Z</time>
      </trkpt>
      <trkpt lat="46.07868" lon="7.30133">
        <ele>2752.39</ele>
        <time>2010-04-13T08:41:00Z</time>
      </trkpt>
      <trkpt lat="46.07868" lon="7.30131">
        <ele>2752.39</ele>
        <time>2010-04-13T08:41:20Z</time>
      </trkpt>
      <trkpt lat="46.07866" lon="7.30132">
        <ele>2752.39</ele>
        <time>2010-04-13T08:41:52Z</time>
      </trkpt>
      <trkpt lat="46.07864" lon="7.30134">
        <ele>2752.39</ele>
        <time>2010-04-13T08:41:56Z</time>
      </trkpt>
      <trkpt lat="46.07861" lon="7.30137">
        <ele>2752.39</ele>
        <time>2010-04-13T08:42:10Z</time>
      </trkpt>
      <trkpt lat="46.07855" lon="7.30146">
        <ele>2752.39</ele>
        <time>2010-04-13T08:42:22Z</time>
      </trkpt>
      <trkpt lat="46.07851" lon="7.3015">
        <ele>2752.39</ele>
        <time>2010-04-13T08:42:36Z</time>
      </trkpt>
      <trkpt lat="46.07848" lon="7.30151">
        <ele>2751.43</ele>
        <time>2010-04-13T08:42:47Z</time>
      </trkpt>
      <trkpt lat="46.07846" lon="7.30152">
        <ele>2750.95</ele>
        <time>2010-04-13T08:43:18Z</time>
      </trkpt>
      <trkpt lat="46.07846" lon="7.30152">
        <ele>2751.91</ele>
        <time>2010-04-13T08:43:37Z</time>
      </trkpt>
      <trkpt lat="46.07846" lon="7.30153">
        <ele>2751.91</ele>
        <time>2010-04-13T08:43:40Z</time>
      </trkpt>
      <trkpt lat="46.07848" lon="7.30152">
        <ele>2751.91</ele>
        <time>2010-04-13T08:43:43Z</time>
      </trkpt>
      <trkpt lat="46.0785" lon="7.30148">
        <ele>2751.91</ele>
        <time>2010-04-13T08:43:46Z</time>
      </trkpt>
      <trkpt lat="46.07855" lon="7.30144">
        <ele>2752.39</ele>
        <time>2010-04-13T08:43:53Z</time>
      </trkpt>
      <trkpt lat="46.07857" lon="7.3014">
        <ele>2751.91</ele>
        <time>2010-04-13T08:44:06Z</time>
      </trkpt>
      <trkpt lat="46.07858" lon="7.3014">
        <ele>2751.43</ele>
        <time>2010-04-13T08:44:18Z</time>
      </trkpt>
      <trkpt lat="46.07858" lon="7.3014">
        <ele>2751.43</ele>
        <time>2010-04-13T08:44:34Z</time>
      </trkpt>
      <trkpt lat="46.07857" lon="7.3014">
        <ele>2751.43</ele>
        <time>2010-04-13T08:44:35Z</time>
      </trkpt>
      <trkpt lat="46.07853" lon="7.30147">
        <ele>2751.91</ele>
        <time>2010-04-13T08:44:43Z</time>
      </trkpt>
      <trkpt lat="46.07849" lon="7.30151">
        <ele>2751.91</ele>
        <time>2010-04-13T08:44:48Z</time>
      </trkpt>
      <trkpt lat="46.07843" lon="7.30163">
        <ele>2751.91</ele>
        <time>2010-04-13T08:45:01Z</time>
      </trkpt>
      <trkpt lat="46.07837" lon="7.3017">
        <ele>2752.39</ele>
        <time>2010-04-13T08:45:13Z</time>
      </trkpt>
      <trkpt lat="46.07826" lon="7.30186">
        <ele>2752.39</ele>
        <time>2010-04-13T08:45:28Z</time>
      </trkpt>
      <trkpt lat="46.07817" lon="7.30199">
        <ele>2751.91</ele>
        <time>2010-04-13T08:45:44Z</time>
      </trkpt>
      <trkpt lat="46.07816" lon="7.30198">
        <ele>2752.39</ele>
        <time>2010-04-13T08:45:47Z</time>
      </trkpt>
      <trkpt lat="46.07811" lon="7.30208">
        <ele>2755.28</ele>
        <time>2010-04-13T08:45:59Z</time>
      </trkpt>
      <trkpt lat="46.07807" lon="7.30214">
        <ele>2756.72</ele>
        <time>2010-04-13T08:46:09Z</time>
      </trkpt>
      <trkpt lat="46.07801" lon="7.30224">
        <ele>2758.16</ele>
        <time>2010-04-13T08:46:22Z</time>
      </trkpt>
      <trkpt lat="46.07798" lon="7.30229">
        <ele>2759.12</ele>
        <time>2010-04-13T08:46:33Z</time>
      </trkpt>
      <trkpt lat="46.0779" lon="7.30237">
        <ele>2761.04</ele>
        <time>2010-04-13T08:46:47Z</time>
      </trkpt>
      <trkpt lat="46.07783" lon="7.30246">
        <ele>2763.45</ele>
        <time>2010-04-13T08:47:01Z</time>
      </trkpt>
      <trkpt lat="46.07778" lon="7.30251">
        <ele>2765.37</ele>
        <time>2010-04-13T08:47:13Z</time>
      </trkpt>
      <trkpt lat="46.07771" lon="7.30257">
        <ele>2766.81</ele>
        <time>2010-04-13T08:47:25Z</time>
      </trkpt>
      <trkpt lat="46.07771" lon="7.30256">
        <ele>2765.37</ele>
        <time>2010-04-13T08:47:39Z</time>
      </trkpt>
      <trkpt lat="46.07769" lon="7.30257">
        <ele>2766.81</ele>
        <time>2010-04-13T08:47:52Z</time>
      </trkpt>
      <trkpt lat="46.07769" lon="7.30258">
        <ele>2766.81</ele>
        <time>2010-04-13T08:48:03Z</time>
      </trkpt>
      <trkpt lat="46.07769" lon="7.30259">
        <ele>2766.33</ele>
        <time>2010-04-13T08:48:15Z</time>
      </trkpt>
      <trkpt lat="46.07768" lon="7.30259">
        <ele>2765.37</ele>
        <time>2010-04-13T08:48:31Z</time>
      </trkpt>
      <trkpt lat="46.07768" lon="7.30259">
        <ele>2764.41</ele>
        <time>2010-04-13T08:48:35Z</time>
      </trkpt>
      <trkpt lat="46.07768" lon="7.30258">
        <ele>2766.81</ele>
        <time>2010-04-13T08:48:38Z</time>
      </trkpt>
      <trkpt lat="46.07759" lon="7.30266">
        <ele>2769.21</ele>
        <time>2010-04-13T08:48:51Z</time>
      </trkpt>
      <trkpt lat="46.07754" lon="7.3027">
        <ele>2769.7</ele>
        <time>2010-04-13T08:49:00Z</time>
      </trkpt>
      <trkpt lat="46.07752" lon="7.30272">
        <ele>2771.62</ele>
        <time>2010-04-13T08:49:03Z</time>
      </trkpt>
      <trkpt lat="46.07745" lon="7.30281">
        <ele>2774.5</ele>
        <time>2010-04-13T08:49:14Z</time>
      </trkpt>
      <trkpt lat="46.07739" lon="7.30294">
        <ele>2776.42</ele>
        <time>2010-04-13T08:49:27Z</time>
      </trkpt>
      <trkpt lat="46.07736" lon="7.30306">
        <ele>2778.35</ele>
        <time>2010-04-13T08:49:37Z</time>
      </trkpt>
      <trkpt lat="46.07733" lon="7.30317">
        <ele>2779.31</ele>
        <time>2010-04-13T08:49:49Z</time>
      </trkpt>
      <trkpt lat="46.07726" lon="7.30328">
        <ele>2782.19</ele>
        <time>2010-04-13T08:50:03Z</time>
      </trkpt>
      <trkpt lat="46.07723" lon="7.30331">
        <ele>2783.15</ele>
        <time>2010-04-13T08:50:07Z</time>
      </trkpt>
      <trkpt lat="46.0772" lon="7.30336">
        <ele>2784.12</ele>
        <time>2010-04-13T08:50:13Z</time>
      </trkpt>
      <trkpt lat="46.07719" lon="7.30337">
        <ele>2784.12</ele>
        <time>2010-04-13T08:50:14Z</time>
      </trkpt>
      <trkpt lat="46.07713" lon="7.30349">
        <ele>2786.04</ele>
        <time>2010-04-13T08:50:26Z</time>
      </trkpt>
      <trkpt lat="46.07706" lon="7.3036">
        <ele>2787.96</ele>
        <time>2010-04-13T08:50:38Z</time>
      </trkpt>
      <trkpt lat="46.07701" lon="7.30367">
        <ele>2790.36</ele>
        <time>2010-04-13T08:50:48Z</time>
      </trkpt>
      <trkpt lat="46.07698" lon="7.30369">
        <ele>2790.36</ele>
        <time>2010-04-13T08:50:52Z</time>
      </trkpt>
      <trkpt lat="46.07688" lon="7.30378">
        <ele>2791.81</ele>
        <time>2010-04-13T08:51:07Z</time>
      </trkpt>
      <trkpt lat="46.0768" lon="7.30383">
        <ele>2793.73</ele>
        <time>2010-04-13T08:51:20Z</time>
      </trkpt>
      <trkpt lat="46.07673" lon="7.30391">
        <ele>2795.65</ele>
        <time>2010-04-13T08:51:31Z</time>
      </trkpt>
      <trkpt lat="46.07671" lon="7.30392">
        <ele>2794.69</ele>
        <time>2010-04-13T08:51:41Z</time>
      </trkpt>
      <trkpt lat="46.07671" lon="7.30392">
        <ele>2795.65</ele>
        <time>2010-04-13T08:51:45Z</time>
      </trkpt>
      <trkpt lat="46.07671" lon="7.30392">
        <ele>2794.21</ele>
        <time>2010-04-13T08:51:49Z</time>
      </trkpt>
      <trkpt lat="46.07671" lon="7.30392">
        <ele>2796.13</ele>
        <time>2010-04-13T08:51:51Z</time>
      </trkpt>
      <trkpt lat="46.0767" lon="7.3039">
        <ele>2794.69</ele>
        <time>2010-04-13T08:52:06Z</time>
      </trkpt>
      <trkpt lat="46.0767" lon="7.30391">
        <ele>2794.69</ele>
        <time>2010-04-13T08:52:18Z</time>
      </trkpt>
      <trkpt lat="46.07669" lon="7.30389">
        <ele>2795.17</ele>
        <time>2010-04-13T08:52:27Z</time>
      </trkpt>
      <trkpt lat="46.07669" lon="7.30389">
        <ele>2795.17</ele>
        <time>2010-04-13T08:52:42Z</time>
      </trkpt>
      <trkpt lat="46.07669" lon="7.30389">
        <ele>2794.21</ele>
        <time>2010-04-13T08:53:00Z</time>
      </trkpt>
      <trkpt lat="46.07668" lon="7.30388">
        <ele>2794.21</ele>
        <time>2010-04-13T08:53:09Z</time>
      </trkpt>
      <trkpt lat="46.07669" lon="7.30391">
        <ele>2795.65</ele>
        <time>2010-04-13T08:53:23Z</time>
      </trkpt>
      <trkpt lat="46.0767" lon="7.30395">
        <ele>2795.65</ele>
        <time>2010-04-13T08:53:31Z</time>
      </trkpt>
      <trkpt lat="46.0767" lon="7.30396">
        <ele>2794.69</ele>
        <time>2010-04-13T08:53:33Z</time>
      </trkpt>
      <trkpt lat="46.0767" lon="7.30395">
        <ele>2795.17</ele>
        <time>2010-04-13T08:53:45Z</time>
      </trkpt>
      <trkpt lat="46.07669" lon="7.30394">
        <ele>2796.61</ele>
        <time>2010-04-13T08:53:47Z</time>
      </trkpt>
      <trkpt lat="46.07669" lon="7.30394">
        <ele>2794.21</ele>
        <time>2010-04-13T08:53:49Z</time>
      </trkpt>
      <trkpt lat="46.07667" lon="7.30396">
        <ele>2797.09</ele>
        <time>2010-04-13T08:53:55Z</time>
      </trkpt>
      <trkpt lat="46.07658" lon="7.30405">
        <ele>2800.46</ele>
        <time>2010-04-13T08:54:07Z</time>
      </trkpt>
      <trkpt lat="46.07656" lon="7.30405">
        <ele>2801.42</ele>
        <time>2010-04-13T08:54:09Z</time>
      </trkpt>
      <trkpt lat="46.07653" lon="7.30406">
        <ele>2802.38</ele>
        <time>2010-04-13T08:54:13Z</time>
      </trkpt>
      <trkpt lat="46.07651" lon="7.3041">
        <ele>2804.3</ele>
        <time>2010-04-13T08:54:17Z</time>
      </trkpt>
      <trkpt lat="46.07649" lon="7.30417">
        <ele>2805.75</ele>
        <time>2010-04-13T08:54:24Z</time>
      </trkpt>
      <trkpt lat="46.07647" lon="7.30417">
        <ele>2807.19</ele>
        <time>2010-04-13T08:54:27Z</time>
      </trkpt>
      <trkpt lat="46.07641" lon="7.30418">
        <ele>2810.07</ele>
        <time>2010-04-13T08:54:34Z</time>
      </trkpt>
      <trkpt lat="46.0764" lon="7.30418">
        <ele>2809.59</ele>
        <time>2010-04-13T08:54:35Z</time>
      </trkpt>
      <trkpt lat="46.07632" lon="7.30417">
        <ele>2812.47</ele>
        <time>2010-04-13T08:54:45Z</time>
      </trkpt>
      <trkpt lat="46.07629" lon="7.30414">
        <ele>2813.92</ele>
        <time>2010-04-13T08:54:50Z</time>
      </trkpt>
      <trkpt lat="46.07621" lon="7.30403">
        <ele>2815.36</ele>
        <time>2010-04-13T08:55:02Z</time>
      </trkpt>
      <trkpt lat="46.07619" lon="7.30402">
        <ele>2815.36</ele>
        <time>2010-04-13T08:55:04Z</time>
      </trkpt>
      <trkpt lat="46.07615" lon="7.30398">
        <ele>2816.32</ele>
        <time>2010-04-13T08:55:10Z</time>
      </trkpt>
      <trkpt lat="46.07606" lon="7.30389">
        <ele>2818.72</ele>
        <time>2010-04-13T08:55:23Z</time>
      </trkpt>
      <trkpt lat="46.07602" lon="7.3039">
        <ele>2819.68</ele>
        <time>2010-04-13T08:55:29Z</time>
      </trkpt>
      <trkpt lat="46.07593" lon="7.30386">
        <ele>2822.57</ele>
        <time>2010-04-13T08:55:42Z</time>
      </trkpt>
      <trkpt lat="46.07587" lon="7.30383">
        <ele>2824.49</ele>
        <time>2010-04-13T08:55:50Z</time>
      </trkpt>
      <trkpt lat="46.07579" lon="7.30377">
        <ele>2825.93</ele>
        <time>2010-04-13T08:56:02Z</time>
      </trkpt>
      <trkpt lat="46.07576" lon="7.30373">
        <ele>2828.82</ele>
        <time>2010-04-13T08:56:11Z</time>
      </trkpt>
      <trkpt lat="46.0757" lon="7.30366">
        <ele>2831.22</ele>
        <time>2010-04-13T08:56:25Z</time>
      </trkpt>
      <trkpt lat="46.07566" lon="7.30363">
        <ele>2831.7</ele>
        <time>2010-04-13T08:56:30Z</time>
      </trkpt>
      <trkpt lat="46.07564" lon="7.3036">
        <ele>2833.14</ele>
        <time>2010-04-13T08:56:43Z</time>
      </trkpt>
      <trkpt lat="46.07559" lon="7.30354">
        <ele>2834.58</ele>
        <time>2010-04-13T08:56:52Z</time>
      </trkpt>
      <trkpt lat="46.07554" lon="7.30352">
        <ele>2836.03</ele>
        <time>2010-04-13T08:57:10Z</time>
      </trkpt>
      <trkpt lat="46.07548" lon="7.30346">
        <ele>2838.91</ele>
        <time>2010-04-13T08:57:33Z</time>
      </trkpt>
      <trkpt lat="46.07544" lon="7.30354">
        <ele>2841.31</ele>
        <time>2010-04-13T08:57:48Z</time>
      </trkpt>
      <trkpt lat="46.07543" lon="7.30362">
        <ele>2841.79</ele>
        <time>2010-04-13T08:57:58Z</time>
      </trkpt>
      <trkpt lat="46.07543" lon="7.30369">
        <ele>2844.2</ele>
        <time>2010-04-13T08:58:12Z</time>
      </trkpt>
      <trkpt lat="46.07543" lon="7.30376">
        <ele>2845.64</ele>
        <time>2010-04-13T08:58:23Z</time>
      </trkpt>
      <trkpt lat="46.07543" lon="7.30381">
        <ele>2846.6</ele>
        <time>2010-04-13T08:58:36Z</time>
      </trkpt>
      <trkpt lat="46.07542" lon="7.30388">
        <ele>2848.04</ele>
        <time>2010-04-13T08:58:48Z</time>
      </trkpt>
      <trkpt lat="46.07541" lon="7.30395">
        <ele>2850.45</ele>
        <time>2010-04-13T08:59:02Z</time>
      </trkpt>
      <trkpt lat="46.0754" lon="7.30404">
        <ele>2851.41</ele>
        <time>2010-04-13T08:59:14Z</time>
      </trkpt>
      <trkpt lat="46.07538" lon="7.3041">
        <ele>2853.33</ele>
        <time>2010-04-13T08:59:27Z</time>
      </trkpt>
      <trkpt lat="46.07538" lon="7.30414">
        <ele>2854.29</ele>
        <time>2010-04-13T08:59:32Z</time>
      </trkpt>
      <trkpt lat="46.07537" lon="7.3042">
        <ele>2855.73</ele>
        <time>2010-04-13T08:59:46Z</time>
      </trkpt>
      <trkpt lat="46.07535" lon="7.30426">
        <ele>2856.69</ele>
        <time>2010-04-13T08:59:58Z</time>
      </trkpt>
      <trkpt lat="46.07534" lon="7.30435">
        <ele>2858.62</ele>
        <time>2010-04-13T09:00:10Z</time>
      </trkpt>
      <trkpt lat="46.07534" lon="7.30439">
        <ele>2860.54</ele>
        <time>2010-04-13T09:00:25Z</time>
      </trkpt>
      <trkpt lat="46.07533" lon="7.30446">
        <ele>2862.94</ele>
        <time>2010-04-13T09:00:38Z</time>
      </trkpt>
      <trkpt lat="46.07531" lon="7.30451">
        <ele>2864.87</ele>
        <time>2010-04-13T09:00:51Z</time>
      </trkpt>
      <trkpt lat="46.07528" lon="7.30458">
        <ele>2865.35</ele>
        <time>2010-04-13T09:01:04Z</time>
      </trkpt>
      <trkpt lat="46.07527" lon="7.30466">
        <ele>2867.27</ele>
        <time>2010-04-13T09:01:15Z</time>
      </trkpt>
      <trkpt lat="46.07525" lon="7.30472">
        <ele>2868.71</ele>
        <time>2010-04-13T09:01:27Z</time>
      </trkpt>
      <trkpt lat="46.07524" lon="7.30476">
        <ele>2869.67</ele>
        <time>2010-04-13T09:01:38Z</time>
      </trkpt>
      <trkpt lat="46.07522" lon="7.30482">
        <ele>2871.11</ele>
        <time>2010-04-13T09:01:50Z</time>
      </trkpt>
      <trkpt lat="46.07521" lon="7.30487">
        <ele>2872.08</ele>
        <time>2010-04-13T09:02:03Z</time>
      </trkpt>
      <trkpt lat="46.0752" lon="7.30489">
        <ele>2870.63</ele>
        <time>2010-04-13T09:02:15Z</time>
      </trkpt>
      <trkpt lat="46.0752" lon="7.30489">
        <ele>2872.08</ele>
        <time>2010-04-13T09:02:17Z</time>
      </trkpt>
      <trkpt lat="46.0752" lon="7.30489">
        <ele>2873.04</ele>
        <time>2010-04-13T09:02:26Z</time>
      </trkpt>
      <trkpt lat="46.07518" lon="7.30494">
        <ele>2874</ele>
        <time>2010-04-13T09:02:41Z</time>
      </trkpt>
      <trkpt lat="46.07514" lon="7.30503">
        <ele>2875.92</ele>
        <time>2010-04-13T09:02:56Z</time>
      </trkpt>
      <trkpt lat="46.07511" lon="7.30511">
        <ele>2878.32</ele>
        <time>2010-04-13T09:03:09Z</time>
      </trkpt>
      <trkpt lat="46.07507" lon="7.30518">
        <ele>2878.32</ele>
        <time>2010-04-13T09:03:20Z</time>
      </trkpt>
      <trkpt lat="46.07507" lon="7.30519">
        <ele>2880.25</ele>
        <time>2010-04-13T09:03:23Z</time>
      </trkpt>
      <trkpt lat="46.07507" lon="7.30519">
        <ele>2879.29</ele>
        <time>2010-04-13T09:03:44Z</time>
      </trkpt>
      <trkpt lat="46.07506" lon="7.30524">
        <ele>2881.69</ele>
        <time>2010-04-13T09:03:57Z</time>
      </trkpt>
      <trkpt lat="46.07501" lon="7.30532">
        <ele>2883.13</ele>
        <time>2010-04-13T09:04:08Z</time>
      </trkpt>
      <trkpt lat="46.07497" lon="7.30539">
        <ele>2886.02</ele>
        <time>2010-04-13T09:04:20Z</time>
      </trkpt>
      <trkpt lat="46.07494" lon="7.30545">
        <ele>2887.94</ele>
        <time>2010-04-13T09:04:32Z</time>
      </trkpt>
      <trkpt lat="46.07488" lon="7.30556">
        <ele>2890.82</ele>
        <time>2010-04-13T09:04:48Z</time>
      </trkpt>
      <trkpt lat="46.07487" lon="7.30559">
        <ele>2891.3</ele>
        <time>2010-04-13T09:04:50Z</time>
      </trkpt>
      <trkpt lat="46.07483" lon="7.30564">
        <ele>2892.74</ele>
        <time>2010-04-13T09:05:02Z</time>
      </trkpt>
      <trkpt lat="46.07481" lon="7.30568">
        <ele>2894.67</ele>
        <time>2010-04-13T09:05:17Z</time>
      </trkpt>
      <trkpt lat="46.07476" lon="7.30571">
        <ele>2896.11</ele>
        <time>2010-04-13T09:05:28Z</time>
      </trkpt>
      <trkpt lat="46.07471" lon="7.30571">
        <ele>2898.03</ele>
        <time>2010-04-13T09:05:43Z</time>
      </trkpt>
      <trkpt lat="46.07466" lon="7.30572">
        <ele>2899.47</ele>
        <time>2010-04-13T09:05:56Z</time>
      </trkpt>
      <trkpt lat="46.07464" lon="7.30572">
        <ele>2900.92</ele>
        <time>2010-04-13T09:06:11Z</time>
      </trkpt>
      <trkpt lat="46.07459" lon="7.30575">
        <ele>2902.36</ele>
        <time>2010-04-13T09:06:22Z</time>
      </trkpt>
      <trkpt lat="46.07449" lon="7.30582">
        <ele>2904.76</ele>
        <time>2010-04-13T09:06:36Z</time>
      </trkpt>
      <trkpt lat="46.07444" lon="7.30586">
        <ele>2906.68</ele>
        <time>2010-04-13T09:06:46Z</time>
      </trkpt>
      <trkpt lat="46.07435" lon="7.30587">
        <ele>2907.65</ele>
        <time>2010-04-13T09:06:58Z</time>
      </trkpt>
      <trkpt lat="46.07428" lon="7.30584">
        <ele>2909.57</ele>
        <time>2010-04-13T09:07:10Z</time>
      </trkpt>
      <trkpt lat="46.07424" lon="7.30582">
        <ele>2911.01</ele>
        <time>2010-04-13T09:07:15Z</time>
      </trkpt>
      <trkpt lat="46.07422" lon="7.30579">
        <ele>2911.01</ele>
        <time>2010-04-13T09:07:26Z</time>
      </trkpt>
      <trkpt lat="46.07418" lon="7.30576">
        <ele>2912.93</ele>
        <time>2010-04-13T09:07:35Z</time>
      </trkpt>
      <trkpt lat="46.07412" lon="7.30569">
        <ele>2914.85</ele>
        <time>2010-04-13T09:07:46Z</time>
      </trkpt>
      <trkpt lat="46.07406" lon="7.30562">
        <ele>2916.78</ele>
        <time>2010-04-13T09:07:56Z</time>
      </trkpt>
      <trkpt lat="46.07405" lon="7.30564">
        <ele>2917.74</ele>
        <time>2010-04-13T09:07:59Z</time>
      </trkpt>
      <trkpt lat="46.07408" lon="7.3058">
        <ele>2918.7</ele>
        <time>2010-04-13T09:08:13Z</time>
      </trkpt>
      <trkpt lat="46.07411" lon="7.30591">
        <ele>2919.66</ele>
        <time>2010-04-13T09:08:25Z</time>
      </trkpt>
      <trkpt lat="46.07413" lon="7.30603">
        <ele>2920.14</ele>
        <time>2010-04-13T09:08:38Z</time>
      </trkpt>
      <trkpt lat="46.07415" lon="7.30612">
        <ele>2922.06</ele>
        <time>2010-04-13T09:08:48Z</time>
      </trkpt>
      <trkpt lat="46.07415" lon="7.30618">
        <ele>2923.51</ele>
        <time>2010-04-13T09:08:57Z</time>
      </trkpt>
      <trkpt lat="46.07415" lon="7.30622">
        <ele>2924.47</ele>
        <time>2010-04-13T09:09:01Z</time>
      </trkpt>
      <trkpt lat="46.07415" lon="7.30625">
        <ele>2924.47</ele>
        <time>2010-04-13T09:09:04Z</time>
      </trkpt>
      <trkpt lat="46.07416" lon="7.30634">
        <ele>2926.87</ele>
        <time>2010-04-13T09:09:14Z</time>
      </trkpt>
      <trkpt lat="46.07417" lon="7.30642">
        <ele>2928.79</ele>
        <time>2010-04-13T09:09:27Z</time>
      </trkpt>
      <trkpt lat="46.0742" lon="7.30651">
        <ele>2930.72</ele>
        <time>2010-04-13T09:09:43Z</time>
      </trkpt>
      <trkpt lat="46.07423" lon="7.30662">
        <ele>2933.12</ele>
        <time>2010-04-13T09:09:55Z</time>
      </trkpt>
      <trkpt lat="46.07425" lon="7.30667">
        <ele>2934.08</ele>
        <time>2010-04-13T09:10:06Z</time>
      </trkpt>
      <trkpt lat="46.07429" lon="7.30674">
        <ele>2936</ele>
        <time>2010-04-13T09:10:19Z</time>
      </trkpt>
      <trkpt lat="46.07429" lon="7.30676">
        <ele>2936</ele>
        <time>2010-04-13T09:10:30Z</time>
      </trkpt>
      <trkpt lat="46.0743" lon="7.30676">
        <ele>2936.97</ele>
        <time>2010-04-13T09:10:38Z</time>
      </trkpt>
      <trkpt lat="46.0743" lon="7.30677">
        <ele>2936.97</ele>
        <time>2010-04-13T09:10:48Z</time>
      </trkpt>
      <trkpt lat="46.0743" lon="7.30677">
        <ele>2936.97</ele>
        <time>2010-04-13T09:10:50Z</time>
      </trkpt>
      <trkpt lat="46.07431" lon="7.30677">
        <ele>2935.52</ele>
        <time>2010-04-13T09:10:58Z</time>
      </trkpt>
      <trkpt lat="46.07431" lon="7.30677">
        <ele>2939.37</ele>
        <time>2010-04-13T09:11:25Z</time>
      </trkpt>
      <trkpt lat="46.07431" lon="7.30677">
        <ele>2935.52</ele>
        <time>2010-04-13T09:11:26Z</time>
      </trkpt>
      <trkpt lat="46.07431" lon="7.30677">
        <ele>2934.08</ele>
        <time>2010-04-13T09:12:13Z</time>
      </trkpt>
      <trkpt lat="46.07432" lon="7.30677">
        <ele>2935.04</ele>
        <time>2010-04-13T09:12:34Z</time>
      </trkpt>
      <trkpt lat="46.07432" lon="7.30677">
        <ele>2934.08</ele>
        <time>2010-04-13T09:15:17Z</time>
      </trkpt>
      <trkpt lat="46.07432" lon="7.30676">
        <ele>2935.04</ele>
        <time>2010-04-13T09:15:26Z</time>
      </trkpt>
      <trkpt lat="46.07431" lon="7.30675">
        <ele>2936</ele>
        <time>2010-04-13T09:15:28Z</time>
      </trkpt>
      <trkpt lat="46.07432" lon="7.30675">
        <ele>2935.52</ele>
        <time>2010-04-13T09:15:39Z</time>
      </trkpt>
      <trkpt lat="46.07432" lon="7.30675">
        <ele>2935.04</ele>
        <time>2010-04-13T09:15:43Z</time>
      </trkpt>
      <trkpt lat="46.07431" lon="7.30677">
        <ele>2935.52</ele>
        <time>2010-04-13T09:15:55Z</time>
      </trkpt>
      <trkpt lat="46.07431" lon="7.30678">
        <ele>2935.52</ele>
        <time>2010-04-13T09:15:58Z</time>
      </trkpt>
      <trkpt lat="46.07437" lon="7.30686">
        <ele>2938.41</ele>
        <time>2010-04-13T09:16:12Z</time>
      </trkpt>
      <trkpt lat="46.07437" lon="7.30686">
        <ele>2937.45</ele>
        <time>2010-04-13T09:16:28Z</time>
      </trkpt>
      <trkpt lat="46.07437" lon="7.30686">
        <ele>2938.41</ele>
        <time>2010-04-13T09:16:48Z</time>
      </trkpt>
      <trkpt lat="46.07439" lon="7.3069">
        <ele>2938.89</ele>
        <time>2010-04-13T09:17:06Z</time>
      </trkpt>
      <trkpt lat="46.07442" lon="7.30693">
        <ele>2939.37</ele>
        <time>2010-04-13T09:17:17Z</time>
      </trkpt>
      <trkpt lat="46.07444" lon="7.30695">
        <ele>2940.81</ele>
        <time>2010-04-13T09:17:29Z</time>
      </trkpt>
      <trkpt lat="46.07448" lon="7.307">
        <ele>2941.77</ele>
        <time>2010-04-13T09:17:41Z</time>
      </trkpt>
      <trkpt lat="46.07453" lon="7.30709">
        <ele>2943.21</ele>
        <time>2010-04-13T09:17:53Z</time>
      </trkpt>
      <trkpt lat="46.07457" lon="7.30718">
        <ele>2946.1</ele>
        <time>2010-04-13T09:18:08Z</time>
      </trkpt>
      <trkpt lat="46.07457" lon="7.30726">
        <ele>2947.54</ele>
        <time>2010-04-13T09:18:24Z</time>
      </trkpt>
      <trkpt lat="46.07459" lon="7.30729">
        <ele>2948.5</ele>
        <time>2010-04-13T09:18:36Z</time>
      </trkpt>
      <trkpt lat="46.07459" lon="7.30732">
        <ele>2948.5</ele>
        <time>2010-04-13T09:18:49Z</time>
      </trkpt>
      <trkpt lat="46.0746" lon="7.30733">
        <ele>2949.46</ele>
        <time>2010-04-13T09:19:08Z</time>
      </trkpt>
      <trkpt lat="46.07462" lon="7.30737">
        <ele>2950.9</ele>
        <time>2010-04-13T09:19:24Z</time>
      </trkpt>
      <trkpt lat="46.07465" lon="7.30739">
        <ele>2950.9</ele>
        <time>2010-04-13T09:19:30Z</time>
      </trkpt>
      <trkpt lat="46.0747" lon="7.30746">
        <ele>2951.87</ele>
        <time>2010-04-13T09:19:42Z</time>
      </trkpt>
      <trkpt lat="46.07472" lon="7.30746">
        <ele>2952.83</ele>
        <time>2010-04-13T09:19:58Z</time>
      </trkpt>
      <trkpt lat="46.07474" lon="7.30747">
        <ele>2954.27</ele>
        <time>2010-04-13T09:20:10Z</time>
      </trkpt>
      <trkpt lat="46.07475" lon="7.30748">
        <ele>2954.27</ele>
        <time>2010-04-13T09:20:40Z</time>
      </trkpt>
      <trkpt lat="46.07475" lon="7.30748">
        <ele>2954.75</ele>
        <time>2010-04-13T09:20:47Z</time>
      </trkpt>
      <trkpt lat="46.07477" lon="7.3075">
        <ele>2954.75</ele>
        <time>2010-04-13T09:21:07Z</time>
      </trkpt>
      <trkpt lat="46.07475" lon="7.3075">
        <ele>2955.71</ele>
        <time>2010-04-13T09:21:17Z</time>
      </trkpt>
      <trkpt lat="46.07474" lon="7.30751">
        <ele>2955.71</ele>
        <time>2010-04-13T09:21:18Z</time>
      </trkpt>
      <trkpt lat="46.07473" lon="7.3075">
        <ele>2956.19</ele>
        <time>2010-04-13T09:21:21Z</time>
      </trkpt>
      <trkpt lat="46.07465" lon="7.30748">
        <ele>2955.71</ele>
        <time>2010-04-13T09:21:34Z</time>
      </trkpt>
      <trkpt lat="46.07459" lon="7.30749">
        <ele>2956.19</ele>
        <time>2010-04-13T09:21:47Z</time>
      </trkpt>
      <trkpt lat="46.07458" lon="7.30749">
        <ele>2956.19</ele>
        <time>2010-04-13T09:21:59Z</time>
      </trkpt>
      <trkpt lat="46.07458" lon="7.30749">
        <ele>2955.71</ele>
        <time>2010-04-13T09:22:05Z</time>
      </trkpt>
      <trkpt lat="46.07457" lon="7.3075">
        <ele>2957.63</ele>
        <time>2010-04-13T09:22:20Z</time>
      </trkpt>
      <trkpt lat="46.07458" lon="7.30749">
        <ele>2955.71</ele>
        <time>2010-04-13T09:22:33Z</time>
      </trkpt>
      <trkpt lat="46.07457" lon="7.30748">
        <ele>2955.23</ele>
        <time>2010-04-13T09:22:43Z</time>
      </trkpt>
      <trkpt lat="46.07457" lon="7.30749">
        <ele>2951.87</ele>
        <time>2010-04-13T09:23:32Z</time>
      </trkpt>
      <trkpt lat="46.07457" lon="7.30749">
        <ele>2956.19</ele>
        <time>2010-04-13T09:23:33Z</time>
      </trkpt>
      <trkpt lat="46.07457" lon="7.30749">
        <ele>2951.38</ele>
        <time>2010-04-13T09:23:36Z</time>
      </trkpt>
      <trkpt lat="46.07457" lon="7.30748">
        <ele>2955.71</ele>
        <time>2010-04-13T09:23:38Z</time>
      </trkpt>
      <trkpt lat="46.07457" lon="7.30748">
        <ele>2956.19</ele>
        <time>2010-04-13T09:23:40Z</time>
      </trkpt>
      <trkpt lat="46.07457" lon="7.30748">
        <ele>2955.23</ele>
        <time>2010-04-13T09:23:42Z</time>
      </trkpt>
      <trkpt lat="46.07456" lon="7.30748">
        <ele>2954.75</ele>
        <time>2010-04-13T09:25:48Z</time>
      </trkpt>
      <trkpt lat="46.07456" lon="7.30748">
        <ele>2955.23</ele>
        <time>2010-04-13T09:28:44Z</time>
      </trkpt>
      <trkpt lat="46.07456" lon="7.30748">
        <ele>2950.9</ele>
        <time>2010-04-13T09:28:48Z</time>
      </trkpt>
      <trkpt lat="46.07456" lon="7.30748">
        <ele>2955.23</ele>
        <time>2010-04-13T09:28:53Z</time>
      </trkpt>
      <trkpt lat="46.07456" lon="7.30748">
        <ele>2953.79</ele>
        <time>2010-04-13T09:28:56Z</time>
      </trkpt>
      <trkpt lat="46.07457" lon="7.30749">
        <ele>2953.31</ele>
        <time>2010-04-13T09:29:01Z</time>
      </trkpt>
      <trkpt lat="46.07457" lon="7.30748">
        <ele>2954.27</ele>
        <time>2010-04-13T09:29:38Z</time>
      </trkpt>
      <trkpt lat="46.07456" lon="7.30748">
        <ele>2953.31</ele>
        <time>2010-04-13T09:30:23Z</time>
      </trkpt>
      <trkpt lat="46.07456" lon="7.30748">
        <ele>2954.27</ele>
        <time>2010-04-13T09:30:32Z</time>
      </trkpt>
      <trkpt lat="46.07457" lon="7.30749">
        <ele>2953.31</ele>
        <time>2010-04-13T09:31:57Z</time>
      </trkpt>
      <trkpt lat="46.07457" lon="7.30748">
        <ele>2953.31</ele>
        <time>2010-04-13T09:33:22Z</time>
      </trkpt>
      <trkpt lat="46.07458" lon="7.3075">
        <ele>2953.31</ele>
        <time>2010-04-13T09:33:50Z</time>
      </trkpt>
      <trkpt lat="46.07458" lon="7.3075">
        <ele>2952.83</ele>
        <time>2010-04-13T09:33:59Z</time>
      </trkpt>
      <trkpt lat="46.07457" lon="7.30749">
        <ele>2954.27</ele>
        <time>2010-04-13T09:34:10Z</time>
      </trkpt>
      <trkpt lat="46.07457" lon="7.30749">
        <ele>2953.79</ele>
        <time>2010-04-13T09:34:21Z</time>
      </trkpt>
      <trkpt lat="46.07457" lon="7.30751">
        <ele>2953.31</ele>
        <time>2010-04-13T09:34:41Z</time>
      </trkpt>
      <trkpt lat="46.07457" lon="7.30751">
        <ele>2953.79</ele>
        <time>2010-04-13T09:34:43Z</time>
      </trkpt>
      <trkpt lat="46.07456" lon="7.30757">
        <ele>2952.83</ele>
        <time>2010-04-13T09:34:54Z</time>
      </trkpt>
      <trkpt lat="46.07456" lon="7.30758">
        <ele>2952.83</ele>
        <time>2010-04-13T09:34:57Z</time>
      </trkpt>
      <trkpt lat="46.07449" lon="7.30768">
        <ele>2952.83</ele>
        <time>2010-04-13T09:35:11Z</time>
      </trkpt>
      <trkpt lat="46.07447" lon="7.3077">
        <ele>2951.87</ele>
        <time>2010-04-13T09:35:19Z</time>
      </trkpt>
      <trkpt lat="46.07434" lon="7.30777">
        <ele>2948.98</ele>
        <time>2010-04-13T09:35:30Z</time>
      </trkpt>
      <trkpt lat="46.07434" lon="7.30778">
        <ele>2949.46</ele>
        <time>2010-04-13T09:35:35Z</time>
      </trkpt>
      <trkpt lat="46.07418" lon="7.30794">
        <ele>2946.1</ele>
        <time>2010-04-13T09:35:41Z</time>
      </trkpt>
      <trkpt lat="46.07413" lon="7.30799">
        <ele>2943.21</ele>
        <time>2010-04-13T09:35:48Z</time>
      </trkpt>
      <trkpt lat="46.07413" lon="7.30799">
        <ele>2944.17</ele>
        <time>2010-04-13T09:36:18Z</time>
      </trkpt>
      <trkpt lat="46.07414" lon="7.30799">
        <ele>2944.17</ele>
        <time>2010-04-13T09:36:37Z</time>
      </trkpt>
      <trkpt lat="46.0742" lon="7.30794">
        <ele>2945.14</ele>
        <time>2010-04-13T09:36:49Z</time>
      </trkpt>
      <trkpt lat="46.07425" lon="7.30791">
        <ele>2946.1</ele>
        <time>2010-04-13T09:37:05Z</time>
      </trkpt>
      <trkpt lat="46.07415" lon="7.30801">
        <ele>2944.66</ele>
        <time>2010-04-13T09:37:26Z</time>
      </trkpt>
      <trkpt lat="46.07411" lon="7.30814">
        <ele>2942.25</ele>
        <time>2010-04-13T09:37:28Z</time>
      </trkpt>
      <trkpt lat="46.07407" lon="7.30833">
        <ele>2937.45</ele>
        <time>2010-04-13T09:37:32Z</time>
      </trkpt>
      <trkpt lat="46.07406" lon="7.30835">
        <ele>2936.48</ele>
        <time>2010-04-13T09:37:34Z</time>
      </trkpt>
      <trkpt lat="46.07405" lon="7.30838">
        <ele>2936</ele>
        <time>2010-04-13T09:37:43Z</time>
      </trkpt>
      <trkpt lat="46.07406" lon="7.30848">
        <ele>2934.08</ele>
        <time>2010-04-13T09:37:46Z</time>
      </trkpt>
      <trkpt lat="46.07406" lon="7.30857">
        <ele>2930.72</ele>
        <time>2010-04-13T09:37:49Z</time>
      </trkpt>
      <trkpt lat="46.07404" lon="7.30868">
        <ele>2926.87</ele>
        <time>2010-04-13T09:37:52Z</time>
      </trkpt>
      <trkpt lat="46.07403" lon="7.30872">
        <ele>2924.95</ele>
        <time>2010-04-13T09:37:54Z</time>
      </trkpt>
      <trkpt lat="46.07398" lon="7.30884">
        <ele>2921.58</ele>
        <time>2010-04-13T09:37:57Z</time>
      </trkpt>
      <trkpt lat="46.07393" lon="7.30895">
        <ele>2917.26</ele>
        <time>2010-04-13T09:38:00Z</time>
      </trkpt>
      <trkpt lat="46.07392" lon="7.30904">
        <ele>2913.41</ele>
        <time>2010-04-13T09:38:02Z</time>
      </trkpt>
      <trkpt lat="46.07389" lon="7.30927">
        <ele>2907.65</ele>
        <time>2010-04-13T09:38:06Z</time>
      </trkpt>
      <trkpt lat="46.07387" lon="7.30937">
        <ele>2903.8</ele>
        <time>2010-04-13T09:38:08Z</time>
      </trkpt>
      <trkpt lat="46.07386" lon="7.30942">
        <ele>2904.28</ele>
        <time>2010-04-13T09:38:09Z</time>
      </trkpt>
      <trkpt lat="46.0738" lon="7.30963">
        <ele>2900.44</ele>
        <time>2010-04-13T09:38:13Z</time>
      </trkpt>
      <trkpt lat="46.07373" lon="7.30982">
        <ele>2897.55</ele>
        <time>2010-04-13T09:38:17Z</time>
      </trkpt>
      <trkpt lat="46.0737" lon="7.30992">
        <ele>2896.11</ele>
        <time>2010-04-13T09:38:19Z</time>
      </trkpt>
      <trkpt lat="46.07365" lon="7.3101">
        <ele>2894.19</ele>
        <time>2010-04-13T09:38:22Z</time>
      </trkpt>
      <trkpt lat="46.0736" lon="7.31033">
        <ele>2890.34</ele>
        <time>2010-04-13T09:38:25Z</time>
      </trkpt>
      <trkpt lat="46.07355" lon="7.31054">
        <ele>2887.94</ele>
        <time>2010-04-13T09:38:28Z</time>
      </trkpt>
      <trkpt lat="46.07353" lon="7.31081">
        <ele>2886.98</ele>
        <time>2010-04-13T09:38:32Z</time>
      </trkpt>
      <trkpt lat="46.07346" lon="7.31108">
        <ele>2884.57</ele>
        <time>2010-04-13T09:38:36Z</time>
      </trkpt>
      <trkpt lat="46.07339" lon="7.3113">
        <ele>2880.73</ele>
        <time>2010-04-13T09:38:40Z</time>
      </trkpt>
      <trkpt lat="46.07336" lon="7.3115">
        <ele>2877.36</ele>
        <time>2010-04-13T09:38:43Z</time>
      </trkpt>
      <trkpt lat="46.07328" lon="7.31172">
        <ele>2872.08</ele>
        <time>2010-04-13T09:38:46Z</time>
      </trkpt>
      <trkpt lat="46.07322" lon="7.31204">
        <ele>2867.27</ele>
        <time>2010-04-13T09:38:49Z</time>
      </trkpt>
      <trkpt lat="46.07317" lon="7.31252">
        <ele>2862.46</ele>
        <time>2010-04-13T09:38:53Z</time>
      </trkpt>
      <trkpt lat="46.07315" lon="7.3129">
        <ele>2859.1</ele>
        <time>2010-04-13T09:38:56Z</time>
      </trkpt>
      <trkpt lat="46.07316" lon="7.31314">
        <ele>2856.21</ele>
        <time>2010-04-13T09:38:58Z</time>
      </trkpt>
      <trkpt lat="46.07321" lon="7.31354">
        <ele>2851.89</ele>
        <time>2010-04-13T09:39:02Z</time>
      </trkpt>
      <trkpt lat="46.07324" lon="7.31369">
        <ele>2848.52</ele>
        <time>2010-04-13T09:39:04Z</time>
      </trkpt>
      <trkpt lat="46.07325" lon="7.31407">
        <ele>2843.24</ele>
        <time>2010-04-13T09:39:09Z</time>
      </trkpt>
      <trkpt lat="46.07323" lon="7.31413">
        <ele>2842.28</ele>
        <time>2010-04-13T09:39:10Z</time>
      </trkpt>
      <trkpt lat="46.07315" lon="7.31446">
        <ele>2838.91</ele>
        <time>2010-04-13T09:39:14Z</time>
      </trkpt>
      <trkpt lat="46.07314" lon="7.31467">
        <ele>2836.99</ele>
        <time>2010-04-13T09:39:16Z</time>
      </trkpt>
      <trkpt lat="46.07305" lon="7.3149">
        <ele>2834.1</ele>
        <time>2010-04-13T09:39:19Z</time>
      </trkpt>
      <trkpt lat="46.073" lon="7.31506">
        <ele>2832.66</ele>
        <time>2010-04-13T09:39:21Z</time>
      </trkpt>
      <trkpt lat="46.07292" lon="7.31545">
        <ele>2826.89</ele>
        <time>2010-04-13T09:39:25Z</time>
      </trkpt>
      <trkpt lat="46.07289" lon="7.31563">
        <ele>2825.93</ele>
        <time>2010-04-13T09:39:27Z</time>
      </trkpt>
      <trkpt lat="46.07284" lon="7.31601">
        <ele>2822.57</ele>
        <time>2010-04-13T09:39:31Z</time>
      </trkpt>
      <trkpt lat="46.0728" lon="7.31616">
        <ele>2821.61</ele>
        <time>2010-04-13T09:39:33Z</time>
      </trkpt>
      <trkpt lat="46.07271" lon="7.31654">
        <ele>2820.16</ele>
        <time>2010-04-13T09:39:43Z</time>
      </trkpt>
      <trkpt lat="46.07269" lon="7.31663">
        <ele>2819.68</ele>
        <time>2010-04-13T09:39:54Z</time>
      </trkpt>
      <trkpt lat="46.07266" lon="7.3167">
        <ele>2818.72</ele>
        <time>2010-04-13T09:39:59Z</time>
      </trkpt>
      <trkpt lat="46.07266" lon="7.31673">
        <ele>2819.2</ele>
        <time>2010-04-13T09:40:01Z</time>
      </trkpt>
      <trkpt lat="46.07263" lon="7.31684">
        <ele>2819.68</ele>
        <time>2010-04-13T09:40:14Z</time>
      </trkpt>
      <trkpt lat="46.07262" lon="7.31686">
        <ele>2819.2</ele>
        <time>2010-04-13T09:40:17Z</time>
      </trkpt>
      <trkpt lat="46.07258" lon="7.31712">
        <ele>2819.2</ele>
        <time>2010-04-13T09:40:29Z</time>
      </trkpt>
      <trkpt lat="46.07255" lon="7.31738">
        <ele>2818.72</ele>
        <time>2010-04-13T09:40:40Z</time>
      </trkpt>
      <trkpt lat="46.07251" lon="7.31773">
        <ele>2818.24</ele>
        <time>2010-04-13T09:40:51Z</time>
      </trkpt>
      <trkpt lat="46.07244" lon="7.31804">
        <ele>2818.24</ele>
        <time>2010-04-13T09:41:00Z</time>
      </trkpt>
      <trkpt lat="46.07236" lon="7.31825">
        <ele>2817.76</ele>
        <time>2010-04-13T09:41:10Z</time>
      </trkpt>
      <trkpt lat="46.07235" lon="7.31833">
        <ele>2818.24</ele>
        <time>2010-04-13T09:41:20Z</time>
      </trkpt>
      <trkpt lat="46.0723" lon="7.31846">
        <ele>2817.28</ele>
        <time>2010-04-13T09:41:34Z</time>
      </trkpt>
      <trkpt lat="46.07228" lon="7.31853">
        <ele>2817.76</ele>
        <time>2010-04-13T09:41:47Z</time>
      </trkpt>
      <trkpt lat="46.07226" lon="7.31859">
        <ele>2816.8</ele>
        <time>2010-04-13T09:42:05Z</time>
      </trkpt>
      <trkpt lat="46.07223" lon="7.31866">
        <ele>2817.28</ele>
        <time>2010-04-13T09:42:10Z</time>
      </trkpt>
      <trkpt lat="46.07221" lon="7.31873">
        <ele>2817.76</ele>
        <time>2010-04-13T09:42:14Z</time>
      </trkpt>
      <trkpt lat="46.07221" lon="7.31916">
        <ele>2815.36</ele>
        <time>2010-04-13T09:42:25Z</time>
      </trkpt>
      <trkpt lat="46.07236" lon="7.31979">
        <ele>2811.99</ele>
        <time>2010-04-13T09:42:37Z</time>
      </trkpt>
      <trkpt lat="46.07238" lon="7.31988">
        <ele>2811.03</ele>
        <time>2010-04-13T09:42:38Z</time>
      </trkpt>
      <trkpt lat="46.07246" lon="7.32012">
        <ele>2806.71</ele>
        <time>2010-04-13T09:42:41Z</time>
      </trkpt>
      <trkpt lat="46.07252" lon="7.32032">
        <ele>2803.34</ele>
        <time>2010-04-13T09:42:44Z</time>
      </trkpt>
      <trkpt lat="46.07254" lon="7.32047">
        <ele>2799.5</ele>
        <time>2010-04-13T09:42:46Z</time>
      </trkpt>
      <trkpt lat="46.07255" lon="7.3206">
        <ele>2796.61</ele>
        <time>2010-04-13T09:42:48Z</time>
      </trkpt>
      <trkpt lat="46.07256" lon="7.32058">
        <ele>2796.13</ele>
        <time>2010-04-13T09:42:56Z</time>
      </trkpt>
      <trkpt lat="46.07256" lon="7.32058">
        <ele>2795.17</ele>
        <time>2010-04-13T09:43:17Z</time>
      </trkpt>
      <trkpt lat="46.07256" lon="7.32064">
        <ele>2793.25</ele>
        <time>2010-04-13T09:43:28Z</time>
      </trkpt>
      <trkpt lat="46.07256" lon="7.32065">
        <ele>2792.77</ele>
        <time>2010-04-13T09:44:13Z</time>
      </trkpt>
      <trkpt lat="46.07244" lon="7.3206">
        <ele>2789.88</ele>
        <time>2010-04-13T09:44:18Z</time>
      </trkpt>
      <trkpt lat="46.07234" lon="7.32077">
        <ele>2786.04</ele>
        <time>2010-04-13T09:44:23Z</time>
      </trkpt>
      <trkpt lat="46.07233" lon="7.32082">
        <ele>2786.04</ele>
        <time>2010-04-13T09:44:24Z</time>
      </trkpt>
      <trkpt lat="46.07232" lon="7.32085">
        <ele>2786.04</ele>
        <time>2010-04-13T09:44:25Z</time>
      </trkpt>
      <trkpt lat="46.07221" lon="7.32115">
        <ele>2786.52</ele>
        <time>2010-04-13T09:44:33Z</time>
      </trkpt>
      <trkpt lat="46.07207" lon="7.32133">
        <ele>2783.15</ele>
        <time>2010-04-13T09:44:37Z</time>
      </trkpt>
      <trkpt lat="46.072" lon="7.32139">
        <ele>2781.71</ele>
        <time>2010-04-13T09:44:39Z</time>
      </trkpt>
      <trkpt lat="46.07194" lon="7.3215">
        <ele>2780.27</ele>
        <time>2010-04-13T09:44:41Z</time>
      </trkpt>
      <trkpt lat="46.07189" lon="7.32155">
        <ele>2777.39</ele>
        <time>2010-04-13T09:44:42Z</time>
      </trkpt>
      <trkpt lat="46.07187" lon="7.32162">
        <ele>2776.91</ele>
        <time>2010-04-13T09:44:43Z</time>
      </trkpt>
      <trkpt lat="46.07186" lon="7.3217">
        <ele>2775.46</ele>
        <time>2010-04-13T09:44:44Z</time>
      </trkpt>
      <trkpt lat="46.07191" lon="7.32198">
        <ele>2774.98</ele>
        <time>2010-04-13T09:44:53Z</time>
      </trkpt>
      <trkpt lat="46.07192" lon="7.32204">
        <ele>2774.5</ele>
        <time>2010-04-13T09:44:54Z</time>
      </trkpt>
      <trkpt lat="46.07193" lon="7.32232">
        <ele>2772.58</ele>
        <time>2010-04-13T09:44:58Z</time>
      </trkpt>
      <trkpt lat="46.07191" lon="7.32247">
        <ele>2771.14</ele>
        <time>2010-04-13T09:45:00Z</time>
      </trkpt>
      <trkpt lat="46.07188" lon="7.3226">
        <ele>2770.18</ele>
        <time>2010-04-13T09:45:02Z</time>
      </trkpt>
      <trkpt lat="46.07176" lon="7.32295">
        <ele>2769.7</ele>
        <time>2010-04-13T09:45:12Z</time>
      </trkpt>
      <trkpt lat="46.07176" lon="7.32309">
        <ele>2770.18</ele>
        <time>2010-04-13T09:45:17Z</time>
      </trkpt>
      <trkpt lat="46.07171" lon="7.32341">
        <ele>2766.81</ele>
        <time>2010-04-13T09:45:22Z</time>
      </trkpt>
      <trkpt lat="46.07171" lon="7.32354">
        <ele>2767.29</ele>
        <time>2010-04-13T09:45:26Z</time>
      </trkpt>
      <trkpt lat="46.07173" lon="7.32365">
        <ele>2766.33</ele>
        <time>2010-04-13T09:45:28Z</time>
      </trkpt>
      <trkpt lat="46.07174" lon="7.32383">
        <ele>2765.37</ele>
        <time>2010-04-13T09:45:30Z</time>
      </trkpt>
      <trkpt lat="46.07167" lon="7.32393">
        <ele>2763.45</ele>
        <time>2010-04-13T09:45:33Z</time>
      </trkpt>
      <trkpt lat="46.07165" lon="7.32398">
        <ele>2762.97</ele>
        <time>2010-04-13T09:45:44Z</time>
      </trkpt>
      <trkpt lat="46.07165" lon="7.32397">
        <ele>2763.45</ele>
        <time>2010-04-13T09:46:01Z</time>
      </trkpt>
      <trkpt lat="46.07164" lon="7.32398">
        <ele>2761.52</ele>
        <time>2010-04-13T09:46:23Z</time>
      </trkpt>
      <trkpt lat="46.07164" lon="7.32395">
        <ele>2756.72</ele>
        <time>2010-04-13T09:50:29Z</time>
      </trkpt>
      <trkpt lat="46.07164" lon="7.32395">
        <ele>2760.56</ele>
        <time>2010-04-13T09:50:30Z</time>
      </trkpt>
      <trkpt lat="46.07163" lon="7.32395">
        <ele>2760.56</ele>
        <time>2010-04-13T09:55:55Z</time>
      </trkpt>
      <trkpt lat="46.07163" lon="7.32394">
        <ele>2755.76</ele>
        <time>2010-04-13T09:57:49Z</time>
      </trkpt>
      <trkpt lat="46.07163" lon="7.32394">
        <ele>2759.12</ele>
        <time>2010-04-13T09:57:50Z</time>
      </trkpt>
      <trkpt lat="46.07163" lon="7.32394">
        <ele>2758.64</ele>
        <time>2010-04-13T09:57:58Z</time>
      </trkpt>
      <trkpt lat="46.07163" lon="7.32394">
        <ele>2760.08</ele>
        <time>2010-04-13T09:58:00Z</time>
      </trkpt>
      <trkpt lat="46.07163" lon="7.32394">
        <ele>2760.56</ele>
        <time>2010-04-13T09:58:25Z</time>
      </trkpt>
      <trkpt lat="46.07163" lon="7.32394">
        <ele>2756.24</ele>
        <time>2010-04-13T09:58:56Z</time>
      </trkpt>
      <trkpt lat="46.07163" lon="7.32394">
        <ele>2756.24</ele>
        <time>2010-04-13T09:58:57Z</time>
      </trkpt>
      <trkpt lat="46.07163" lon="7.32394">
        <ele>2759.12</ele>
        <time>2010-04-13T09:59:06Z</time>
      </trkpt>
      <trkpt lat="46.07163" lon="7.32394">
        <ele>2749.99</ele>
        <time>2010-04-13T09:59:32Z</time>
      </trkpt>
      <trkpt lat="46.07163" lon="7.32394">
        <ele>2758.16</ele>
        <time>2010-04-13T09:59:33Z</time>
      </trkpt>
      <trkpt lat="46.07163" lon="7.32394">
        <ele>2760.08</ele>
        <time>2010-04-13T09:59:36Z</time>
      </trkpt>
      <trkpt lat="46.07163" lon="7.32394">
        <ele>2759.6</ele>
        <time>2010-04-13T09:59:56Z</time>
      </trkpt>
      <trkpt lat="46.07162" lon="7.32394">
        <ele>2759.12</ele>
        <time>2010-04-13T10:00:59Z</time>
      </trkpt>
      <trkpt lat="46.07162" lon="7.32395">
        <ele>2759.12</ele>
        <time>2010-04-13T10:02:07Z</time>
      </trkpt>
      <trkpt lat="46.07162" lon="7.32395">
        <ele>2760.08</ele>
        <time>2010-04-13T10:02:16Z</time>
      </trkpt>
      <trkpt lat="46.07163" lon="7.32395">
        <ele>2760.56</ele>
        <time>2010-04-13T10:02:54Z</time>
      </trkpt>
      <trkpt lat="46.07162" lon="7.32395">
        <ele>2759.6</ele>
        <time>2010-04-13T10:03:07Z</time>
      </trkpt>
      <trkpt lat="46.07156" lon="7.32403">
        <ele>2761.04</ele>
        <time>2010-04-13T10:03:18Z</time>
      </trkpt>
      <trkpt lat="46.07154" lon="7.32406">
        <ele>2761.52</ele>
        <time>2010-04-13T10:03:21Z</time>
      </trkpt>
      <trkpt lat="46.0715" lon="7.32411">
        <ele>2763.45</ele>
        <time>2010-04-13T10:03:33Z</time>
      </trkpt>
      <trkpt lat="46.07143" lon="7.3242">
        <ele>2764.89</ele>
        <time>2010-04-13T10:03:45Z</time>
      </trkpt>
      <trkpt lat="46.07138" lon="7.32425">
        <ele>2767.29</ele>
        <time>2010-04-13T10:03:55Z</time>
      </trkpt>
      <trkpt lat="46.07138" lon="7.32426">
        <ele>2766.81</ele>
        <time>2010-04-13T10:03:56Z</time>
      </trkpt>
      <trkpt lat="46.07131" lon="7.32443">
        <ele>2768.25</ele>
        <time>2010-04-13T10:04:08Z</time>
      </trkpt>
      <trkpt lat="46.07127" lon="7.32454">
        <ele>2768.25</ele>
        <time>2010-04-13T10:04:16Z</time>
      </trkpt>
      <trkpt lat="46.07121" lon="7.32476">
        <ele>2769.21</ele>
        <time>2010-04-13T10:04:28Z</time>
      </trkpt>
      <trkpt lat="46.07113" lon="7.32498">
        <ele>2771.14</ele>
        <time>2010-04-13T10:04:40Z</time>
      </trkpt>
      <trkpt lat="46.07109" lon="7.32507">
        <ele>2773.06</ele>
        <time>2010-04-13T10:04:46Z</time>
      </trkpt>
      <trkpt lat="46.07107" lon="7.32509">
        <ele>2773.54</ele>
        <time>2010-04-13T10:04:48Z</time>
      </trkpt>
      <trkpt lat="46.07105" lon="7.32514">
        <ele>2774.5</ele>
        <time>2010-04-13T10:04:51Z</time>
      </trkpt>
      <trkpt lat="46.07103" lon="7.3252">
        <ele>2775.46</ele>
        <time>2010-04-13T10:04:55Z</time>
      </trkpt>
      <trkpt lat="46.07102" lon="7.32522">
        <ele>2776.91</ele>
        <time>2010-04-13T10:04:57Z</time>
      </trkpt>
      <trkpt lat="46.07101" lon="7.32525">
        <ele>2777.87</ele>
        <time>2010-04-13T10:04:59Z</time>
      </trkpt>
      <trkpt lat="46.07099" lon="7.32531">
        <ele>2778.83</ele>
        <time>2010-04-13T10:05:03Z</time>
      </trkpt>
      <trkpt lat="46.07097" lon="7.32533">
        <ele>2780.75</ele>
        <time>2010-04-13T10:05:17Z</time>
      </trkpt>
      <trkpt lat="46.07098" lon="7.32534">
        <ele>2780.27</ele>
        <time>2010-04-13T10:06:08Z</time>
      </trkpt>
      <trkpt lat="46.07098" lon="7.32533">
        <ele>2780.27</ele>
        <time>2010-04-13T10:06:56Z</time>
      </trkpt>
      <trkpt lat="46.07095" lon="7.32537">
        <ele>2782.19</ele>
        <time>2010-04-13T10:07:21Z</time>
      </trkpt>
      <trkpt lat="46.07093" lon="7.32538">
        <ele>2781.71</ele>
        <time>2010-04-13T10:07:22Z</time>
      </trkpt>
      <trkpt lat="46.0709" lon="7.32541">
        <ele>2782.19</ele>
        <time>2010-04-13T10:07:26Z</time>
      </trkpt>
      <trkpt lat="46.07081" lon="7.32545">
        <ele>2784.12</ele>
        <time>2010-04-13T10:07:35Z</time>
      </trkpt>
      <trkpt lat="46.07073" lon="7.32551">
        <ele>2786.52</ele>
        <time>2010-04-13T10:07:47Z</time>
      </trkpt>
      <trkpt lat="46.07065" lon="7.32557">
        <ele>2789.4</ele>
        <time>2010-04-13T10:08:02Z</time>
      </trkpt>
      <trkpt lat="46.07066" lon="7.3257">
        <ele>2790.84</ele>
        <time>2010-04-13T10:08:17Z</time>
      </trkpt>
      <trkpt lat="46.07065" lon="7.32582">
        <ele>2793.25</ele>
        <time>2010-04-13T10:08:31Z</time>
      </trkpt>
      <trkpt lat="46.07058" lon="7.32587">
        <ele>2795.17</ele>
        <time>2010-04-13T10:08:43Z</time>
      </trkpt>
      <trkpt lat="46.07051" lon="7.32595">
        <ele>2797.09</ele>
        <time>2010-04-13T10:08:56Z</time>
      </trkpt>
      <trkpt lat="46.07046" lon="7.32599">
        <ele>2798.05</ele>
        <time>2010-04-13T10:09:03Z</time>
      </trkpt>
      <trkpt lat="46.07041" lon="7.32603">
        <ele>2798.54</ele>
        <time>2010-04-13T10:09:07Z</time>
      </trkpt>
      <trkpt lat="46.0704" lon="7.32608">
        <ele>2799.5</ele>
        <time>2010-04-13T10:09:18Z</time>
      </trkpt>
      <trkpt lat="46.07042" lon="7.32616">
        <ele>2802.86</ele>
        <time>2010-04-13T10:09:31Z</time>
      </trkpt>
      <trkpt lat="46.07044" lon="7.32625">
        <ele>2803.34</ele>
        <time>2010-04-13T10:09:43Z</time>
      </trkpt>
      <trkpt lat="46.07038" lon="7.32634">
        <ele>2805.26</ele>
        <time>2010-04-13T10:09:55Z</time>
      </trkpt>
      <trkpt lat="46.07031" lon="7.32634">
        <ele>2806.71</ele>
        <time>2010-04-13T10:10:08Z</time>
      </trkpt>
      <trkpt lat="46.07029" lon="7.32634">
        <ele>2810.07</ele>
        <time>2010-04-13T10:10:21Z</time>
      </trkpt>
      <trkpt lat="46.07028" lon="7.32645">
        <ele>2811.51</ele>
        <time>2010-04-13T10:10:34Z</time>
      </trkpt>
      <trkpt lat="46.07027" lon="7.32651">
        <ele>2812.96</ele>
        <time>2010-04-13T10:10:46Z</time>
      </trkpt>
      <trkpt lat="46.07028" lon="7.32661">
        <ele>2815.36</ele>
        <time>2010-04-13T10:10:57Z</time>
      </trkpt>
      <trkpt lat="46.07028" lon="7.32666">
        <ele>2817.28</ele>
        <time>2010-04-13T10:11:10Z</time>
      </trkpt>
      <trkpt lat="46.07026" lon="7.32671">
        <ele>2817.76</ele>
        <time>2010-04-13T10:11:17Z</time>
      </trkpt>
      <trkpt lat="46.07015" lon="7.32682">
        <ele>2819.68</ele>
        <time>2010-04-13T10:11:34Z</time>
      </trkpt>
      <trkpt lat="46.07009" lon="7.32683">
        <ele>2821.13</ele>
        <time>2010-04-13T10:11:46Z</time>
      </trkpt>
      <trkpt lat="46.07007" lon="7.32681">
        <ele>2822.09</ele>
        <time>2010-04-13T10:12:03Z</time>
      </trkpt>
      <trkpt lat="46.07005" lon="7.3268">
        <ele>2823.53</ele>
        <time>2010-04-13T10:12:07Z</time>
      </trkpt>
      <trkpt lat="46.06998" lon="7.32688">
        <ele>2824.49</ele>
        <time>2010-04-13T10:12:19Z</time>
      </trkpt>
      <trkpt lat="46.06996" lon="7.32693">
        <ele>2825.93</ele>
        <time>2010-04-13T10:12:30Z</time>
      </trkpt>
      <trkpt lat="46.06994" lon="7.32697">
        <ele>2826.41</ele>
        <time>2010-04-13T10:12:40Z</time>
      </trkpt>
      <trkpt lat="46.06993" lon="7.32699">
        <ele>2827.85</ele>
        <time>2010-04-13T10:12:53Z</time>
      </trkpt>
      <trkpt lat="46.06992" lon="7.32705">
        <ele>2828.82</ele>
        <time>2010-04-13T10:13:04Z</time>
      </trkpt>
      <trkpt lat="46.06996" lon="7.32713">
        <ele>2829.78</ele>
        <time>2010-04-13T10:13:16Z</time>
      </trkpt>
      <trkpt lat="46.06996" lon="7.32714">
        <ele>2831.22</ele>
        <time>2010-04-13T10:13:19Z</time>
      </trkpt>
      <trkpt lat="46.06998" lon="7.32718">
        <ele>2832.66</ele>
        <time>2010-04-13T10:13:30Z</time>
      </trkpt>
      <trkpt lat="46.06997" lon="7.3272">
        <ele>2834.1</ele>
        <time>2010-04-13T10:13:43Z</time>
      </trkpt>
      <trkpt lat="46.06997" lon="7.3272">
        <ele>2834.1</ele>
        <time>2010-04-13T10:14:02Z</time>
      </trkpt>
      <trkpt lat="46.06995" lon="7.32719">
        <ele>2835.06</ele>
        <time>2010-04-13T10:14:07Z</time>
      </trkpt>
      <trkpt lat="46.06992" lon="7.32719">
        <ele>2836.03</ele>
        <time>2010-04-13T10:14:23Z</time>
      </trkpt>
      <trkpt lat="46.0699" lon="7.32719">
        <ele>2836.03</ele>
        <time>2010-04-13T10:15:23Z</time>
      </trkpt>
      <trkpt lat="46.06989" lon="7.32719">
        <ele>2835.55</ele>
        <time>2010-04-13T10:15:33Z</time>
      </trkpt>
      <trkpt lat="46.06987" lon="7.32717">
        <ele>2836.99</ele>
        <time>2010-04-13T10:15:36Z</time>
      </trkpt>
      <trkpt lat="46.06986" lon="7.32717">
        <ele>2835.55</ele>
        <time>2010-04-13T10:15:39Z</time>
      </trkpt>
      <trkpt lat="46.06986" lon="7.32717">
        <ele>2837.47</ele>
        <time>2010-04-13T10:15:41Z</time>
      </trkpt>
      <trkpt lat="46.06986" lon="7.32713">
        <ele>2837.95</ele>
        <time>2010-04-13T10:15:47Z</time>
      </trkpt>
      <trkpt lat="46.0698" lon="7.32711">
        <ele>2838.91</ele>
        <time>2010-04-13T10:15:57Z</time>
      </trkpt>
      <trkpt lat="46.06979" lon="7.3271">
        <ele>2840.35</ele>
        <time>2010-04-13T10:16:03Z</time>
      </trkpt>
      <trkpt lat="46.06979" lon="7.32717">
        <ele>2842.28</ele>
        <time>2010-04-13T10:16:15Z</time>
      </trkpt>
      <trkpt lat="46.06972" lon="7.32731">
        <ele>2844.2</ele>
        <time>2010-04-13T10:16:27Z</time>
      </trkpt>
      <trkpt lat="46.06971" lon="7.32734">
        <ele>2845.16</ele>
        <time>2010-04-13T10:16:30Z</time>
      </trkpt>
      <trkpt lat="46.06966" lon="7.32736">
        <ele>2846.6</ele>
        <time>2010-04-13T10:16:41Z</time>
      </trkpt>
      <trkpt lat="46.06962" lon="7.32732">
        <ele>2848.52</ele>
        <time>2010-04-13T10:16:48Z</time>
      </trkpt>
      <trkpt lat="46.06956" lon="7.32728">
        <ele>2850.45</ele>
        <time>2010-04-13T10:16:59Z</time>
      </trkpt>
      <trkpt lat="46.06953" lon="7.32724">
        <ele>2851.89</ele>
        <time>2010-04-13T10:17:13Z</time>
      </trkpt>
      <trkpt lat="46.06949" lon="7.32714">
        <ele>2854.77</ele>
        <time>2010-04-13T10:17:27Z</time>
      </trkpt>
      <trkpt lat="46.0695" lon="7.32713">
        <ele>2856.21</ele>
        <time>2010-04-13T10:17:44Z</time>
      </trkpt>
      <trkpt lat="46.0695" lon="7.32712">
        <ele>2856.69</ele>
        <time>2010-04-13T10:18:02Z</time>
      </trkpt>
      <trkpt lat="46.06951" lon="7.32704">
        <ele>2858.62</ele>
        <time>2010-04-13T10:18:17Z</time>
      </trkpt>
      <trkpt lat="46.06949" lon="7.327">
        <ele>2859.58</ele>
        <time>2010-04-13T10:18:21Z</time>
      </trkpt>
      <trkpt lat="46.06948" lon="7.327">
        <ele>2860.06</ele>
        <time>2010-04-13T10:18:24Z</time>
      </trkpt>
      <trkpt lat="46.06939" lon="7.32711">
        <ele>2861.5</ele>
        <time>2010-04-13T10:18:37Z</time>
      </trkpt>
      <trkpt lat="46.06932" lon="7.32713">
        <ele>2861.02</ele>
        <time>2010-04-13T10:18:46Z</time>
      </trkpt>
      <trkpt lat="46.06931" lon="7.32713">
        <ele>2862.46</ele>
        <time>2010-04-13T10:19:02Z</time>
      </trkpt>
      <trkpt lat="46.06927" lon="7.32712">
        <ele>2862.46</ele>
        <time>2010-04-13T10:19:26Z</time>
      </trkpt>
      <trkpt lat="46.06918" lon="7.3271">
        <ele>2862.46</ele>
        <time>2010-04-13T10:19:34Z</time>
      </trkpt>
      <trkpt lat="46.06909" lon="7.32712">
        <ele>2862.46</ele>
        <time>2010-04-13T10:19:44Z</time>
      </trkpt>
      <trkpt lat="46.06899" lon="7.32712">
        <ele>2862.46</ele>
        <time>2010-04-13T10:19:56Z</time>
      </trkpt>
      <trkpt lat="46.06895" lon="7.32714">
        <ele>2862.46</ele>
        <time>2010-04-13T10:20:01Z</time>
      </trkpt>
      <trkpt lat="46.06891" lon="7.32714">
        <ele>2862.46</ele>
        <time>2010-04-13T10:20:05Z</time>
      </trkpt>
      <trkpt lat="46.06882" lon="7.32716">
        <ele>2862.94</ele>
        <time>2010-04-13T10:20:19Z</time>
      </trkpt>
      <trkpt lat="46.06877" lon="7.32718">
        <ele>2863.42</ele>
        <time>2010-04-13T10:20:37Z</time>
      </trkpt>
      <trkpt lat="46.06867" lon="7.32727">
        <ele>2866.31</ele>
        <time>2010-04-13T10:20:55Z</time>
      </trkpt>
      <trkpt lat="46.06865" lon="7.32729">
        <ele>2867.75</ele>
        <time>2010-04-13T10:21:09Z</time>
      </trkpt>
      <trkpt lat="46.06861" lon="7.32733">
        <ele>2869.19</ele>
        <time>2010-04-13T10:21:15Z</time>
      </trkpt>
      <trkpt lat="46.06853" lon="7.32743">
        <ele>2871.11</ele>
        <time>2010-04-13T10:21:28Z</time>
      </trkpt>
      <trkpt lat="46.06848" lon="7.3275">
        <ele>2871.6</ele>
        <time>2010-04-13T10:21:39Z</time>
      </trkpt>
      <trkpt lat="46.06845" lon="7.32761">
        <ele>2873.52</ele>
        <time>2010-04-13T10:21:52Z</time>
      </trkpt>
      <trkpt lat="46.06849" lon="7.32768">
        <ele>2874</ele>
        <time>2010-04-13T10:22:03Z</time>
      </trkpt>
      <trkpt lat="46.06844" lon="7.32781">
        <ele>2875.92</ele>
        <time>2010-04-13T10:22:15Z</time>
      </trkpt>
      <trkpt lat="46.06843" lon="7.32789">
        <ele>2877.36</ele>
        <time>2010-04-13T10:22:25Z</time>
      </trkpt>
      <trkpt lat="46.0684" lon="7.32797">
        <ele>2878.81</ele>
        <time>2010-04-13T10:22:37Z</time>
      </trkpt>
      <trkpt lat="46.06835" lon="7.32808">
        <ele>2880.25</ele>
        <time>2010-04-13T10:22:48Z</time>
      </trkpt>
      <trkpt lat="46.06834" lon="7.32812">
        <ele>2881.21</ele>
        <time>2010-04-13T10:22:52Z</time>
      </trkpt>
      <trkpt lat="46.06828" lon="7.32826">
        <ele>2882.17</ele>
        <time>2010-04-13T10:23:04Z</time>
      </trkpt>
      <trkpt lat="46.06827" lon="7.32841">
        <ele>2883.13</ele>
        <time>2010-04-13T10:23:17Z</time>
      </trkpt>
      <trkpt lat="46.06825" lon="7.32851">
        <ele>2884.09</ele>
        <time>2010-04-13T10:23:27Z</time>
      </trkpt>
      <trkpt lat="46.06827" lon="7.32852">
        <ele>2884.09</ele>
        <time>2010-04-13T10:23:29Z</time>
      </trkpt>
      <trkpt lat="46.06823" lon="7.32867">
        <ele>2885.05</ele>
        <time>2010-04-13T10:23:39Z</time>
      </trkpt>
      <trkpt lat="46.06823" lon="7.32875">
        <ele>2886.02</ele>
        <time>2010-04-13T10:23:52Z</time>
      </trkpt>
      <trkpt lat="46.06817" lon="7.32886">
        <ele>2886.98</ele>
        <time>2010-04-13T10:24:03Z</time>
      </trkpt>
      <trkpt lat="46.0681" lon="7.32897">
        <ele>2888.9</ele>
        <time>2010-04-13T10:24:17Z</time>
      </trkpt>
      <trkpt lat="46.06806" lon="7.32905">
        <ele>2889.86</ele>
        <time>2010-04-13T10:24:28Z</time>
      </trkpt>
      <trkpt lat="46.06806" lon="7.32908">
        <ele>2890.82</ele>
        <time>2010-04-13T10:24:32Z</time>
      </trkpt>
      <trkpt lat="46.06803" lon="7.32911">
        <ele>2891.3</ele>
        <time>2010-04-13T10:24:38Z</time>
      </trkpt>
      <trkpt lat="46.06795" lon="7.32913">
        <ele>2894.19</ele>
        <time>2010-04-13T10:24:54Z</time>
      </trkpt>
      <trkpt lat="46.06793" lon="7.32913">
        <ele>2894.67</ele>
        <time>2010-04-13T10:24:56Z</time>
      </trkpt>
      <trkpt lat="46.06789" lon="7.32916">
        <ele>2895.63</ele>
        <time>2010-04-13T10:25:00Z</time>
      </trkpt>
      <trkpt lat="46.06784" lon="7.3292">
        <ele>2897.55</ele>
        <time>2010-04-13T10:25:11Z</time>
      </trkpt>
      <trkpt lat="46.06778" lon="7.32925">
        <ele>2899.47</ele>
        <time>2010-04-13T10:25:23Z</time>
      </trkpt>
      <trkpt lat="46.06779" lon="7.32935">
        <ele>2901.88</ele>
        <time>2010-04-13T10:25:37Z</time>
      </trkpt>
      <trkpt lat="46.06784" lon="7.32944">
        <ele>2903.8</ele>
        <time>2010-04-13T10:25:53Z</time>
      </trkpt>
      <trkpt lat="46.06787" lon="7.32955">
        <ele>2906.2</ele>
        <time>2010-04-13T10:26:08Z</time>
      </trkpt>
      <trkpt lat="46.06789" lon="7.32968">
        <ele>2908.61</ele>
        <time>2010-04-13T10:26:22Z</time>
      </trkpt>
      <trkpt lat="46.06789" lon="7.32978">
        <ele>2911.01</ele>
        <time>2010-04-13T10:26:34Z</time>
      </trkpt>
      <trkpt lat="46.06789" lon="7.32987">
        <ele>2911.97</ele>
        <time>2010-04-13T10:26:43Z</time>
      </trkpt>
      <trkpt lat="46.0679" lon="7.32997">
        <ele>2913.89</ele>
        <time>2010-04-13T10:26:51Z</time>
      </trkpt>
      <trkpt lat="46.06792" lon="7.33004">
        <ele>2915.82</ele>
        <time>2010-04-13T10:27:01Z</time>
      </trkpt>
      <trkpt lat="46.06789" lon="7.33016">
        <ele>2917.26</ele>
        <time>2010-04-13T10:27:13Z</time>
      </trkpt>
      <trkpt lat="46.06787" lon="7.33018">
        <ele>2917.26</ele>
        <time>2010-04-13T10:27:15Z</time>
      </trkpt>
      <trkpt lat="46.06783" lon="7.33029">
        <ele>2918.22</ele>
        <time>2010-04-13T10:27:25Z</time>
      </trkpt>
      <trkpt lat="46.06782" lon="7.33031">
        <ele>2918.22</ele>
        <time>2010-04-13T10:27:26Z</time>
      </trkpt>
      <trkpt lat="46.0678" lon="7.33047">
        <ele>2919.66</ele>
        <time>2010-04-13T10:27:39Z</time>
      </trkpt>
      <trkpt lat="46.0678" lon="7.3305">
        <ele>2919.18</ele>
        <time>2010-04-13T10:27:43Z</time>
      </trkpt>
      <trkpt lat="46.06779" lon="7.33056">
        <ele>2920.14</ele>
        <time>2010-04-13T10:27:47Z</time>
      </trkpt>
      <trkpt lat="46.06774" lon="7.33061">
        <ele>2921.1</ele>
        <time>2010-04-13T10:27:55Z</time>
      </trkpt>
      <trkpt lat="46.06767" lon="7.33073">
        <ele>2922.06</ele>
        <time>2010-04-13T10:28:08Z</time>
      </trkpt>
      <trkpt lat="46.06767" lon="7.3308">
        <ele>2924.47</ele>
        <time>2010-04-13T10:28:19Z</time>
      </trkpt>
      <trkpt lat="46.06767" lon="7.3308">
        <ele>2924.95</ele>
        <time>2010-04-13T10:28:20Z</time>
      </trkpt>
      <trkpt lat="46.06773" lon="7.33086">
        <ele>2925.91</ele>
        <time>2010-04-13T10:28:31Z</time>
      </trkpt>
      <trkpt lat="46.06773" lon="7.3309">
        <ele>2927.35</ele>
        <time>2010-04-13T10:28:47Z</time>
      </trkpt>
      <trkpt lat="46.06775" lon="7.33101">
        <ele>2930.24</ele>
        <time>2010-04-13T10:29:01Z</time>
      </trkpt>
      <trkpt lat="46.06778" lon="7.33115">
        <ele>2932.64</ele>
        <time>2010-04-13T10:29:14Z</time>
      </trkpt>
      <trkpt lat="46.06779" lon="7.33123">
        <ele>2933.6</ele>
        <time>2010-04-13T10:29:26Z</time>
      </trkpt>
      <trkpt lat="46.06779" lon="7.33124">
        <ele>2933.12</ele>
        <time>2010-04-13T10:29:27Z</time>
      </trkpt>
      <trkpt lat="46.0678" lon="7.33134">
        <ele>2935.04</ele>
        <time>2010-04-13T10:29:37Z</time>
      </trkpt>
      <trkpt lat="46.0678" lon="7.33145">
        <ele>2936</ele>
        <time>2010-04-13T10:29:51Z</time>
      </trkpt>
      <trkpt lat="46.06781" lon="7.33159">
        <ele>2938.41</ele>
        <time>2010-04-13T10:30:05Z</time>
      </trkpt>
      <trkpt lat="46.06782" lon="7.33166">
        <ele>2940.33</ele>
        <time>2010-04-13T10:30:20Z</time>
      </trkpt>
      <trkpt lat="46.06782" lon="7.33176">
        <ele>2943.21</ele>
        <time>2010-04-13T10:30:34Z</time>
      </trkpt>
      <trkpt lat="46.06781" lon="7.33185">
        <ele>2943.69</ele>
        <time>2010-04-13T10:30:45Z</time>
      </trkpt>
      <trkpt lat="46.06781" lon="7.33197">
        <ele>2945.62</ele>
        <time>2010-04-13T10:30:58Z</time>
      </trkpt>
      <trkpt lat="46.06781" lon="7.33204">
        <ele>2947.06</ele>
        <time>2010-04-13T10:31:13Z</time>
      </trkpt>
      <trkpt lat="46.06781" lon="7.33208">
        <ele>2947.06</ele>
        <time>2010-04-13T10:31:28Z</time>
      </trkpt>
      <trkpt lat="46.06781" lon="7.33212">
        <ele>2948.02</ele>
        <time>2010-04-13T10:31:39Z</time>
      </trkpt>
      <trkpt lat="46.06779" lon="7.33221">
        <ele>2949.46</ele>
        <time>2010-04-13T10:31:48Z</time>
      </trkpt>
      <trkpt lat="46.06778" lon="7.3323">
        <ele>2950.9</ele>
        <time>2010-04-13T10:32:05Z</time>
      </trkpt>
      <trkpt lat="46.06777" lon="7.33239">
        <ele>2952.83</ele>
        <time>2010-04-13T10:32:15Z</time>
      </trkpt>
      <trkpt lat="46.06775" lon="7.33248">
        <ele>2953.31</ele>
        <time>2010-04-13T10:32:27Z</time>
      </trkpt>
      <trkpt lat="46.06772" lon="7.33256">
        <ele>2955.23</ele>
        <time>2010-04-13T10:32:39Z</time>
      </trkpt>
      <trkpt lat="46.06773" lon="7.33265">
        <ele>2956.19</ele>
        <time>2010-04-13T10:32:53Z</time>
      </trkpt>
      <trkpt lat="46.06772" lon="7.33274">
        <ele>2957.63</ele>
        <time>2010-04-13T10:33:05Z</time>
      </trkpt>
      <trkpt lat="46.06774" lon="7.33283">
        <ele>2958.59</ele>
        <time>2010-04-13T10:33:18Z</time>
      </trkpt>
      <trkpt lat="46.06776" lon="7.3329">
        <ele>2959.08</ele>
        <time>2010-04-13T10:33:31Z</time>
      </trkpt>
      <trkpt lat="46.06778" lon="7.33301">
        <ele>2960.04</ele>
        <time>2010-04-13T10:33:45Z</time>
      </trkpt>
      <trkpt lat="46.0678" lon="7.3331">
        <ele>2960.04</ele>
        <time>2010-04-13T10:33:58Z</time>
      </trkpt>
      <trkpt lat="46.06775" lon="7.33322">
        <ele>2961.48</ele>
        <time>2010-04-13T10:34:12Z</time>
      </trkpt>
      <trkpt lat="46.06773" lon="7.3333">
        <ele>2962.44</ele>
        <time>2010-04-13T10:34:26Z</time>
      </trkpt>
      <trkpt lat="46.06772" lon="7.33331">
        <ele>2962.44</ele>
        <time>2010-04-13T10:34:27Z</time>
      </trkpt>
      <trkpt lat="46.0677" lon="7.33337">
        <ele>2965.32</ele>
        <time>2010-04-13T10:34:41Z</time>
      </trkpt>
      <trkpt lat="46.06763" lon="7.33345">
        <ele>2966.77</ele>
        <time>2010-04-13T10:34:58Z</time>
      </trkpt>
      <trkpt lat="46.06761" lon="7.33352">
        <ele>2967.73</ele>
        <time>2010-04-13T10:35:09Z</time>
      </trkpt>
      <trkpt lat="46.06759" lon="7.33355">
        <ele>2969.17</ele>
        <time>2010-04-13T10:35:18Z</time>
      </trkpt>
      <trkpt lat="46.06758" lon="7.3336">
        <ele>2970.13</ele>
        <time>2010-04-13T10:35:27Z</time>
      </trkpt>
      <trkpt lat="46.06758" lon="7.33361">
        <ele>2970.61</ele>
        <time>2010-04-13T10:35:45Z</time>
      </trkpt>
      <trkpt lat="46.06754" lon="7.33369">
        <ele>2972.53</ele>
        <time>2010-04-13T10:36:01Z</time>
      </trkpt>
      <trkpt lat="46.06748" lon="7.33383">
        <ele>2976.38</ele>
        <time>2010-04-13T10:36:22Z</time>
      </trkpt>
      <trkpt lat="46.06743" lon="7.3339">
        <ele>2977.82</ele>
        <time>2010-04-13T10:36:35Z</time>
      </trkpt>
      <trkpt lat="46.06749" lon="7.33391">
        <ele>2978.3</ele>
        <time>2010-04-13T10:36:51Z</time>
      </trkpt>
      <trkpt lat="46.06755" lon="7.33395">
        <ele>2982.15</ele>
        <time>2010-04-13T10:37:15Z</time>
      </trkpt>
      <trkpt lat="46.06755" lon="7.33395">
        <ele>2982.15</ele>
        <time>2010-04-13T10:37:16Z</time>
      </trkpt>
      <trkpt lat="46.0676" lon="7.33399">
        <ele>2982.15</ele>
        <time>2010-04-13T10:37:21Z</time>
      </trkpt>
      <trkpt lat="46.06763" lon="7.33401">
        <ele>2983.11</ele>
        <time>2010-04-13T10:37:23Z</time>
      </trkpt>
      <trkpt lat="46.06773" lon="7.33407">
        <ele>2985.51</ele>
        <time>2010-04-13T10:37:41Z</time>
      </trkpt>
      <trkpt lat="46.06783" lon="7.3341">
        <ele>2988.4</ele>
        <time>2010-04-13T10:37:56Z</time>
      </trkpt>
      <trkpt lat="46.06789" lon="7.3341">
        <ele>2989.36</ele>
        <time>2010-04-13T10:38:02Z</time>
      </trkpt>
      <trkpt lat="46.06796" lon="7.3341">
        <ele>2990.32</ele>
        <time>2010-04-13T10:38:09Z</time>
      </trkpt>
      <trkpt lat="46.068" lon="7.33411">
        <ele>2991.76</ele>
        <time>2010-04-13T10:38:21Z</time>
      </trkpt>
      <trkpt lat="46.06803" lon="7.33412">
        <ele>2992.72</ele>
        <time>2010-04-13T10:38:32Z</time>
      </trkpt>
      <trkpt lat="46.06803" lon="7.33413">
        <ele>2994.16</ele>
        <time>2010-04-13T10:38:36Z</time>
      </trkpt>
      <trkpt lat="46.06804" lon="7.33416">
        <ele>2995.6</ele>
        <time>2010-04-13T10:38:42Z</time>
      </trkpt>
      <trkpt lat="46.06804" lon="7.33422">
        <ele>2996.57</ele>
        <time>2010-04-13T10:38:53Z</time>
      </trkpt>
      <trkpt lat="46.06809" lon="7.33426">
        <ele>2998.49</ele>
        <time>2010-04-13T10:39:05Z</time>
      </trkpt>
      <trkpt lat="46.06812" lon="7.33436">
        <ele>2999.93</ele>
        <time>2010-04-13T10:39:15Z</time>
      </trkpt>
      <trkpt lat="46.06813" lon="7.33446">
        <ele>3002.82</ele>
        <time>2010-04-13T10:39:29Z</time>
      </trkpt>
      <trkpt lat="46.06815" lon="7.33455">
        <ele>3003.3</ele>
        <time>2010-04-13T10:39:40Z</time>
      </trkpt>
      <trkpt lat="46.06814" lon="7.33465">
        <ele>3005.22</ele>
        <time>2010-04-13T10:39:52Z</time>
      </trkpt>
      <trkpt lat="46.06814" lon="7.33467">
        <ele>3005.22</ele>
        <time>2010-04-13T10:39:54Z</time>
      </trkpt>
      <trkpt lat="46.06815" lon="7.33478">
        <ele>3005.7</ele>
        <time>2010-04-13T10:40:06Z</time>
      </trkpt>
      <trkpt lat="46.06816" lon="7.33488">
        <ele>3006.18</ele>
        <time>2010-04-13T10:40:17Z</time>
      </trkpt>
      <trkpt lat="46.06816" lon="7.3349">
        <ele>3006.66</ele>
        <time>2010-04-13T10:40:20Z</time>
      </trkpt>
      <trkpt lat="46.06818" lon="7.33501">
        <ele>3007.62</ele>
        <time>2010-04-13T10:40:32Z</time>
      </trkpt>
      <trkpt lat="46.06817" lon="7.33511">
        <ele>3008.1</ele>
        <time>2010-04-13T10:40:43Z</time>
      </trkpt>
      <trkpt lat="46.06815" lon="7.33516">
        <ele>3008.1</ele>
        <time>2010-04-13T10:40:58Z</time>
      </trkpt>
      <trkpt lat="46.06815" lon="7.33516">
        <ele>3007.14</ele>
        <time>2010-04-13T10:41:21Z</time>
      </trkpt>
      <trkpt lat="46.06815" lon="7.33516">
        <ele>3008.1</ele>
        <time>2010-04-13T10:41:58Z</time>
      </trkpt>
      <trkpt lat="46.06815" lon="7.33516">
        <ele>3007.62</ele>
        <time>2010-04-13T10:42:09Z</time>
      </trkpt>
      <trkpt lat="46.06816" lon="7.33516">
        <ele>3006.18</ele>
        <time>2010-04-13T10:42:22Z</time>
      </trkpt>
      <trkpt lat="46.06814" lon="7.33515">
        <ele>3007.14</ele>
        <time>2010-04-13T10:42:30Z</time>
      </trkpt>
      <trkpt lat="46.06814" lon="7.33515">
        <ele>3007.14</ele>
        <time>2010-04-13T10:43:16Z</time>
      </trkpt>
      <trkpt lat="46.06815" lon="7.33515">
        <ele>3005.22</ele>
        <time>2010-04-13T10:43:26Z</time>
      </trkpt>
      <trkpt lat="46.06815" lon="7.33515">
        <ele>3006.66</ele>
        <time>2010-04-13T10:43:28Z</time>
      </trkpt>
      <trkpt lat="46.06815" lon="7.33516">
        <ele>3010.03</ele>
        <time>2010-04-13T10:44:57Z</time>
      </trkpt>
      <trkpt lat="46.06815" lon="7.33516">
        <ele>3009.06</ele>
        <time>2010-04-13T10:44:58Z</time>
      </trkpt>
      <trkpt lat="46.06815" lon="7.33516">
        <ele>3007.62</ele>
        <time>2010-04-13T10:45:00Z</time>
      </trkpt>
      <trkpt lat="46.06815" lon="7.33515">
        <ele>3007.62</ele>
        <time>2010-04-13T10:46:08Z</time>
      </trkpt>
      <trkpt lat="46.06815" lon="7.33515">
        <ele>3010.99</ele>
        <time>2010-04-13T10:46:10Z</time>
      </trkpt>
      <trkpt lat="46.06815" lon="7.33515">
        <ele>3007.62</ele>
        <time>2010-04-13T10:46:12Z</time>
      </trkpt>
      <trkpt lat="46.06815" lon="7.33515">
        <ele>3004.74</ele>
        <time>2010-04-13T10:46:15Z</time>
      </trkpt>
      <trkpt lat="46.06815" lon="7.33515">
        <ele>3009.06</ele>
        <time>2010-04-13T10:46:16Z</time>
      </trkpt>
      <trkpt lat="46.06815" lon="7.33514">
        <ele>3006.66</ele>
        <time>2010-04-13T10:46:17Z</time>
      </trkpt>
      <trkpt lat="46.06815" lon="7.33514">
        <ele>3007.14</ele>
        <time>2010-04-13T10:46:25Z</time>
      </trkpt>
      <trkpt lat="46.06818" lon="7.33512">
        <ele>3006.66</ele>
        <time>2010-04-13T10:46:39Z</time>
      </trkpt>
      <trkpt lat="46.06818" lon="7.33513">
        <ele>3006.66</ele>
        <time>2010-04-13T10:47:21Z</time>
      </trkpt>
      <trkpt lat="46.06818" lon="7.33513">
        <ele>3070.11</ele>
        <time>2010-04-13T10:47:22Z</time>
      </trkpt>
      <trkpt lat="46.06818" lon="7.33513">
        <ele>3065.3</ele>
        <time>2010-04-13T10:47:26Z</time>
      </trkpt>
      <trkpt lat="46.06818" lon="7.33513">
        <ele>3060.98</ele>
        <time>2010-04-13T10:47:28Z</time>
      </trkpt>
      <trkpt lat="46.06818" lon="7.33513">
        <ele>3057.13</ele>
        <time>2010-04-13T10:47:30Z</time>
      </trkpt>
      <trkpt lat="46.06818" lon="7.33513">
        <ele>3053.77</ele>
        <time>2010-04-13T10:47:32Z</time>
      </trkpt>
      <trkpt lat="46.06818" lon="7.33513">
        <ele>3050.88</ele>
        <time>2010-04-13T10:47:34Z</time>
      </trkpt>
      <trkpt lat="46.06818" lon="7.33513">
        <ele>3047.52</ele>
        <time>2010-04-13T10:47:36Z</time>
      </trkpt>
      <trkpt lat="46.06818" lon="7.33513">
        <ele>3044.15</ele>
        <time>2010-04-13T10:47:37Z</time>
      </trkpt>
      <trkpt lat="46.06818" lon="7.33513">
        <ele>3045.59</ele>
        <time>2010-04-13T10:47:38Z</time>
      </trkpt>
      <trkpt lat="46.06818" lon="7.33513">
        <ele>3041.75</ele>
        <time>2010-04-13T10:47:41Z</time>
      </trkpt>
      <trkpt lat="46.06818" lon="7.33513">
        <ele>3038.86</ele>
        <time>2010-04-13T10:47:43Z</time>
      </trkpt>
      <trkpt lat="46.06818" lon="7.33513">
        <ele>3035.5</ele>
        <time>2010-04-13T10:47:45Z</time>
      </trkpt>
      <trkpt lat="46.06818" lon="7.33513">
        <ele>3035.02</ele>
        <time>2010-04-13T10:47:46Z</time>
      </trkpt>
      <trkpt lat="46.06818" lon="7.33513">
        <ele>3029.25</ele>
        <time>2010-04-13T10:47:48Z</time>
      </trkpt>
      <trkpt lat="46.06818" lon="7.33513">
        <ele>3030.69</ele>
        <time>2010-04-13T10:47:49Z</time>
      </trkpt>
      <trkpt lat="46.06818" lon="7.33513">
        <ele>3021.56</ele>
        <time>2010-04-13T10:47:50Z</time>
      </trkpt>
      <trkpt lat="46.06818" lon="7.33513">
        <ele>3031.17</ele>
        <time>2010-04-13T10:47:51Z</time>
      </trkpt>
      <trkpt lat="46.06818" lon="7.33513">
        <ele>3026.37</ele>
        <time>2010-04-13T10:47:52Z</time>
      </trkpt>
      <trkpt lat="46.06818" lon="7.33513">
        <ele>3024.93</ele>
        <time>2010-04-13T10:48:00Z</time>
      </trkpt>
      <trkpt lat="46.06818" lon="7.33513">
        <ele>3022.04</ele>
        <time>2010-04-13T10:48:03Z</time>
      </trkpt>
      <trkpt lat="46.06818" lon="7.33513">
        <ele>3019.16</ele>
        <time>2010-04-13T10:48:09Z</time>
      </trkpt>
      <trkpt lat="46.06818" lon="7.33513">
        <ele>3014.83</ele>
        <time>2010-04-13T10:48:14Z</time>
      </trkpt>
      <trkpt lat="46.06818" lon="7.33513">
        <ele>3011.47</ele>
        <time>2010-04-13T10:48:29Z</time>
      </trkpt>
      <trkpt lat="46.06818" lon="7.33513">
        <ele>3008.58</ele>
        <time>2010-04-13T10:48:40Z</time>
      </trkpt>
      <trkpt lat="46.06818" lon="7.33513">
        <ele>3007.14</ele>
        <time>2010-04-13T10:48:54Z</time>
      </trkpt>
      <trkpt lat="46.06818" lon="7.33513">
        <ele>3065.78</ele>
        <time>2010-04-13T10:48:55Z</time>
      </trkpt>
      <trkpt lat="46.06818" lon="7.33513">
        <ele>3071.07</ele>
        <time>2010-04-13T10:48:56Z</time>
      </trkpt>
      <trkpt lat="46.06818" lon="7.33513">
        <ele>3074.91</ele>
        <time>2010-04-13T10:49:12Z</time>
      </trkpt>
      <trkpt lat="46.06818" lon="7.33513">
        <ele>3071.55</ele>
        <time>2010-04-13T10:49:13Z</time>
      </trkpt>
      <trkpt lat="46.06818" lon="7.33513">
        <ele>3070.59</ele>
        <time>2010-04-13T10:49:15Z</time>
      </trkpt>
      <trkpt lat="46.06818" lon="7.33513">
        <ele>3067.22</ele>
        <time>2010-04-13T10:49:20Z</time>
      </trkpt>
      <trkpt lat="46.06818" lon="7.33513">
        <ele>3070.59</ele>
        <time>2010-04-13T10:49:22Z</time>
      </trkpt>
      <trkpt lat="46.06818" lon="7.33513">
        <ele>3065.3</ele>
        <time>2010-04-13T10:49:24Z</time>
      </trkpt>
      <trkpt lat="46.06818" lon="7.33513">
        <ele>3070.11</ele>
        <time>2010-04-13T10:49:25Z</time>
      </trkpt>
      <trkpt lat="46.06818" lon="7.33513">
        <ele>3065.78</ele>
        <time>2010-04-13T10:49:26Z</time>
      </trkpt>
      <trkpt lat="46.06818" lon="7.33513">
        <ele>3070.11</ele>
        <time>2010-04-13T10:49:27Z</time>
      </trkpt>
      <trkpt lat="46.06818" lon="7.33512">
        <ele>3069.63</ele>
        <time>2010-04-13T10:49:43Z</time>
      </trkpt>
      <trkpt lat="46.06818" lon="7.33512">
        <ele>3072.51</ele>
        <time>2010-04-13T10:50:02Z</time>
      </trkpt>
      <trkpt lat="46.06818" lon="7.33512">
        <ele>3071.07</ele>
        <time>2010-04-13T10:50:03Z</time>
      </trkpt>
      <trkpt lat="46.06818" lon="7.33512">
        <ele>3068.67</ele>
        <time>2010-04-13T10:50:06Z</time>
      </trkpt>
      <trkpt lat="46.06818" lon="7.33512">
        <ele>3064.82</ele>
        <time>2010-04-13T10:50:27Z</time>
      </trkpt>
      <trkpt lat="46.06818" lon="7.33512">
        <ele>3069.63</ele>
        <time>2010-04-13T10:50:29Z</time>
      </trkpt>
      <trkpt lat="46.06818" lon="7.33512">
        <ele>3068.67</ele>
        <time>2010-04-13T10:50:30Z</time>
      </trkpt>
      <trkpt lat="46.06818" lon="7.33512">
        <ele>3063.38</ele>
        <time>2010-04-13T10:50:31Z</time>
      </trkpt>
      <trkpt lat="46.06818" lon="7.33512">
        <ele>3065.3</ele>
        <time>2010-04-13T10:50:32Z</time>
      </trkpt>
      <trkpt lat="46.06818" lon="7.33512">
        <ele>3069.63</ele>
        <time>2010-04-13T10:50:35Z</time>
      </trkpt>
      <trkpt lat="46.06818" lon="7.33512">
        <ele>3069.15</ele>
        <time>2010-04-13T10:50:36Z</time>
      </trkpt>
      <trkpt lat="46.06818" lon="7.33512">
        <ele>3066.26</ele>
        <time>2010-04-13T10:50:52Z</time>
      </trkpt>
      <trkpt lat="46.06818" lon="7.33511">
        <ele>3062.9</ele>
        <time>2010-04-13T10:52:00Z</time>
      </trkpt>
      <trkpt lat="46.06818" lon="7.33511">
        <ele>3061.94</ele>
        <time>2010-04-13T10:53:20Z</time>
      </trkpt>
      <trkpt lat="46.06818" lon="7.3351">
        <ele>3060.98</ele>
        <time>2010-04-13T10:53:41Z</time>
      </trkpt>
      <trkpt lat="46.06817" lon="7.33511">
        <ele>3060.98</ele>
        <time>2010-04-13T10:54:03Z</time>
      </trkpt>
      <trkpt lat="46.06816" lon="7.33511">
        <ele>3060.01</ele>
        <time>2010-04-13T10:54:17Z</time>
      </trkpt>
      <trkpt lat="46.06814" lon="7.33515">
        <ele>3059.05</ele>
        <time>2010-04-13T10:54:28Z</time>
      </trkpt>
      <trkpt lat="46.06814" lon="7.33516">
        <ele>3053.77</ele>
        <time>2010-04-13T10:54:38Z</time>
      </trkpt>
      <trkpt lat="46.06814" lon="7.33516">
        <ele>3057.61</ele>
        <time>2010-04-13T10:54:39Z</time>
      </trkpt>
      <trkpt lat="46.06814" lon="7.33516">
        <ele>3058.57</ele>
        <time>2010-04-13T10:55:09Z</time>
      </trkpt>
      <trkpt lat="46.06814" lon="7.33516">
        <ele>3055.69</ele>
        <time>2010-04-13T10:56:18Z</time>
      </trkpt>
      <trkpt lat="46.06813" lon="7.33516">
        <ele>3052.32</ele>
        <time>2010-04-13T10:56:58Z</time>
      </trkpt>
      <trkpt lat="46.06813" lon="7.33516">
        <ele>3045.59</ele>
        <time>2010-04-13T10:57:02Z</time>
      </trkpt>
      <trkpt lat="46.06813" lon="7.33516">
        <ele>3050.88</ele>
        <time>2010-04-13T10:57:03Z</time>
      </trkpt>
      <trkpt lat="46.06813" lon="7.33516">
        <ele>3053.77</ele>
        <time>2010-04-13T10:57:04Z</time>
      </trkpt>
      <trkpt lat="46.06813" lon="7.33516">
        <ele>3053.77</ele>
        <time>2010-04-13T10:57:05Z</time>
      </trkpt>
      <trkpt lat="46.06813" lon="7.33516">
        <ele>3062.42</ele>
        <time>2010-04-13T10:57:20Z</time>
      </trkpt>
      <trkpt lat="46.06813" lon="7.33516">
        <ele>3056.17</ele>
        <time>2010-04-13T10:57:21Z</time>
      </trkpt>
      <trkpt lat="46.06813" lon="7.33516">
        <ele>3047.52</ele>
        <time>2010-04-13T10:57:22Z</time>
      </trkpt>
      <trkpt lat="46.06813" lon="7.33516">
        <ele>3048.96</ele>
        <time>2010-04-13T10:57:23Z</time>
      </trkpt>
      <trkpt lat="46.06813" lon="7.33516">
        <ele>3059.05</ele>
        <time>2010-04-13T10:57:24Z</time>
      </trkpt>
      <trkpt lat="46.06813" lon="7.33516">
        <ele>3049.92</ele>
        <time>2010-04-13T10:57:25Z</time>
      </trkpt>
      <trkpt lat="46.06813" lon="7.33516">
        <ele>3053.77</ele>
        <time>2010-04-13T10:57:27Z</time>
      </trkpt>
      <trkpt lat="46.06813" lon="7.33516">
        <ele>3053.77</ele>
        <time>2010-04-13T10:57:28Z</time>
      </trkpt>
      <trkpt lat="46.06813" lon="7.33516">
        <ele>3059.05</ele>
        <time>2010-04-13T10:57:29Z</time>
      </trkpt>
      <trkpt lat="46.06813" lon="7.33516">
        <ele>3057.13</ele>
        <time>2010-04-13T10:57:30Z</time>
      </trkpt>
      <trkpt lat="46.06813" lon="7.33516">
        <ele>3054.25</ele>
        <time>2010-04-13T10:57:32Z</time>
      </trkpt>
      <trkpt lat="46.06813" lon="7.33516">
        <ele>3041.75</ele>
        <time>2010-04-13T10:57:35Z</time>
      </trkpt>
      <trkpt lat="46.06813" lon="7.33516">
        <ele>3048.48</ele>
        <time>2010-04-13T10:57:36Z</time>
      </trkpt>
      <trkpt lat="46.06813" lon="7.33516">
        <ele>3052.8</ele>
        <time>2010-04-13T10:57:37Z</time>
      </trkpt>
      <trkpt lat="46.06813" lon="7.33516">
        <ele>3052.8</ele>
        <time>2010-04-13T10:57:38Z</time>
      </trkpt>
      <trkpt lat="46.06813" lon="7.33516">
        <ele>3058.57</ele>
        <time>2010-04-13T10:57:39Z</time>
      </trkpt>
      <trkpt lat="46.06813" lon="7.33516">
        <ele>3057.61</ele>
        <time>2010-04-13T10:57:40Z</time>
      </trkpt>
      <trkpt lat="46.06813" lon="7.33516">
        <ele>3054.25</ele>
        <time>2010-04-13T10:57:41Z</time>
      </trkpt>
      <trkpt lat="46.06813" lon="7.33516">
        <ele>3054.25</ele>
        <time>2010-04-13T10:57:42Z</time>
      </trkpt>
      <trkpt lat="46.06813" lon="7.33516">
        <ele>3050.4</ele>
        <time>2010-04-13T10:57:48Z</time>
      </trkpt>
      <trkpt lat="46.06813" lon="7.33516">
        <ele>3053.77</ele>
        <time>2010-04-13T10:57:50Z</time>
      </trkpt>
      <trkpt lat="46.06814" lon="7.33516">
        <ele>3050.88</ele>
        <time>2010-04-13T10:58:57Z</time>
      </trkpt>
      <trkpt lat="46.06815" lon="7.33515">
        <ele>3047.52</ele>
        <time>2010-04-13T11:00:46Z</time>
      </trkpt>
      <trkpt lat="46.06815" lon="7.33515">
        <ele>3044.15</ele>
        <time>2010-04-13T11:02:44Z</time>
      </trkpt>
      <trkpt lat="46.06815" lon="7.33515">
        <ele>3041.27</ele>
        <time>2010-04-13T11:05:37Z</time>
      </trkpt>
      <trkpt lat="46.06814" lon="7.33515">
        <ele>3037.42</ele>
        <time>2010-04-13T11:07:32Z</time>
      </trkpt>
      <trkpt lat="46.06814" lon="7.33515">
        <ele>3038.86</ele>
        <time>2010-04-13T11:08:20Z</time>
      </trkpt>
      <trkpt lat="46.06813" lon="7.33515">
        <ele>3035.02</ele>
        <time>2010-04-13T11:10:12Z</time>
      </trkpt>
      <trkpt lat="46.06813" lon="7.33517">
        <ele>3034.06</ele>
        <time>2010-04-13T11:11:54Z</time>
      </trkpt>
      <trkpt lat="46.06814" lon="7.33517">
        <ele>3035.02</ele>
        <time>2010-04-13T11:12:07Z</time>
      </trkpt>
      <trkpt lat="46.06814" lon="7.33517">
        <ele>3032.14</ele>
        <time>2010-04-13T11:12:25Z</time>
      </trkpt>
      <trkpt lat="46.06813" lon="7.33516">
        <ele>3033.58</ele>
        <time>2010-04-13T11:12:28Z</time>
      </trkpt>
      <trkpt lat="46.06813" lon="7.33516">
        <ele>3033.1</ele>
        <time>2010-04-13T11:12:55Z</time>
      </trkpt>
      <trkpt lat="46.06813" lon="7.33516">
        <ele>3033.58</ele>
        <time>2010-04-13T11:14:29Z</time>
      </trkpt>
      <trkpt lat="46.06813" lon="7.33516">
        <ele>3031.66</ele>
        <time>2010-04-13T11:14:31Z</time>
      </trkpt>
      <trkpt lat="46.06813" lon="7.33516">
        <ele>3022.52</ele>
        <time>2010-04-13T11:14:59Z</time>
      </trkpt>
      <trkpt lat="46.06813" lon="7.33516">
        <ele>3029.73</ele>
        <time>2010-04-13T11:15:00Z</time>
      </trkpt>
      <trkpt lat="46.06813" lon="7.33513">
        <ele>3030.21</ele>
        <time>2010-04-13T11:15:18Z</time>
      </trkpt>
      <trkpt lat="46.06813" lon="7.33513">
        <ele>3030.21</ele>
        <time>2010-04-13T11:15:37Z</time>
      </trkpt>
      <trkpt lat="46.06813" lon="7.33513">
        <ele>3030.69</ele>
        <time>2010-04-13T11:15:55Z</time>
      </trkpt>
      <trkpt lat="46.06813" lon="7.33514">
        <ele>3031.66</ele>
        <time>2010-04-13T11:17:00Z</time>
      </trkpt>
      <trkpt lat="46.06812" lon="7.33514">
        <ele>3029.25</ele>
        <time>2010-04-13T11:17:27Z</time>
      </trkpt>
      <trkpt lat="46.06813" lon="7.33513">
        <ele>3029.25</ele>
        <time>2010-04-13T11:19:30Z</time>
      </trkpt>
      <trkpt lat="46.06811" lon="7.33515">
        <ele>3028.77</ele>
        <time>2010-04-13T11:19:53Z</time>
      </trkpt>
      <trkpt lat="46.06808" lon="7.33521">
        <ele>3029.25</ele>
        <time>2010-04-13T11:19:58Z</time>
      </trkpt>
      <trkpt lat="46.06802" lon="7.33529">
        <ele>3030.21</ele>
        <time>2010-04-13T11:20:13Z</time>
      </trkpt>
      <trkpt lat="46.06803" lon="7.33532">
        <ele>3029.73</ele>
        <time>2010-04-13T11:20:30Z</time>
      </trkpt>
      <trkpt lat="46.06803" lon="7.33533">
        <ele>3028.77</ele>
        <time>2010-04-13T11:21:13Z</time>
      </trkpt>
      <trkpt lat="46.06803" lon="7.33533">
        <ele>3028.77</ele>
        <time>2010-04-13T11:21:21Z</time>
      </trkpt>
      <trkpt lat="46.06798" lon="7.33533">
        <ele>3027.33</ele>
        <time>2010-04-13T11:21:23Z</time>
      </trkpt>
      <trkpt lat="46.06782" lon="7.33535">
        <ele>3025.41</ele>
        <time>2010-04-13T11:21:33Z</time>
      </trkpt>
      <trkpt lat="46.06778" lon="7.33539">
        <ele>3025.41</ele>
        <time>2010-04-13T11:21:45Z</time>
      </trkpt>
      <trkpt lat="46.06767" lon="7.33551">
        <ele>3027.33</ele>
        <time>2010-04-13T11:21:58Z</time>
      </trkpt>
      <trkpt lat="46.06759" lon="7.33557">
        <ele>3028.29</ele>
        <time>2010-04-13T11:22:09Z</time>
      </trkpt>
      <trkpt lat="46.06758" lon="7.33558">
        <ele>3026.37</ele>
        <time>2010-04-13T11:22:52Z</time>
      </trkpt>
      <trkpt lat="46.06757" lon="7.33561">
        <ele>3026.37</ele>
        <time>2010-04-13T11:22:55Z</time>
      </trkpt>
      <trkpt lat="46.06752" lon="7.33567">
        <ele>3025.89</ele>
        <time>2010-04-13T11:23:02Z</time>
      </trkpt>
      <trkpt lat="46.06745" lon="7.33578">
        <ele>3025.89</ele>
        <time>2010-04-13T11:23:11Z</time>
      </trkpt>
      <trkpt lat="46.06736" lon="7.33592">
        <ele>3025.41</ele>
        <time>2010-04-13T11:23:24Z</time>
      </trkpt>
      <trkpt lat="46.0673" lon="7.33598">
        <ele>3026.37</ele>
        <time>2010-04-13T11:23:30Z</time>
      </trkpt>
      <trkpt lat="46.06726" lon="7.33605">
        <ele>3027.33</ele>
        <time>2010-04-13T11:23:36Z</time>
      </trkpt>
      <trkpt lat="46.0672" lon="7.33613">
        <ele>3026.85</ele>
        <time>2010-04-13T11:23:44Z</time>
      </trkpt>
      <trkpt lat="46.06708" lon="7.33629">
        <ele>3028.29</ele>
        <time>2010-04-13T11:24:00Z</time>
      </trkpt>
      <trkpt lat="46.06705" lon="7.33633">
        <ele>3028.77</ele>
        <time>2010-04-13T11:24:04Z</time>
      </trkpt>
      <trkpt lat="46.067" lon="7.33643">
        <ele>3027.81</ele>
        <time>2010-04-13T11:24:12Z</time>
      </trkpt>
      <trkpt lat="46.06692" lon="7.3366">
        <ele>3027.81</ele>
        <time>2010-04-13T11:24:25Z</time>
      </trkpt>
      <trkpt lat="46.06686" lon="7.33684">
        <ele>3027.81</ele>
        <time>2010-04-13T11:24:40Z</time>
      </trkpt>
      <trkpt lat="46.06685" lon="7.33707">
        <ele>3028.77</ele>
        <time>2010-04-13T11:24:54Z</time>
      </trkpt>
      <trkpt lat="46.06685" lon="7.33713">
        <ele>3029.25</ele>
        <time>2010-04-13T11:24:58Z</time>
      </trkpt>
      <trkpt lat="46.06682" lon="7.33735">
        <ele>3029.73</ele>
        <time>2010-04-13T11:25:14Z</time>
      </trkpt>
      <trkpt lat="46.0668" lon="7.33746">
        <ele>3029.73</ele>
        <time>2010-04-13T11:25:21Z</time>
      </trkpt>
      <trkpt lat="46.06684" lon="7.33761">
        <ele>3030.69</ele>
        <time>2010-04-13T11:25:29Z</time>
      </trkpt>
      <trkpt lat="46.06684" lon="7.3377">
        <ele>3030.21</ele>
        <time>2010-04-13T11:25:34Z</time>
      </trkpt>
      <trkpt lat="46.06681" lon="7.33781">
        <ele>3030.21</ele>
        <time>2010-04-13T11:25:41Z</time>
      </trkpt>
      <trkpt lat="46.06683" lon="7.33805">
        <ele>3029.25</ele>
        <time>2010-04-13T11:25:53Z</time>
      </trkpt>
      <trkpt lat="46.06681" lon="7.33831">
        <ele>3029.73</ele>
        <time>2010-04-13T11:26:07Z</time>
      </trkpt>
      <trkpt lat="46.06678" lon="7.33858">
        <ele>3029.73</ele>
        <time>2010-04-13T11:26:23Z</time>
      </trkpt>
      <trkpt lat="46.06671" lon="7.3388">
        <ele>3028.29</ele>
        <time>2010-04-13T11:26:36Z</time>
      </trkpt>
      <trkpt lat="46.06669" lon="7.33889">
        <ele>3027.81</ele>
        <time>2010-04-13T11:26:41Z</time>
      </trkpt>
      <trkpt lat="46.06666" lon="7.33898">
        <ele>3027.33</ele>
        <time>2010-04-13T11:26:46Z</time>
      </trkpt>
      <trkpt lat="46.06663" lon="7.33917">
        <ele>3027.33</ele>
        <time>2010-04-13T11:26:58Z</time>
      </trkpt>
      <trkpt lat="46.06663" lon="7.33918">
        <ele>3027.33</ele>
        <time>2010-04-13T11:26:59Z</time>
      </trkpt>
      <trkpt lat="46.06659" lon="7.3394">
        <ele>3026.85</ele>
        <time>2010-04-13T11:27:13Z</time>
      </trkpt>
      <trkpt lat="46.06652" lon="7.33959">
        <ele>3026.85</ele>
        <time>2010-04-13T11:27:27Z</time>
      </trkpt>
      <trkpt lat="46.06647" lon="7.33977">
        <ele>3025.89</ele>
        <time>2010-04-13T11:27:40Z</time>
      </trkpt>
      <trkpt lat="46.06644" lon="7.33986">
        <ele>3025.89</ele>
        <time>2010-04-13T11:27:46Z</time>
      </trkpt>
      <trkpt lat="46.06639" lon="7.33999">
        <ele>3025.89</ele>
        <time>2010-04-13T11:27:58Z</time>
      </trkpt>
      <trkpt lat="46.06634" lon="7.34006">
        <ele>3025.41</ele>
        <time>2010-04-13T11:28:03Z</time>
      </trkpt>
      <trkpt lat="46.06628" lon="7.3402">
        <ele>3023.96</ele>
        <time>2010-04-13T11:28:16Z</time>
      </trkpt>
      <trkpt lat="46.06625" lon="7.34025">
        <ele>3024.44</ele>
        <time>2010-04-13T11:28:36Z</time>
      </trkpt>
      <trkpt lat="46.06622" lon="7.34033">
        <ele>3023</ele>
        <time>2010-04-13T11:28:45Z</time>
      </trkpt>
      <trkpt lat="46.06617" lon="7.34044">
        <ele>3022.04</ele>
        <time>2010-04-13T11:28:58Z</time>
      </trkpt>
      <trkpt lat="46.06612" lon="7.34056">
        <ele>3021.08</ele>
        <time>2010-04-13T11:29:13Z</time>
      </trkpt>
      <trkpt lat="46.06605" lon="7.34072">
        <ele>3020.12</ele>
        <time>2010-04-13T11:29:23Z</time>
      </trkpt>
      <trkpt lat="46.066" lon="7.34092">
        <ele>3019.64</ele>
        <time>2010-04-13T11:29:35Z</time>
      </trkpt>
      <trkpt lat="46.06594" lon="7.34113">
        <ele>3020.6</ele>
        <time>2010-04-13T11:29:48Z</time>
      </trkpt>
      <trkpt lat="46.06585" lon="7.34136">
        <ele>3021.08</ele>
        <time>2010-04-13T11:30:02Z</time>
      </trkpt>
      <trkpt lat="46.0657" lon="7.34152">
        <ele>3018.68</ele>
        <time>2010-04-13T11:30:10Z</time>
      </trkpt>
      <trkpt lat="46.06556" lon="7.34165">
        <ele>3015.79</ele>
        <time>2010-04-13T11:30:16Z</time>
      </trkpt>
      <trkpt lat="46.0654" lon="7.34184">
        <ele>3012.43</ele>
        <time>2010-04-13T11:30:23Z</time>
      </trkpt>
      <trkpt lat="46.06538" lon="7.34187">
        <ele>3012.43</ele>
        <time>2010-04-13T11:30:24Z</time>
      </trkpt>
      <trkpt lat="46.0653" lon="7.34195">
        <ele>3012.43</ele>
        <time>2010-04-13T11:30:32Z</time>
      </trkpt>
      <trkpt lat="46.06518" lon="7.34203">
        <ele>3013.39</ele>
        <time>2010-04-13T11:30:45Z</time>
      </trkpt>
      <trkpt lat="46.06517" lon="7.34203">
        <ele>3013.39</ele>
        <time>2010-04-13T11:30:46Z</time>
      </trkpt>
      <trkpt lat="46.06503" lon="7.34208">
        <ele>3015.31</ele>
        <time>2010-04-13T11:31:01Z</time>
      </trkpt>
      <trkpt lat="46.06498" lon="7.34209">
        <ele>3015.79</ele>
        <time>2010-04-13T11:31:06Z</time>
      </trkpt>
      <trkpt lat="46.06488" lon="7.34213">
        <ele>3018.2</ele>
        <time>2010-04-13T11:31:20Z</time>
      </trkpt>
      <trkpt lat="46.06477" lon="7.34217">
        <ele>3020.6</ele>
        <time>2010-04-13T11:31:34Z</time>
      </trkpt>
      <trkpt lat="46.06466" lon="7.34222">
        <ele>3021.56</ele>
        <time>2010-04-13T11:31:48Z</time>
      </trkpt>
      <trkpt lat="46.06462" lon="7.34223">
        <ele>3021.08</ele>
        <time>2010-04-13T11:32:08Z</time>
      </trkpt>
      <trkpt lat="46.06461" lon="7.34223">
        <ele>3021.56</ele>
        <time>2010-04-13T11:32:48Z</time>
      </trkpt>
      <trkpt lat="46.06453" lon="7.34225">
        <ele>3021.08</ele>
        <time>2010-04-13T11:34:03Z</time>
      </trkpt>
      <trkpt lat="46.06441" lon="7.34225">
        <ele>3023.48</ele>
        <time>2010-04-13T11:34:17Z</time>
      </trkpt>
      <trkpt lat="46.06433" lon="7.34231">
        <ele>3024.93</ele>
        <time>2010-04-13T11:34:29Z</time>
      </trkpt>
      <trkpt lat="46.06431" lon="7.34234">
        <ele>3025.89</ele>
        <time>2010-04-13T11:34:33Z</time>
      </trkpt>
      <trkpt lat="46.06425" lon="7.34244">
        <ele>3027.33</ele>
        <time>2010-04-13T11:34:45Z</time>
      </trkpt>
      <trkpt lat="46.06421" lon="7.34258">
        <ele>3027.33</ele>
        <time>2010-04-13T11:34:58Z</time>
      </trkpt>
      <trkpt lat="46.06417" lon="7.34276">
        <ele>3028.29</ele>
        <time>2010-04-13T11:35:13Z</time>
      </trkpt>
      <trkpt lat="46.06417" lon="7.34278">
        <ele>3028.77</ele>
        <time>2010-04-13T11:35:43Z</time>
      </trkpt>
      <trkpt lat="46.06416" lon="7.34287">
        <ele>3028.77</ele>
        <time>2010-04-13T11:35:55Z</time>
      </trkpt>
      <trkpt lat="46.06414" lon="7.34296">
        <ele>3028.29</ele>
        <time>2010-04-13T11:36:03Z</time>
      </trkpt>
      <trkpt lat="46.06411" lon="7.34304">
        <ele>3029.73</ele>
        <time>2010-04-13T11:36:10Z</time>
      </trkpt>
      <trkpt lat="46.0641" lon="7.34314">
        <ele>3029.73</ele>
        <time>2010-04-13T11:36:21Z</time>
      </trkpt>
      <trkpt lat="46.0641" lon="7.34321">
        <ele>3030.69</ele>
        <time>2010-04-13T11:36:37Z</time>
      </trkpt>
      <trkpt lat="46.06409" lon="7.34326">
        <ele>3031.66</ele>
        <time>2010-04-13T11:36:50Z</time>
      </trkpt>
      <trkpt lat="46.06407" lon="7.34338">
        <ele>3032.14</ele>
        <time>2010-04-13T11:37:03Z</time>
      </trkpt>
      <trkpt lat="46.06403" lon="7.34349">
        <ele>3035.02</ele>
        <time>2010-04-13T11:37:16Z</time>
      </trkpt>
      <trkpt lat="46.06404" lon="7.34359">
        <ele>3036.46</ele>
        <time>2010-04-13T11:37:28Z</time>
      </trkpt>
      <trkpt lat="46.06402" lon="7.34363">
        <ele>3037.9</ele>
        <time>2010-04-13T11:37:42Z</time>
      </trkpt>
      <trkpt lat="46.06401" lon="7.34369">
        <ele>3040.31</ele>
        <time>2010-04-13T11:37:51Z</time>
      </trkpt>
      <trkpt lat="46.06399" lon="7.34382">
        <ele>3040.79</ele>
        <time>2010-04-13T11:38:04Z</time>
      </trkpt>
      <trkpt lat="46.06398" lon="7.34392">
        <ele>3041.75</ele>
        <time>2010-04-13T11:38:14Z</time>
      </trkpt>
      <trkpt lat="46.06393" lon="7.34404">
        <ele>3042.23</ele>
        <time>2010-04-13T11:38:27Z</time>
      </trkpt>
      <trkpt lat="46.06391" lon="7.34407">
        <ele>3043.67</ele>
        <time>2010-04-13T11:38:31Z</time>
      </trkpt>
      <trkpt lat="46.06389" lon="7.34409">
        <ele>3043.67</ele>
        <time>2010-04-13T11:38:33Z</time>
      </trkpt>
      <trkpt lat="46.06387" lon="7.34412">
        <ele>3043.67</ele>
        <time>2010-04-13T11:38:37Z</time>
      </trkpt>
      <trkpt lat="46.06383" lon="7.34424">
        <ele>3044.15</ele>
        <time>2010-04-13T11:38:51Z</time>
      </trkpt>
      <trkpt lat="46.06381" lon="7.3443">
        <ele>3045.11</ele>
        <time>2010-04-13T11:38:56Z</time>
      </trkpt>
      <trkpt lat="46.0638" lon="7.34431">
        <ele>3044.15</ele>
        <time>2010-04-13T11:38:58Z</time>
      </trkpt>
      <trkpt lat="46.06377" lon="7.34443">
        <ele>3045.59</ele>
        <time>2010-04-13T11:39:13Z</time>
      </trkpt>
      <trkpt lat="46.0637" lon="7.34458">
        <ele>3047.52</ele>
        <time>2010-04-13T11:39:28Z</time>
      </trkpt>
      <trkpt lat="46.06367" lon="7.34463">
        <ele>3048</ele>
        <time>2010-04-13T11:39:37Z</time>
      </trkpt>
      <trkpt lat="46.06362" lon="7.34472">
        <ele>3048</ele>
        <time>2010-04-13T11:39:45Z</time>
      </trkpt>
      <trkpt lat="46.06359" lon="7.34484">
        <ele>3048.48</ele>
        <time>2010-04-13T11:39:55Z</time>
      </trkpt>
      <trkpt lat="46.06355" lon="7.34501">
        <ele>3048.48</ele>
        <time>2010-04-13T11:40:10Z</time>
      </trkpt>
      <trkpt lat="46.06352" lon="7.34517">
        <ele>3049.44</ele>
        <time>2010-04-13T11:40:25Z</time>
      </trkpt>
      <trkpt lat="46.0635" lon="7.34527">
        <ele>3050.4</ele>
        <time>2010-04-13T11:40:38Z</time>
      </trkpt>
      <trkpt lat="46.06349" lon="7.34541">
        <ele>3050.88</ele>
        <time>2010-04-13T11:40:50Z</time>
      </trkpt>
      <trkpt lat="46.06347" lon="7.3455">
        <ele>3053.77</ele>
        <time>2010-04-13T11:41:05Z</time>
      </trkpt>
      <trkpt lat="46.06345" lon="7.34566">
        <ele>3054.73</ele>
        <time>2010-04-13T11:41:18Z</time>
      </trkpt>
      <trkpt lat="46.06344" lon="7.34581">
        <ele>3053.77</ele>
        <time>2010-04-13T11:41:33Z</time>
      </trkpt>
      <trkpt lat="46.06344" lon="7.34596">
        <ele>3053.77</ele>
        <time>2010-04-13T11:41:46Z</time>
      </trkpt>
      <trkpt lat="46.06343" lon="7.346">
        <ele>3053.77</ele>
        <time>2010-04-13T11:42:01Z</time>
      </trkpt>
      <trkpt lat="46.06343" lon="7.34604">
        <ele>3053.77</ele>
        <time>2010-04-13T11:42:16Z</time>
      </trkpt>
      <trkpt lat="46.06344" lon="7.34611">
        <ele>3054.25</ele>
        <time>2010-04-13T11:42:31Z</time>
      </trkpt>
      <trkpt lat="46.06344" lon="7.34611">
        <ele>3053.77</ele>
        <time>2010-04-13T11:42:40Z</time>
      </trkpt>
      <trkpt lat="46.06344" lon="7.34614">
        <ele>3052.8</ele>
        <time>2010-04-13T11:42:46Z</time>
      </trkpt>
      <trkpt lat="46.06344" lon="7.34613">
        <ele>3050.88</ele>
        <time>2010-04-13T11:42:56Z</time>
      </trkpt>
      <trkpt lat="46.06344" lon="7.34613">
        <ele>3055.21</ele>
        <time>2010-04-13T11:42:57Z</time>
      </trkpt>
      <trkpt lat="46.06344" lon="7.34613">
        <ele>3053.28</ele>
        <time>2010-04-13T11:42:58Z</time>
      </trkpt>
      <trkpt lat="46.06345" lon="7.34614">
        <ele>3053.28</ele>
        <time>2010-04-13T11:43:24Z</time>
      </trkpt>
      <trkpt lat="46.06344" lon="7.34614">
        <ele>3053.28</ele>
        <time>2010-04-13T11:43:33Z</time>
      </trkpt>
      <trkpt lat="46.06345" lon="7.34619">
        <ele>3054.25</ele>
        <time>2010-04-13T11:43:53Z</time>
      </trkpt>
      <trkpt lat="46.06349" lon="7.34635">
        <ele>3056.17</ele>
        <time>2010-04-13T11:44:06Z</time>
      </trkpt>
      <trkpt lat="46.06351" lon="7.34638">
        <ele>3058.09</ele>
        <time>2010-04-13T11:44:09Z</time>
      </trkpt>
      <trkpt lat="46.06355" lon="7.3465">
        <ele>3059.05</ele>
        <time>2010-04-13T11:44:21Z</time>
      </trkpt>
      <trkpt lat="46.06358" lon="7.34664">
        <ele>3061.94</ele>
        <time>2010-04-13T11:44:36Z</time>
      </trkpt>
      <trkpt lat="46.0636" lon="7.34677">
        <ele>3063.38</ele>
        <time>2010-04-13T11:44:49Z</time>
      </trkpt>
      <trkpt lat="46.06361" lon="7.34681">
        <ele>3064.34</ele>
        <time>2010-04-13T11:45:07Z</time>
      </trkpt>
      <trkpt lat="46.0636" lon="7.34681">
        <ele>3063.38</ele>
        <time>2010-04-13T11:45:49Z</time>
      </trkpt>
      <trkpt lat="46.06363" lon="7.34691">
        <ele>3064.82</ele>
        <time>2010-04-13T11:46:08Z</time>
      </trkpt>
      <trkpt lat="46.06365" lon="7.34701">
        <ele>3066.26</ele>
        <time>2010-04-13T11:46:21Z</time>
      </trkpt>
      <trkpt lat="46.06369" lon="7.34711">
        <ele>3069.15</ele>
        <time>2010-04-13T11:46:38Z</time>
      </trkpt>
      <trkpt lat="46.06374" lon="7.34723">
        <ele>3071.07</ele>
        <time>2010-04-13T11:46:54Z</time>
      </trkpt>
      <trkpt lat="46.06376" lon="7.34734">
        <ele>3072.99</ele>
        <time>2010-04-13T11:47:11Z</time>
      </trkpt>
      <trkpt lat="46.0638" lon="7.34744">
        <ele>3074.91</ele>
        <time>2010-04-13T11:47:26Z</time>
      </trkpt>
      <trkpt lat="46.06381" lon="7.34755">
        <ele>3076.84</ele>
        <time>2010-04-13T11:47:50Z</time>
      </trkpt>
      <trkpt lat="46.06385" lon="7.34766">
        <ele>3078.28</ele>
        <time>2010-04-13T11:48:02Z</time>
      </trkpt>
      <trkpt lat="46.06387" lon="7.34771">
        <ele>3078.76</ele>
        <time>2010-04-13T11:48:13Z</time>
      </trkpt>
      <trkpt lat="46.06391" lon="7.34784">
        <ele>3080.68</ele>
        <time>2010-04-13T11:48:30Z</time>
      </trkpt>
      <trkpt lat="46.06392" lon="7.34797">
        <ele>3082.6</ele>
        <time>2010-04-13T11:48:46Z</time>
      </trkpt>
      <trkpt lat="46.06395" lon="7.34806">
        <ele>3085.01</ele>
        <time>2010-04-13T11:49:00Z</time>
      </trkpt>
      <trkpt lat="46.06401" lon="7.34814">
        <ele>3085.49</ele>
        <time>2010-04-13T11:49:14Z</time>
      </trkpt>
      <trkpt lat="46.06402" lon="7.3482">
        <ele>3086.45</ele>
        <time>2010-04-13T11:49:22Z</time>
      </trkpt>
      <trkpt lat="46.06404" lon="7.34833">
        <ele>3087.41</ele>
        <time>2010-04-13T11:49:40Z</time>
      </trkpt>
      <trkpt lat="46.06406" lon="7.34846">
        <ele>3089.81</ele>
        <time>2010-04-13T11:49:54Z</time>
      </trkpt>
      <trkpt lat="46.06408" lon="7.34858">
        <ele>3089.81</ele>
        <time>2010-04-13T11:50:05Z</time>
      </trkpt>
      <trkpt lat="46.06408" lon="7.34864">
        <ele>3091.26</ele>
        <time>2010-04-13T11:50:19Z</time>
      </trkpt>
      <trkpt lat="46.0641" lon="7.34872">
        <ele>3092.7</ele>
        <time>2010-04-13T11:50:37Z</time>
      </trkpt>
      <trkpt lat="46.06412" lon="7.34883">
        <ele>3094.14</ele>
        <time>2010-04-13T11:50:51Z</time>
      </trkpt>
      <trkpt lat="46.06414" lon="7.34898">
        <ele>3095.58</ele>
        <time>2010-04-13T11:51:03Z</time>
      </trkpt>
      <trkpt lat="46.06413" lon="7.34904">
        <ele>3096.54</ele>
        <time>2010-04-13T11:51:10Z</time>
      </trkpt>
      <trkpt lat="46.06416" lon="7.34914">
        <ele>3097.51</ele>
        <time>2010-04-13T11:51:24Z</time>
      </trkpt>
      <trkpt lat="46.06416" lon="7.34919">
        <ele>3098.47</ele>
        <time>2010-04-13T11:51:38Z</time>
      </trkpt>
      <trkpt lat="46.06417" lon="7.34923">
        <ele>3100.39</ele>
        <time>2010-04-13T11:51:50Z</time>
      </trkpt>
      <trkpt lat="46.06418" lon="7.34924">
        <ele>3102.31</ele>
        <time>2010-04-13T11:52:07Z</time>
      </trkpt>
      <trkpt lat="46.06419" lon="7.34929">
        <ele>3104.23</ele>
        <time>2010-04-13T11:52:25Z</time>
      </trkpt>
      <trkpt lat="46.06424" lon="7.34944">
        <ele>3105.68</ele>
        <time>2010-04-13T11:52:38Z</time>
      </trkpt>
      <trkpt lat="46.06429" lon="7.34959">
        <ele>3106.64</ele>
        <time>2010-04-13T11:53:03Z</time>
      </trkpt>
      <trkpt lat="46.06431" lon="7.34966">
        <ele>3108.08</ele>
        <time>2010-04-13T11:53:18Z</time>
      </trkpt>
      <trkpt lat="46.06431" lon="7.34966">
        <ele>3108.56</ele>
        <time>2010-04-13T11:53:20Z</time>
      </trkpt>
      <trkpt lat="46.06435" lon="7.34977">
        <ele>3110</ele>
        <time>2010-04-13T11:53:33Z</time>
      </trkpt>
      <trkpt lat="46.06437" lon="7.34987">
        <ele>3111.92</ele>
        <time>2010-04-13T11:53:46Z</time>
      </trkpt>
      <trkpt lat="46.06439" lon="7.34995">
        <ele>3113.37</ele>
        <time>2010-04-13T11:53:57Z</time>
      </trkpt>
      <trkpt lat="46.06441" lon="7.35005">
        <ele>3115.29</ele>
        <time>2010-04-13T11:54:09Z</time>
      </trkpt>
      <trkpt lat="46.06441" lon="7.35011">
        <ele>3116.73</ele>
        <time>2010-04-13T11:54:22Z</time>
      </trkpt>
      <trkpt lat="46.0644" lon="7.35018">
        <ele>3119.13</ele>
        <time>2010-04-13T11:54:33Z</time>
      </trkpt>
      <trkpt lat="46.0644" lon="7.35027">
        <ele>3119.62</ele>
        <time>2010-04-13T11:54:45Z</time>
      </trkpt>
      <trkpt lat="46.06441" lon="7.35028">
        <ele>3120.1</ele>
        <time>2010-04-13T11:55:05Z</time>
      </trkpt>
      <trkpt lat="46.06442" lon="7.35033">
        <ele>3121.06</ele>
        <time>2010-04-13T11:55:23Z</time>
      </trkpt>
      <trkpt lat="46.06444" lon="7.35047">
        <ele>3122.98</ele>
        <time>2010-04-13T11:55:36Z</time>
      </trkpt>
      <trkpt lat="46.06444" lon="7.35054">
        <ele>3122.98</ele>
        <time>2010-04-13T11:55:41Z</time>
      </trkpt>
      <trkpt lat="46.06443" lon="7.35071">
        <ele>3123.94</ele>
        <time>2010-04-13T11:55:55Z</time>
      </trkpt>
      <trkpt lat="46.06437" lon="7.35089">
        <ele>3125.38</ele>
        <time>2010-04-13T11:56:09Z</time>
      </trkpt>
      <trkpt lat="46.06433" lon="7.35094">
        <ele>3125.38</ele>
        <time>2010-04-13T11:56:14Z</time>
      </trkpt>
      <trkpt lat="46.06431" lon="7.35099">
        <ele>3125.86</ele>
        <time>2010-04-13T11:56:19Z</time>
      </trkpt>
      <trkpt lat="46.0643" lon="7.35113">
        <ele>3128.75</ele>
        <time>2010-04-13T11:56:33Z</time>
      </trkpt>
      <trkpt lat="46.0643" lon="7.35128">
        <ele>3130.19</ele>
        <time>2010-04-13T11:56:46Z</time>
      </trkpt>
      <trkpt lat="46.0643" lon="7.35131">
        <ele>3130.67</ele>
        <time>2010-04-13T11:56:50Z</time>
      </trkpt>
      <trkpt lat="46.06432" lon="7.35138">
        <ele>3132.11</ele>
        <time>2010-04-13T11:56:56Z</time>
      </trkpt>
      <trkpt lat="46.06434" lon="7.35147">
        <ele>3133.07</ele>
        <time>2010-04-13T11:57:05Z</time>
      </trkpt>
      <trkpt lat="46.06435" lon="7.35154">
        <ele>3133.55</ele>
        <time>2010-04-13T11:57:13Z</time>
      </trkpt>
      <trkpt lat="46.06438" lon="7.35167">
        <ele>3135.96</ele>
        <time>2010-04-13T11:57:26Z</time>
      </trkpt>
      <trkpt lat="46.06439" lon="7.35178">
        <ele>3137.88</ele>
        <time>2010-04-13T11:57:38Z</time>
      </trkpt>
      <trkpt lat="46.06441" lon="7.35192">
        <ele>3139.8</ele>
        <time>2010-04-13T11:57:52Z</time>
      </trkpt>
      <trkpt lat="46.06442" lon="7.35205">
        <ele>3141.25</ele>
        <time>2010-04-13T11:58:06Z</time>
      </trkpt>
      <trkpt lat="46.06444" lon="7.35219">
        <ele>3142.69</ele>
        <time>2010-04-13T11:58:20Z</time>
      </trkpt>
      <trkpt lat="46.06444" lon="7.35232">
        <ele>3145.09</ele>
        <time>2010-04-13T11:58:34Z</time>
      </trkpt>
      <trkpt lat="46.06444" lon="7.35236">
        <ele>3146.05</ele>
        <time>2010-04-13T11:58:51Z</time>
      </trkpt>
      <trkpt lat="46.06444" lon="7.35251">
        <ele>3147.97</ele>
        <time>2010-04-13T11:59:06Z</time>
      </trkpt>
      <trkpt lat="46.06444" lon="7.35266">
        <ele>3149.42</ele>
        <time>2010-04-13T11:59:21Z</time>
      </trkpt>
      <trkpt lat="46.06443" lon="7.35276">
        <ele>3151.34</ele>
        <time>2010-04-13T11:59:35Z</time>
      </trkpt>
      <trkpt lat="46.06442" lon="7.35285">
        <ele>3152.78</ele>
        <time>2010-04-13T11:59:47Z</time>
      </trkpt>
      <trkpt lat="46.06441" lon="7.35296">
        <ele>3154.7</ele>
        <time>2010-04-13T12:00:01Z</time>
      </trkpt>
      <trkpt lat="46.06441" lon="7.35296">
        <ele>3155.18</ele>
        <time>2010-04-13T12:00:34Z</time>
      </trkpt>
      <trkpt lat="46.06439" lon="7.35308">
        <ele>3156.63</ele>
        <time>2010-04-13T12:00:48Z</time>
      </trkpt>
      <trkpt lat="46.06438" lon="7.35319">
        <ele>3158.07</ele>
        <time>2010-04-13T12:01:02Z</time>
      </trkpt>
      <trkpt lat="46.06433" lon="7.35329">
        <ele>3160.47</ele>
        <time>2010-04-13T12:01:18Z</time>
      </trkpt>
      <trkpt lat="46.06429" lon="7.35337">
        <ele>3161.91</ele>
        <time>2010-04-13T12:01:30Z</time>
      </trkpt>
      <trkpt lat="46.06427" lon="7.35343">
        <ele>3163.36</ele>
        <time>2010-04-13T12:01:42Z</time>
      </trkpt>
      <trkpt lat="46.06425" lon="7.35346">
        <ele>3163.36</ele>
        <time>2010-04-13T12:02:03Z</time>
      </trkpt>
      <trkpt lat="46.06423" lon="7.35356">
        <ele>3164.8</ele>
        <time>2010-04-13T12:02:17Z</time>
      </trkpt>
      <trkpt lat="46.06419" lon="7.35369">
        <ele>3166.24</ele>
        <time>2010-04-13T12:02:32Z</time>
      </trkpt>
      <trkpt lat="46.06415" lon="7.35375">
        <ele>3167.68</ele>
        <time>2010-04-13T12:02:44Z</time>
      </trkpt>
      <trkpt lat="46.06411" lon="7.35384">
        <ele>3169.12</ele>
        <time>2010-04-13T12:02:56Z</time>
      </trkpt>
      <trkpt lat="46.06407" lon="7.35392">
        <ele>3170.57</ele>
        <time>2010-04-13T12:03:09Z</time>
      </trkpt>
      <trkpt lat="46.06406" lon="7.35394">
        <ele>3171.05</ele>
        <time>2010-04-13T12:03:11Z</time>
      </trkpt>
      <trkpt lat="46.06404" lon="7.354">
        <ele>3172.01</ele>
        <time>2010-04-13T12:03:18Z</time>
      </trkpt>
      <trkpt lat="46.06401" lon="7.35405">
        <ele>3172.97</ele>
        <time>2010-04-13T12:03:39Z</time>
      </trkpt>
      <trkpt lat="46.06397" lon="7.35414">
        <ele>3174.41</ele>
        <time>2010-04-13T12:03:51Z</time>
      </trkpt>
      <trkpt lat="46.06391" lon="7.35426">
        <ele>3176.81</ele>
        <time>2010-04-13T12:04:04Z</time>
      </trkpt>
      <trkpt lat="46.06388" lon="7.35436">
        <ele>3177.29</ele>
        <time>2010-04-13T12:04:15Z</time>
      </trkpt>
      <trkpt lat="46.06385" lon="7.35449">
        <ele>3179.22</ele>
        <time>2010-04-13T12:04:29Z</time>
      </trkpt>
      <trkpt lat="46.06382" lon="7.35458">
        <ele>3181.14</ele>
        <time>2010-04-13T12:04:41Z</time>
      </trkpt>
      <trkpt lat="46.0638" lon="7.35467">
        <ele>3181.62</ele>
        <time>2010-04-13T12:04:54Z</time>
      </trkpt>
      <trkpt lat="46.06377" lon="7.35481">
        <ele>3184.02</ele>
        <time>2010-04-13T12:05:10Z</time>
      </trkpt>
      <trkpt lat="46.06373" lon="7.35491">
        <ele>3184.98</ele>
        <time>2010-04-13T12:05:26Z</time>
      </trkpt>
      <trkpt lat="46.06373" lon="7.35491">
        <ele>3184.5</ele>
        <time>2010-04-13T12:05:35Z</time>
      </trkpt>
      <trkpt lat="46.06374" lon="7.35497">
        <ele>3185.95</ele>
        <time>2010-04-13T12:05:48Z</time>
      </trkpt>
      <trkpt lat="46.06373" lon="7.35508">
        <ele>3186.91</ele>
        <time>2010-04-13T12:06:01Z</time>
      </trkpt>
      <trkpt lat="46.06371" lon="7.35521">
        <ele>3188.35</ele>
        <time>2010-04-13T12:06:17Z</time>
      </trkpt>
      <trkpt lat="46.06371" lon="7.35524">
        <ele>3188.35</ele>
        <time>2010-04-13T12:06:34Z</time>
      </trkpt>
      <trkpt lat="46.06372" lon="7.35525">
        <ele>3188.83</ele>
        <time>2010-04-13T12:06:58Z</time>
      </trkpt>
      <trkpt lat="46.06371" lon="7.3554">
        <ele>3190.27</ele>
        <time>2010-04-13T12:07:13Z</time>
      </trkpt>
      <trkpt lat="46.06371" lon="7.35553">
        <ele>3190.75</ele>
        <time>2010-04-13T12:07:27Z</time>
      </trkpt>
      <trkpt lat="46.06369" lon="7.35562">
        <ele>3192.68</ele>
        <time>2010-04-13T12:07:42Z</time>
      </trkpt>
      <trkpt lat="46.06369" lon="7.35562">
        <ele>3192.2</ele>
        <time>2010-04-13T12:08:28Z</time>
      </trkpt>
      <trkpt lat="46.06367" lon="7.35571">
        <ele>3193.16</ele>
        <time>2010-04-13T12:08:57Z</time>
      </trkpt>
      <trkpt lat="46.06367" lon="7.35587">
        <ele>3195.08</ele>
        <time>2010-04-13T12:09:12Z</time>
      </trkpt>
      <trkpt lat="46.06366" lon="7.356">
        <ele>3196.52</ele>
        <time>2010-04-13T12:09:25Z</time>
      </trkpt>
      <trkpt lat="46.06366" lon="7.356">
        <ele>3197.48</ele>
        <time>2010-04-13T12:09:41Z</time>
      </trkpt>
      <trkpt lat="46.06368" lon="7.35614">
        <ele>3198.92</ele>
        <time>2010-04-13T12:09:54Z</time>
      </trkpt>
      <trkpt lat="46.06368" lon="7.3563">
        <ele>3200.37</ele>
        <time>2010-04-13T12:10:07Z</time>
      </trkpt>
      <trkpt lat="46.0637" lon="7.35647">
        <ele>3202.77</ele>
        <time>2010-04-13T12:10:21Z</time>
      </trkpt>
      <trkpt lat="46.06369" lon="7.3565">
        <ele>3204.21</ele>
        <time>2010-04-13T12:11:19Z</time>
      </trkpt>
      <trkpt lat="46.06369" lon="7.35664">
        <ele>3204.69</ele>
        <time>2010-04-13T12:11:32Z</time>
      </trkpt>
      <trkpt lat="46.0637" lon="7.35679">
        <ele>3206.13</ele>
        <time>2010-04-13T12:11:45Z</time>
      </trkpt>
      <trkpt lat="46.06371" lon="7.35694">
        <ele>3208.06</ele>
        <time>2010-04-13T12:11:58Z</time>
      </trkpt>
      <trkpt lat="46.06372" lon="7.35707">
        <ele>3209.5</ele>
        <time>2010-04-13T12:12:11Z</time>
      </trkpt>
      <trkpt lat="46.06373" lon="7.35721">
        <ele>3209.98</ele>
        <time>2010-04-13T12:12:24Z</time>
      </trkpt>
      <trkpt lat="46.06374" lon="7.35735">
        <ele>3211.9</ele>
        <time>2010-04-13T12:12:38Z</time>
      </trkpt>
      <trkpt lat="46.06372" lon="7.35744">
        <ele>3213.34</ele>
        <time>2010-04-13T12:12:53Z</time>
      </trkpt>
      <trkpt lat="46.06371" lon="7.35751">
        <ele>3212.38</ele>
        <time>2010-04-13T12:13:08Z</time>
      </trkpt>
      <trkpt lat="46.0637" lon="7.35752">
        <ele>3214.31</ele>
        <time>2010-04-13T12:13:20Z</time>
      </trkpt>
      <trkpt lat="46.06368" lon="7.35749">
        <ele>3214.31</ele>
        <time>2010-04-13T12:13:54Z</time>
      </trkpt>
      <trkpt lat="46.06358" lon="7.35739">
        <ele>3216.71</ele>
        <time>2010-04-13T12:14:06Z</time>
      </trkpt>
      <trkpt lat="46.06351" lon="7.35732">
        <ele>3218.63</ele>
        <time>2010-04-13T12:14:19Z</time>
      </trkpt>
      <trkpt lat="46.06342" lon="7.35724">
        <ele>3221.03</ele>
        <time>2010-04-13T12:14:31Z</time>
      </trkpt>
      <trkpt lat="46.06337" lon="7.35721">
        <ele>3221.52</ele>
        <time>2010-04-13T12:14:43Z</time>
      </trkpt>
      <trkpt lat="46.0633" lon="7.35717">
        <ele>3222.96</ele>
        <time>2010-04-13T12:15:07Z</time>
      </trkpt>
      <trkpt lat="46.06319" lon="7.35711">
        <ele>3224.4</ele>
        <time>2010-04-13T12:15:20Z</time>
      </trkpt>
      <trkpt lat="46.06311" lon="7.35707">
        <ele>3226.32</ele>
        <time>2010-04-13T12:15:32Z</time>
      </trkpt>
      <trkpt lat="46.06302" lon="7.35703">
        <ele>3227.28</ele>
        <time>2010-04-13T12:15:45Z</time>
      </trkpt>
      <trkpt lat="46.063" lon="7.35697">
        <ele>3229.21</ele>
        <time>2010-04-13T12:15:59Z</time>
      </trkpt>
      <trkpt lat="46.06298" lon="7.35695">
        <ele>3229.21</ele>
        <time>2010-04-13T12:16:11Z</time>
      </trkpt>
      <trkpt lat="46.0629" lon="7.35694">
        <ele>3230.65</ele>
        <time>2010-04-13T12:16:22Z</time>
      </trkpt>
      <trkpt lat="46.06281" lon="7.35692">
        <ele>3233.05</ele>
        <time>2010-04-13T12:16:36Z</time>
      </trkpt>
      <trkpt lat="46.06271" lon="7.35687">
        <ele>3233.53</ele>
        <time>2010-04-13T12:16:51Z</time>
      </trkpt>
      <trkpt lat="46.0627" lon="7.35685">
        <ele>3235.45</ele>
        <time>2010-04-13T12:17:04Z</time>
      </trkpt>
      <trkpt lat="46.06268" lon="7.35684">
        <ele>3236.9</ele>
        <time>2010-04-13T12:17:16Z</time>
      </trkpt>
      <trkpt lat="46.06268" lon="7.35684">
        <ele>3237.38</ele>
        <time>2010-04-13T12:17:30Z</time>
      </trkpt>
      <trkpt lat="46.06267" lon="7.35683">
        <ele>3239.3</ele>
        <time>2010-04-13T12:17:51Z</time>
      </trkpt>
      <trkpt lat="46.06267" lon="7.35683">
        <ele>3240.74</ele>
        <time>2010-04-13T12:18:07Z</time>
      </trkpt>
      <trkpt lat="46.06263" lon="7.3568">
        <ele>3241.7</ele>
        <time>2010-04-13T12:18:25Z</time>
      </trkpt>
      <trkpt lat="46.06257" lon="7.35677">
        <ele>3244.59</ele>
        <time>2010-04-13T12:18:39Z</time>
      </trkpt>
      <trkpt lat="46.06257" lon="7.35677">
        <ele>3246.03</ele>
        <time>2010-04-13T12:18:53Z</time>
      </trkpt>
      <trkpt lat="46.06257" lon="7.35677">
        <ele>3247.95</ele>
        <time>2010-04-13T12:19:07Z</time>
      </trkpt>
      <trkpt lat="46.06254" lon="7.35675">
        <ele>3249.87</ele>
        <time>2010-04-13T12:19:19Z</time>
      </trkpt>
      <trkpt lat="46.06251" lon="7.35675">
        <ele>3250.35</ele>
        <time>2010-04-13T12:19:23Z</time>
      </trkpt>
      <trkpt lat="46.0623" lon="7.3566">
        <ele>3253.72</ele>
        <time>2010-04-13T12:19:37Z</time>
      </trkpt>
      <trkpt lat="46.06221" lon="7.35654">
        <ele>3254.2</ele>
        <time>2010-04-13T12:19:50Z</time>
      </trkpt>
      <trkpt lat="46.06213" lon="7.35648">
        <ele>3257.56</ele>
        <time>2010-04-13T12:20:03Z</time>
      </trkpt>
      <trkpt lat="46.06211" lon="7.35646">
        <ele>3258.53</ele>
        <time>2010-04-13T12:20:20Z</time>
      </trkpt>
      <trkpt lat="46.06197" lon="7.35629">
        <ele>3260.93</ele>
        <time>2010-04-13T12:20:33Z</time>
      </trkpt>
      <trkpt lat="46.0619" lon="7.3562">
        <ele>3260.93</ele>
        <time>2010-04-13T12:20:46Z</time>
      </trkpt>
      <trkpt lat="46.06186" lon="7.35615">
        <ele>3262.85</ele>
        <time>2010-04-13T12:20:58Z</time>
      </trkpt>
      <trkpt lat="46.0618" lon="7.35606">
        <ele>3264.77</ele>
        <time>2010-04-13T12:21:12Z</time>
      </trkpt>
      <trkpt lat="46.06174" lon="7.35594">
        <ele>3266.22</ele>
        <time>2010-04-13T12:21:28Z</time>
      </trkpt>
      <trkpt lat="46.0617" lon="7.35588">
        <ele>3267.66</ele>
        <time>2010-04-13T12:21:43Z</time>
      </trkpt>
      <trkpt lat="46.06166" lon="7.3558">
        <ele>3268.62</ele>
        <time>2010-04-13T12:21:56Z</time>
      </trkpt>
      <trkpt lat="46.06163" lon="7.35574">
        <ele>3269.58</ele>
        <time>2010-04-13T12:22:09Z</time>
      </trkpt>
      <trkpt lat="46.0616" lon="7.35567">
        <ele>3270.54</ele>
        <time>2010-04-13T12:22:23Z</time>
      </trkpt>
      <trkpt lat="46.06158" lon="7.35563">
        <ele>3271.98</ele>
        <time>2010-04-13T12:22:34Z</time>
      </trkpt>
      <trkpt lat="46.06158" lon="7.35563">
        <ele>3273.43</ele>
        <time>2010-04-13T12:22:47Z</time>
      </trkpt>
      <trkpt lat="46.06154" lon="7.35558">
        <ele>3275.35</ele>
        <time>2010-04-13T12:22:59Z</time>
      </trkpt>
      <trkpt lat="46.06148" lon="7.35551">
        <ele>3277.75</ele>
        <time>2010-04-13T12:23:12Z</time>
      </trkpt>
      <trkpt lat="46.06144" lon="7.35547">
        <ele>3279.19</ele>
        <time>2010-04-13T12:23:24Z</time>
      </trkpt>
      <trkpt lat="46.06144" lon="7.35547">
        <ele>3279.67</ele>
        <time>2010-04-13T12:23:36Z</time>
      </trkpt>
      <trkpt lat="46.06143" lon="7.35546">
        <ele>3281.12</ele>
        <time>2010-04-13T12:23:50Z</time>
      </trkpt>
      <trkpt lat="46.06136" lon="7.35536">
        <ele>3283.52</ele>
        <time>2010-04-13T12:24:04Z</time>
      </trkpt>
      <trkpt lat="46.06131" lon="7.3553">
        <ele>3284.48</ele>
        <time>2010-04-13T12:24:16Z</time>
      </trkpt>
      <trkpt lat="46.06125" lon="7.35524">
        <ele>3285.92</ele>
        <time>2010-04-13T12:24:32Z</time>
      </trkpt>
      <trkpt lat="46.0612" lon="7.35518">
        <ele>3287.85</ele>
        <time>2010-04-13T12:24:44Z</time>
      </trkpt>
      <trkpt lat="46.06116" lon="7.35512">
        <ele>3289.29</ele>
        <time>2010-04-13T12:24:56Z</time>
      </trkpt>
      <trkpt lat="46.06112" lon="7.35507">
        <ele>3290.73</ele>
        <time>2010-04-13T12:25:08Z</time>
      </trkpt>
      <trkpt lat="46.0611" lon="7.35504">
        <ele>3292.17</ele>
        <time>2010-04-13T12:25:20Z</time>
      </trkpt>
      <trkpt lat="46.06105" lon="7.35504">
        <ele>3293.13</ele>
        <time>2010-04-13T12:25:30Z</time>
      </trkpt>
      <trkpt lat="46.06102" lon="7.3551">
        <ele>3295.54</ele>
        <time>2010-04-13T12:25:43Z</time>
      </trkpt>
      <trkpt lat="46.06101" lon="7.35515">
        <ele>3296.5</ele>
        <time>2010-04-13T12:25:56Z</time>
      </trkpt>
      <trkpt lat="46.06098" lon="7.35522">
        <ele>3297.46</ele>
        <time>2010-04-13T12:26:09Z</time>
      </trkpt>
      <trkpt lat="46.06096" lon="7.35528">
        <ele>3299.38</ele>
        <time>2010-04-13T12:26:21Z</time>
      </trkpt>
      <trkpt lat="46.06094" lon="7.35534">
        <ele>3300.34</ele>
        <time>2010-04-13T12:26:33Z</time>
      </trkpt>
      <trkpt lat="46.06092" lon="7.35539">
        <ele>3300.82</ele>
        <time>2010-04-13T12:26:45Z</time>
      </trkpt>
      <trkpt lat="46.06087" lon="7.35536">
        <ele>3303.23</ele>
        <time>2010-04-13T12:26:57Z</time>
      </trkpt>
      <trkpt lat="46.06083" lon="7.35534">
        <ele>3305.15</ele>
        <time>2010-04-13T12:27:11Z</time>
      </trkpt>
      <trkpt lat="46.06079" lon="7.3553">
        <ele>3307.55</ele>
        <time>2010-04-13T12:27:23Z</time>
      </trkpt>
      <trkpt lat="46.06074" lon="7.35523">
        <ele>3308.03</ele>
        <time>2010-04-13T12:27:34Z</time>
      </trkpt>
      <trkpt lat="46.06072" lon="7.35519">
        <ele>3308.51</ele>
        <time>2010-04-13T12:27:45Z</time>
      </trkpt>
      <trkpt lat="46.0607" lon="7.35516">
        <ele>3310.92</ele>
        <time>2010-04-13T12:27:59Z</time>
      </trkpt>
      <trkpt lat="46.0607" lon="7.35514">
        <ele>3310.92</ele>
        <time>2010-04-13T12:28:17Z</time>
      </trkpt>
      <trkpt lat="46.06071" lon="7.35513">
        <ele>3309.96</ele>
        <time>2010-04-13T12:28:48Z</time>
      </trkpt>
      <trkpt lat="46.06072" lon="7.35512">
        <ele>3309</ele>
        <time>2010-04-13T12:29:10Z</time>
      </trkpt>
      <trkpt lat="46.06072" lon="7.35512">
        <ele>3309.48</ele>
        <time>2010-04-13T12:29:33Z</time>
      </trkpt>
      <trkpt lat="46.06072" lon="7.35511">
        <ele>3309</ele>
        <time>2010-04-13T12:29:46Z</time>
      </trkpt>
      <trkpt lat="46.06073" lon="7.3551">
        <ele>3307.07</ele>
        <time>2010-04-13T12:30:05Z</time>
      </trkpt>
      <trkpt lat="46.06073" lon="7.3551">
        <ele>3308.51</ele>
        <time>2010-04-13T12:30:35Z</time>
      </trkpt>
      <trkpt lat="46.06073" lon="7.3551">
        <ele>3307.55</ele>
        <time>2010-04-13T12:32:57Z</time>
      </trkpt>
      <trkpt lat="46.06073" lon="7.35511">
        <ele>3307.55</ele>
        <time>2010-04-13T12:35:38Z</time>
      </trkpt>
      <trkpt lat="46.06072" lon="7.35511">
        <ele>3306.11</ele>
        <time>2010-04-13T12:38:08Z</time>
      </trkpt>
      <trkpt lat="46.06073" lon="7.35512">
        <ele>3306.11</ele>
        <time>2010-04-13T12:40:18Z</time>
      </trkpt>
      <trkpt lat="46.06073" lon="7.35512">
        <ele>3309</ele>
        <time>2010-04-13T12:40:22Z</time>
      </trkpt>
      <trkpt lat="46.06073" lon="7.35512">
        <ele>3305.15</ele>
        <time>2010-04-13T12:40:24Z</time>
      </trkpt>
      <trkpt lat="46.06073" lon="7.35512">
        <ele>3307.55</ele>
        <time>2010-04-13T12:40:27Z</time>
      </trkpt>
      <trkpt lat="46.06073" lon="7.35511">
        <ele>3308.51</ele>
        <time>2010-04-13T12:42:08Z</time>
      </trkpt>
      <trkpt lat="46.06073" lon="7.35511">
        <ele>3307.55</ele>
        <time>2010-04-13T12:42:24Z</time>
      </trkpt>
      <trkpt lat="46.06072" lon="7.35511">
        <ele>3306.59</ele>
        <time>2010-04-13T12:44:13Z</time>
      </trkpt>
      <trkpt lat="46.06072" lon="7.35511">
        <ele>3307.07</ele>
        <time>2010-04-13T12:44:47Z</time>
      </trkpt>
      <trkpt lat="46.06072" lon="7.35511">
        <ele>3307.55</ele>
        <time>2010-04-13T12:45:44Z</time>
      </trkpt>
      <trkpt lat="46.06071" lon="7.3551">
        <ele>3306.59</ele>
        <time>2010-04-13T12:48:14Z</time>
      </trkpt>
      <trkpt lat="46.06071" lon="7.35504">
        <ele>3309</ele>
        <time>2010-04-13T12:48:37Z</time>
      </trkpt>
      <trkpt lat="46.06073" lon="7.35499">
        <ele>3309.48</ele>
        <time>2010-04-13T12:48:43Z</time>
      </trkpt>
      <trkpt lat="46.06072" lon="7.35489">
        <ele>3312.36</ele>
        <time>2010-04-13T12:48:52Z</time>
      </trkpt>
      <trkpt lat="46.06072" lon="7.35485">
        <ele>3312.36</ele>
        <time>2010-04-13T12:48:56Z</time>
      </trkpt>
      <trkpt lat="46.0607" lon="7.35476">
        <ele>3313.32</ele>
        <time>2010-04-13T12:49:04Z</time>
      </trkpt>
      <trkpt lat="46.06064" lon="7.35463">
        <ele>3317.65</ele>
        <time>2010-04-13T12:49:19Z</time>
      </trkpt>
      <trkpt lat="46.06061" lon="7.35456">
        <ele>3319.57</ele>
        <time>2010-04-13T12:49:32Z</time>
      </trkpt>
      <trkpt lat="46.06058" lon="7.35455">
        <ele>3322.93</ele>
        <time>2010-04-13T12:49:46Z</time>
      </trkpt>
      <trkpt lat="46.06056" lon="7.35453">
        <ele>3324.86</ele>
        <time>2010-04-13T12:49:53Z</time>
      </trkpt>
      <trkpt lat="46.06052" lon="7.35448">
        <ele>3325.82</ele>
        <time>2010-04-13T12:50:06Z</time>
      </trkpt>
      <trkpt lat="46.06051" lon="7.35447">
        <ele>3329.18</ele>
        <time>2010-04-13T12:50:08Z</time>
      </trkpt>
      <trkpt lat="46.0605" lon="7.35444">
        <ele>3330.14</ele>
        <time>2010-04-13T12:50:17Z</time>
      </trkpt>
      <trkpt lat="46.06049" lon="7.35442">
        <ele>3331.59</ele>
        <time>2010-04-13T12:50:40Z</time>
      </trkpt>
      <trkpt lat="46.06049" lon="7.35442">
        <ele>3335.43</ele>
        <time>2010-04-13T12:50:42Z</time>
      </trkpt>
      <trkpt lat="46.06049" lon="7.35442">
        <ele>3332.55</ele>
        <time>2010-04-13T12:50:43Z</time>
      </trkpt>
      <trkpt lat="46.06049" lon="7.35439">
        <ele>3338.8</ele>
        <time>2010-04-13T12:50:49Z</time>
      </trkpt>
      <trkpt lat="46.06049" lon="7.35438">
        <ele>3335.43</ele>
        <time>2010-04-13T12:50:50Z</time>
      </trkpt>
      <trkpt lat="46.06049" lon="7.35429">
        <ele>3340.24</ele>
        <time>2010-04-13T12:51:00Z</time>
      </trkpt>
      <trkpt lat="46.06048" lon="7.35426">
        <ele>3337.83</ele>
        <time>2010-04-13T12:51:03Z</time>
      </trkpt>
      <trkpt lat="46.06048" lon="7.35424">
        <ele>3339.76</ele>
        <time>2010-04-13T12:51:05Z</time>
      </trkpt>
      <trkpt lat="46.0605" lon="7.35421">
        <ele>3341.2</ele>
        <time>2010-04-13T12:51:20Z</time>
      </trkpt>
      <trkpt lat="46.0605" lon="7.35421">
        <ele>3339.76</ele>
        <time>2010-04-13T12:51:23Z</time>
      </trkpt>
      <trkpt lat="46.0605" lon="7.35421">
        <ele>3339.76</ele>
        <time>2010-04-13T12:51:56Z</time>
      </trkpt>
      <trkpt lat="46.0605" lon="7.35422">
        <ele>3339.76</ele>
        <time>2010-04-13T12:52:44Z</time>
      </trkpt>
      <trkpt lat="46.06049" lon="7.3542">
        <ele>3339.28</ele>
        <time>2010-04-13T12:53:26Z</time>
      </trkpt>
      <trkpt lat="46.06049" lon="7.35421">
        <ele>3339.28</ele>
        <time>2010-04-13T12:53:58Z</time>
      </trkpt>
      <trkpt lat="46.0605" lon="7.3542">
        <ele>3339.28</ele>
        <time>2010-04-13T12:54:15Z</time>
      </trkpt>
      <trkpt lat="46.0605" lon="7.3542">
        <ele>3337.83</ele>
        <time>2010-04-13T12:54:28Z</time>
      </trkpt>
      <trkpt lat="46.0605" lon="7.3542">
        <ele>3338.32</ele>
        <time>2010-04-13T12:55:09Z</time>
      </trkpt>
      <trkpt lat="46.06052" lon="7.35419">
        <ele>3338.8</ele>
        <time>2010-04-13T12:55:31Z</time>
      </trkpt>
      <trkpt lat="46.06051" lon="7.35418">
        <ele>3338.32</ele>
        <time>2010-04-13T12:56:08Z</time>
      </trkpt>
      <trkpt lat="46.0605" lon="7.35421">
        <ele>3337.35</ele>
        <time>2010-04-13T12:56:28Z</time>
      </trkpt>
      <trkpt lat="46.06051" lon="7.35424">
        <ele>3337.35</ele>
        <time>2010-04-13T12:57:12Z</time>
      </trkpt>
      <trkpt lat="46.06051" lon="7.35422">
        <ele>3337.35</ele>
        <time>2010-04-13T12:57:24Z</time>
      </trkpt>
      <trkpt lat="46.06051" lon="7.35422">
        <ele>3333.03</ele>
        <time>2010-04-13T12:57:41Z</time>
      </trkpt>
      <trkpt lat="46.06051" lon="7.35422">
        <ele>3338.8</ele>
        <time>2010-04-13T12:57:42Z</time>
      </trkpt>
      <trkpt lat="46.06051" lon="7.35422">
        <ele>3334.95</ele>
        <time>2010-04-13T12:57:52Z</time>
      </trkpt>
      <trkpt lat="46.06051" lon="7.35422">
        <ele>3338.32</ele>
        <time>2010-04-13T12:57:55Z</time>
      </trkpt>
      <trkpt lat="46.06051" lon="7.35422">
        <ele>3336.87</ele>
        <time>2010-04-13T12:58:38Z</time>
      </trkpt>
      <trkpt lat="46.06051" lon="7.35423">
        <ele>3333.03</ele>
        <time>2010-04-13T12:58:58Z</time>
      </trkpt>
      <trkpt lat="46.0605" lon="7.35423">
        <ele>3336.87</ele>
        <time>2010-04-13T12:58:59Z</time>
      </trkpt>
      <trkpt lat="46.06051" lon="7.35425">
        <ele>3336.39</ele>
        <time>2010-04-13T12:59:03Z</time>
      </trkpt>
      <trkpt lat="46.06051" lon="7.35423">
        <ele>3337.35</ele>
        <time>2010-04-13T12:59:36Z</time>
      </trkpt>
      <trkpt lat="46.06051" lon="7.35422">
        <ele>3338.32</ele>
        <time>2010-04-13T12:59:57Z</time>
      </trkpt>
      <trkpt lat="46.06051" lon="7.35422">
        <ele>3336.39</ele>
        <time>2010-04-13T13:00:51Z</time>
      </trkpt>
      <trkpt lat="46.06051" lon="7.35422">
        <ele>3346.49</ele>
        <time>2010-04-13T13:01:10Z</time>
      </trkpt>
      <trkpt lat="46.06051" lon="7.35422">
        <ele>3338.8</ele>
        <time>2010-04-13T13:01:11Z</time>
      </trkpt>
      <trkpt lat="46.06051" lon="7.35422">
        <ele>3335.43</ele>
        <time>2010-04-13T13:01:20Z</time>
      </trkpt>
      <trkpt lat="46.06051" lon="7.35422">
        <ele>3338.8</ele>
        <time>2010-04-13T13:01:25Z</time>
      </trkpt>
      <trkpt lat="46.06051" lon="7.35422">
        <ele>3335.43</ele>
        <time>2010-04-13T13:01:28Z</time>
      </trkpt>
      <trkpt lat="46.0605" lon="7.35421">
        <ele>3335.91</ele>
        <time>2010-04-13T13:01:53Z</time>
      </trkpt>
      <trkpt lat="46.0605" lon="7.35421">
        <ele>3332.55</ele>
        <time>2010-04-13T13:02:10Z</time>
      </trkpt>
      <trkpt lat="46.0605" lon="7.35421">
        <ele>3337.35</ele>
        <time>2010-04-13T13:02:11Z</time>
      </trkpt>
      <trkpt lat="46.06051" lon="7.35421">
        <ele>3335.91</ele>
        <time>2010-04-13T13:02:32Z</time>
      </trkpt>
      <trkpt lat="46.06051" lon="7.3542">
        <ele>3334.95</ele>
        <time>2010-04-13T13:03:08Z</time>
      </trkpt>
      <trkpt lat="46.06051" lon="7.3542">
        <ele>3335.91</ele>
        <time>2010-04-13T13:03:30Z</time>
      </trkpt>
      <trkpt lat="46.06051" lon="7.3542">
        <ele>3336.39</ele>
        <time>2010-04-13T13:03:54Z</time>
      </trkpt>
      <trkpt lat="46.06051" lon="7.3542">
        <ele>3333.03</ele>
        <time>2010-04-13T13:04:04Z</time>
      </trkpt>
      <trkpt lat="46.06051" lon="7.3542">
        <ele>3330.14</ele>
        <time>2010-04-13T13:04:16Z</time>
      </trkpt>
      <trkpt lat="46.06051" lon="7.3542">
        <ele>3326.3</ele>
        <time>2010-04-13T13:04:19Z</time>
      </trkpt>
      <trkpt lat="46.06051" lon="7.3542">
        <ele>3329.66</ele>
        <time>2010-04-13T13:04:20Z</time>
      </trkpt>
      <trkpt lat="46.0605" lon="7.35422">
        <ele>3329.66</ele>
        <time>2010-04-13T13:04:39Z</time>
      </trkpt>
      <trkpt lat="46.0605" lon="7.35422">
        <ele>3330.14</ele>
        <time>2010-04-13T13:04:51Z</time>
      </trkpt>
      <trkpt lat="46.06052" lon="7.35425">
        <ele>3328.22</ele>
        <time>2010-04-13T13:04:53Z</time>
      </trkpt>
      <trkpt lat="46.06053" lon="7.3543">
        <ele>3324.38</ele>
        <time>2010-04-13T13:04:55Z</time>
      </trkpt>
      <trkpt lat="46.06056" lon="7.35436">
        <ele>3319.09</ele>
        <time>2010-04-13T13:04:59Z</time>
      </trkpt>
      <trkpt lat="46.06056" lon="7.35437">
        <ele>3319.57</ele>
        <time>2010-04-13T13:05:00Z</time>
      </trkpt>
      <trkpt lat="46.0606" lon="7.35443">
        <ele>3314.28</ele>
        <time>2010-04-13T13:05:04Z</time>
      </trkpt>
      <trkpt lat="46.0606" lon="7.35444">
        <ele>3317.17</ele>
        <time>2010-04-13T13:05:05Z</time>
      </trkpt>
      <trkpt lat="46.06061" lon="7.35445">
        <ele>3302.75</ele>
        <time>2010-04-13T13:05:06Z</time>
      </trkpt>
      <trkpt lat="46.06061" lon="7.35446">
        <ele>3318.61</ele>
        <time>2010-04-13T13:05:07Z</time>
      </trkpt>
      <trkpt lat="46.06062" lon="7.35448">
        <ele>3319.09</ele>
        <time>2010-04-13T13:05:08Z</time>
      </trkpt>
      <trkpt lat="46.06064" lon="7.35451">
        <ele>3309.96</ele>
        <time>2010-04-13T13:05:10Z</time>
      </trkpt>
      <trkpt lat="46.06065" lon="7.35453">
        <ele>3319.09</ele>
        <time>2010-04-13T13:05:11Z</time>
      </trkpt>
      <trkpt lat="46.06066" lon="7.35454">
        <ele>3314.28</ele>
        <time>2010-04-13T13:05:12Z</time>
      </trkpt>
      <trkpt lat="46.06067" lon="7.35456">
        <ele>3312.36</ele>
        <time>2010-04-13T13:05:13Z</time>
      </trkpt>
      <trkpt lat="46.06067" lon="7.3546">
        <ele>3310.92</ele>
        <time>2010-04-13T13:05:15Z</time>
      </trkpt>
      <trkpt lat="46.06071" lon="7.35476">
        <ele>3307.55</ele>
        <time>2010-04-13T13:05:27Z</time>
      </trkpt>
      <trkpt lat="46.06074" lon="7.35489">
        <ele>3305.15</ele>
        <time>2010-04-13T13:05:40Z</time>
      </trkpt>
      <trkpt lat="46.06074" lon="7.35495">
        <ele>3305.15</ele>
        <time>2010-04-13T13:05:44Z</time>
      </trkpt>
      <trkpt lat="46.06073" lon="7.35497">
        <ele>3304.19</ele>
        <time>2010-04-13T13:05:46Z</time>
      </trkpt>
      <trkpt lat="46.06073" lon="7.35499">
        <ele>3302.75</ele>
        <time>2010-04-13T13:05:47Z</time>
      </trkpt>
      <trkpt lat="46.06074" lon="7.35506">
        <ele>3302.27</ele>
        <time>2010-04-13T13:05:56Z</time>
      </trkpt>
      <trkpt lat="46.06074" lon="7.35506">
        <ele>3302.75</ele>
        <time>2010-04-13T13:06:14Z</time>
      </trkpt>
      <trkpt lat="46.06074" lon="7.35506">
        <ele>3299.86</ele>
        <time>2010-04-13T13:06:20Z</time>
      </trkpt>
      <trkpt lat="46.06073" lon="7.35508">
        <ele>3301.3</ele>
        <time>2010-04-13T13:06:36Z</time>
      </trkpt>
      <trkpt lat="46.06072" lon="7.35508">
        <ele>3301.3</ele>
        <time>2010-04-13T13:06:59Z</time>
      </trkpt>
      <trkpt lat="46.06072" lon="7.35508">
        <ele>3300.82</ele>
        <time>2010-04-13T13:07:49Z</time>
      </trkpt>
      <trkpt lat="46.06072" lon="7.35507">
        <ele>3300.82</ele>
        <time>2010-04-13T13:09:38Z</time>
      </trkpt>
      <trkpt lat="46.06072" lon="7.35507">
        <ele>3300.34</ele>
        <time>2010-04-13T13:09:47Z</time>
      </trkpt>
      <trkpt lat="46.06072" lon="7.35507">
        <ele>3299.86</ele>
        <time>2010-04-13T13:09:53Z</time>
      </trkpt>
      <trkpt lat="46.06072" lon="7.35507">
        <ele>3300.34</ele>
        <time>2010-04-13T13:10:12Z</time>
      </trkpt>
      <trkpt lat="46.06072" lon="7.35508">
        <ele>3300.34</ele>
        <time>2010-04-13T13:12:40Z</time>
      </trkpt>
      <trkpt lat="46.06072" lon="7.35509">
        <ele>3299.86</ele>
        <time>2010-04-13T13:14:01Z</time>
      </trkpt>
      <trkpt lat="46.06072" lon="7.35509">
        <ele>3300.82</ele>
        <time>2010-04-13T13:14:03Z</time>
      </trkpt>
      <trkpt lat="46.06072" lon="7.35508">
        <ele>3299.38</ele>
        <time>2010-04-13T13:14:42Z</time>
      </trkpt>
      <trkpt lat="46.06072" lon="7.35508">
        <ele>3299.86</ele>
        <time>2010-04-13T13:15:07Z</time>
      </trkpt>
      <trkpt lat="46.06071" lon="7.3551">
        <ele>3299.38</ele>
        <time>2010-04-13T13:15:28Z</time>
      </trkpt>
      <trkpt lat="46.06071" lon="7.3551">
        <ele>3299.38</ele>
        <time>2010-04-13T13:15:50Z</time>
      </trkpt>
      <trkpt lat="46.06071" lon="7.3551">
        <ele>3300.82</ele>
        <time>2010-04-13T13:15:53Z</time>
      </trkpt>
      <trkpt lat="46.06071" lon="7.3551">
        <ele>3299.38</ele>
        <time>2010-04-13T13:16:05Z</time>
      </trkpt>
      <trkpt lat="46.06071" lon="7.3551">
        <ele>3298.42</ele>
        <time>2010-04-13T13:16:26Z</time>
      </trkpt>
      <trkpt lat="46.06071" lon="7.3551">
        <ele>3298.9</ele>
        <time>2010-04-13T13:16:50Z</time>
      </trkpt>
      <trkpt lat="46.06071" lon="7.3551">
        <ele>3300.34</ele>
        <time>2010-04-13T13:17:09Z</time>
      </trkpt>
      <trkpt lat="46.06072" lon="7.35507">
        <ele>3301.79</ele>
        <time>2010-04-13T13:17:48Z</time>
      </trkpt>
      <trkpt lat="46.06071" lon="7.35491">
        <ele>3304.19</ele>
        <time>2010-04-13T13:17:59Z</time>
      </trkpt>
      <trkpt lat="46.0607" lon="7.35476">
        <ele>3307.55</ele>
        <time>2010-04-13T13:18:12Z</time>
      </trkpt>
      <trkpt lat="46.0607" lon="7.35476">
        <ele>3300.82</ele>
        <time>2010-04-13T13:18:21Z</time>
      </trkpt>
      <trkpt lat="46.0607" lon="7.35476">
        <ele>3311.88</ele>
        <time>2010-04-13T13:18:22Z</time>
      </trkpt>
      <trkpt lat="46.0607" lon="7.35476">
        <ele>3333.03</ele>
        <time>2010-04-13T13:18:23Z</time>
      </trkpt>
      <trkpt lat="46.0607" lon="7.35476">
        <ele>3317.65</ele>
        <time>2010-04-13T13:18:24Z</time>
      </trkpt>
      <trkpt lat="46.0607" lon="7.35477">
        <ele>3312.84</ele>
        <time>2010-04-13T13:18:25Z</time>
      </trkpt>
      <trkpt lat="46.0607" lon="7.35477">
        <ele>3304.67</ele>
        <time>2010-04-13T13:18:26Z</time>
      </trkpt>
      <trkpt lat="46.0607" lon="7.35477">
        <ele>3308.51</ele>
        <time>2010-04-13T13:18:28Z</time>
      </trkpt>
      <trkpt lat="46.0607" lon="7.35477">
        <ele>3307.55</ele>
        <time>2010-04-13T13:18:29Z</time>
      </trkpt>
      <trkpt lat="46.0607" lon="7.35477">
        <ele>3308.03</ele>
        <time>2010-04-13T13:18:36Z</time>
      </trkpt>
      <trkpt lat="46.0607" lon="7.35477">
        <ele>3306.59</ele>
        <time>2010-04-13T13:18:50Z</time>
      </trkpt>
      <trkpt lat="46.0607" lon="7.35477">
        <ele>3305.63</ele>
        <time>2010-04-13T13:20:07Z</time>
      </trkpt>
      <trkpt lat="46.0607" lon="7.35476">
        <ele>3305.15</ele>
        <time>2010-04-13T13:20:15Z</time>
      </trkpt>
      <trkpt lat="46.0607" lon="7.35476">
        <ele>3306.59</ele>
        <time>2010-04-13T13:20:34Z</time>
      </trkpt>
      <trkpt lat="46.0607" lon="7.35476">
        <ele>3302.75</ele>
        <time>2010-04-13T13:20:41Z</time>
      </trkpt>
      <trkpt lat="46.0607" lon="7.35476">
        <ele>3304.19</ele>
        <time>2010-04-13T13:20:42Z</time>
      </trkpt>
      <trkpt lat="46.0607" lon="7.35476">
        <ele>3308.03</ele>
        <time>2010-04-13T13:20:46Z</time>
      </trkpt>
      <trkpt lat="46.0607" lon="7.35476">
        <ele>3302.27</ele>
        <time>2010-04-13T13:20:48Z</time>
      </trkpt>
      <trkpt lat="46.0607" lon="7.35476">
        <ele>3307.55</ele>
        <time>2010-04-13T13:20:49Z</time>
      </trkpt>
      <trkpt lat="46.0607" lon="7.35476">
        <ele>3307.07</ele>
        <time>2010-04-13T13:20:50Z</time>
      </trkpt>
      <trkpt lat="46.06068" lon="7.35476">
        <ele>3308.51</ele>
        <time>2010-04-13T13:21:24Z</time>
      </trkpt>
      <trkpt lat="46.06069" lon="7.35475">
        <ele>3307.55</ele>
        <time>2010-04-13T13:21:52Z</time>
      </trkpt>
      <trkpt lat="46.06069" lon="7.35474">
        <ele>3308.03</ele>
        <time>2010-04-13T13:22:24Z</time>
      </trkpt>
      <trkpt lat="46.06069" lon="7.35474">
        <ele>3306.11</ele>
        <time>2010-04-13T13:22:27Z</time>
      </trkpt>
      <trkpt lat="46.06069" lon="7.35473">
        <ele>3305.15</ele>
        <time>2010-04-13T13:24:23Z</time>
      </trkpt>
      <trkpt lat="46.06069" lon="7.35473">
        <ele>3305.63</ele>
        <time>2010-04-13T13:24:39Z</time>
      </trkpt>
      <trkpt lat="46.06071" lon="7.35474">
        <ele>3305.15</ele>
        <time>2010-04-13T13:30:39Z</time>
      </trkpt>
      <trkpt lat="46.0607" lon="7.35474">
        <ele>3308.03</ele>
        <time>2010-04-13T13:30:53Z</time>
      </trkpt>
      <trkpt lat="46.0607" lon="7.35474">
        <ele>3308.03</ele>
        <time>2010-04-13T13:30:54Z</time>
      </trkpt>
      <trkpt lat="46.0607" lon="7.35474">
        <ele>3302.75</ele>
        <time>2010-04-13T13:31:09Z</time>
      </trkpt>
      <trkpt lat="46.0607" lon="7.35474">
        <ele>3304.67</ele>
        <time>2010-04-13T13:31:10Z</time>
      </trkpt>
      <trkpt lat="46.0607" lon="7.35474">
        <ele>3307.55</ele>
        <time>2010-04-13T13:31:12Z</time>
      </trkpt>
      <trkpt lat="46.0607" lon="7.35474">
        <ele>3303.23</ele>
        <time>2010-04-13T13:31:39Z</time>
      </trkpt>
      <trkpt lat="46.0607" lon="7.35474">
        <ele>3307.55</ele>
        <time>2010-04-13T13:31:40Z</time>
      </trkpt>
      <trkpt lat="46.0607" lon="7.35474">
        <ele>3302.75</ele>
        <time>2010-04-13T13:32:54Z</time>
      </trkpt>
      <trkpt lat="46.0607" lon="7.35474">
        <ele>3306.11</ele>
        <time>2010-04-13T13:32:55Z</time>
      </trkpt>
      <trkpt lat="46.06074" lon="7.35463">
        <ele>3305.15</ele>
        <time>2010-04-13T13:33:34Z</time>
      </trkpt>
      <trkpt lat="46.06077" lon="7.35454">
        <ele>3301.79</ele>
        <time>2010-04-13T13:33:43Z</time>
      </trkpt>
      <trkpt lat="46.06081" lon="7.35455">
        <ele>3299.86</ele>
        <time>2010-04-13T13:33:45Z</time>
      </trkpt>
      <trkpt lat="46.06089" lon="7.35457">
        <ele>3290.73</ele>
        <time>2010-04-13T13:33:47Z</time>
      </trkpt>
      <trkpt lat="46.06093" lon="7.35458">
        <ele>3293.13</ele>
        <time>2010-04-13T13:33:48Z</time>
      </trkpt>
      <trkpt lat="46.06098" lon="7.35458">
        <ele>3288.81</ele>
        <time>2010-04-13T13:33:49Z</time>
      </trkpt>
      <trkpt lat="46.06106" lon="7.3546">
        <ele>3285.92</ele>
        <time>2010-04-13T13:33:51Z</time>
      </trkpt>
      <trkpt lat="46.06114" lon="7.3546">
        <ele>3282.08</ele>
        <time>2010-04-13T13:33:53Z</time>
      </trkpt>
      <trkpt lat="46.06119" lon="7.35462">
        <ele>3279.19</ele>
        <time>2010-04-13T13:33:55Z</time>
      </trkpt>
      <trkpt lat="46.06125" lon="7.35462">
        <ele>3273.91</ele>
        <time>2010-04-13T13:33:57Z</time>
      </trkpt>
      <trkpt lat="46.06132" lon="7.35459">
        <ele>3271.02</ele>
        <time>2010-04-13T13:33:59Z</time>
      </trkpt>
      <trkpt lat="46.06135" lon="7.35457">
        <ele>3267.18</ele>
        <time>2010-04-13T13:34:00Z</time>
      </trkpt>
      <trkpt lat="46.06143" lon="7.35457">
        <ele>3260.45</ele>
        <time>2010-04-13T13:34:02Z</time>
      </trkpt>
      <trkpt lat="46.06146" lon="7.35457">
        <ele>3268.14</ele>
        <time>2010-04-13T13:34:03Z</time>
      </trkpt>
      <trkpt lat="46.0615" lon="7.35456">
        <ele>3262.37</ele>
        <time>2010-04-13T13:34:04Z</time>
      </trkpt>
      <trkpt lat="46.06157" lon="7.35455">
        <ele>3255.64</ele>
        <time>2010-04-13T13:34:06Z</time>
      </trkpt>
      <trkpt lat="46.0616" lon="7.35454">
        <ele>3251.8</ele>
        <time>2010-04-13T13:34:07Z</time>
      </trkpt>
      <trkpt lat="46.06168" lon="7.35453">
        <ele>3250.35</ele>
        <time>2010-04-13T13:34:09Z</time>
      </trkpt>
      <trkpt lat="46.06172" lon="7.35452">
        <ele>3238.34</ele>
        <time>2010-04-13T13:34:10Z</time>
      </trkpt>
      <trkpt lat="46.06181" lon="7.35449">
        <ele>3239.3</ele>
        <time>2010-04-13T13:34:13Z</time>
      </trkpt>
      <trkpt lat="46.06183" lon="7.3545">
        <ele>3235.45</ele>
        <time>2010-04-13T13:34:14Z</time>
      </trkpt>
      <trkpt lat="46.06195" lon="7.35449">
        <ele>3229.69</ele>
        <time>2010-04-13T13:34:17Z</time>
      </trkpt>
      <trkpt lat="46.06199" lon="7.3545">
        <ele>3230.17</ele>
        <time>2010-04-13T13:34:18Z</time>
      </trkpt>
      <trkpt lat="46.06208" lon="7.3545">
        <ele>3225.36</ele>
        <time>2010-04-13T13:34:20Z</time>
      </trkpt>
      <trkpt lat="46.06224" lon="7.35454">
        <ele>3222</ele>
        <time>2010-04-13T13:34:23Z</time>
      </trkpt>
      <trkpt lat="46.06228" lon="7.35446">
        <ele>3219.11</ele>
        <time>2010-04-13T13:34:26Z</time>
      </trkpt>
      <trkpt lat="46.06227" lon="7.35444">
        <ele>3220.55</ele>
        <time>2010-04-13T13:34:54Z</time>
      </trkpt>
      <trkpt lat="46.06226" lon="7.35445">
        <ele>3222</ele>
        <time>2010-04-13T13:35:49Z</time>
      </trkpt>
      <trkpt lat="46.06231" lon="7.35445">
        <ele>3221.52</ele>
        <time>2010-04-13T13:35:52Z</time>
      </trkpt>
      <trkpt lat="46.06242" lon="7.3545">
        <ele>3215.27</ele>
        <time>2010-04-13T13:35:55Z</time>
      </trkpt>
      <trkpt lat="46.06247" lon="7.35451">
        <ele>3213.34</ele>
        <time>2010-04-13T13:35:56Z</time>
      </trkpt>
      <trkpt lat="46.06266" lon="7.35456">
        <ele>3210.46</ele>
        <time>2010-04-13T13:35:59Z</time>
      </trkpt>
      <trkpt lat="46.06279" lon="7.35458">
        <ele>3204.69</ele>
        <time>2010-04-13T13:36:01Z</time>
      </trkpt>
      <trkpt lat="46.06291" lon="7.3546">
        <ele>3201.81</ele>
        <time>2010-04-13T13:36:03Z</time>
      </trkpt>
      <trkpt lat="46.06303" lon="7.3547">
        <ele>3197.48</ele>
        <time>2010-04-13T13:36:05Z</time>
      </trkpt>
      <trkpt lat="46.06322" lon="7.35476">
        <ele>3193.16</ele>
        <time>2010-04-13T13:36:08Z</time>
      </trkpt>
      <trkpt lat="46.06333" lon="7.3548">
        <ele>3189.79</ele>
        <time>2010-04-13T13:36:10Z</time>
      </trkpt>
      <trkpt lat="46.06343" lon="7.35487">
        <ele>3186.43</ele>
        <time>2010-04-13T13:36:12Z</time>
      </trkpt>
      <trkpt lat="46.06354" lon="7.35492">
        <ele>3182.58</ele>
        <time>2010-04-13T13:36:14Z</time>
      </trkpt>
      <trkpt lat="46.06365" lon="7.35496">
        <ele>3178.74</ele>
        <time>2010-04-13T13:36:16Z</time>
      </trkpt>
      <trkpt lat="46.06371" lon="7.35498">
        <ele>3176.81</ele>
        <time>2010-04-13T13:36:17Z</time>
      </trkpt>
      <trkpt lat="46.0639" lon="7.35501">
        <ele>3166.72</ele>
        <time>2010-04-13T13:36:20Z</time>
      </trkpt>
      <trkpt lat="46.06398" lon="7.35503">
        <ele>3168.16</ele>
        <time>2010-04-13T13:36:21Z</time>
      </trkpt>
      <trkpt lat="46.06406" lon="7.35505">
        <ele>3163.36</ele>
        <time>2010-04-13T13:36:22Z</time>
      </trkpt>
      <trkpt lat="46.06416" lon="7.35506">
        <ele>3159.03</ele>
        <time>2010-04-13T13:36:23Z</time>
      </trkpt>
      <trkpt lat="46.06437" lon="7.35512">
        <ele>3153.74</ele>
        <time>2010-04-13T13:36:25Z</time>
      </trkpt>
      <trkpt lat="46.06465" lon="7.35521">
        <ele>3149.9</ele>
        <time>2010-04-13T13:36:28Z</time>
      </trkpt>
      <trkpt lat="46.06491" lon="7.35529">
        <ele>3145.57</ele>
        <time>2010-04-13T13:36:31Z</time>
      </trkpt>
      <trkpt lat="46.06517" lon="7.35539">
        <ele>3143.65</ele>
        <time>2010-04-13T13:36:34Z</time>
      </trkpt>
      <trkpt lat="46.06542" lon="7.3555">
        <ele>3141.25</ele>
        <time>2010-04-13T13:36:37Z</time>
      </trkpt>
      <trkpt lat="46.06565" lon="7.35561">
        <ele>3139.32</ele>
        <time>2010-04-13T13:36:40Z</time>
      </trkpt>
      <trkpt lat="46.06585" lon="7.35572">
        <ele>3135.48</ele>
        <time>2010-04-13T13:36:43Z</time>
      </trkpt>
      <trkpt lat="46.06592" lon="7.35575">
        <ele>3136.44</ele>
        <time>2010-04-13T13:36:44Z</time>
      </trkpt>
      <trkpt lat="46.06598" lon="7.35579">
        <ele>3135.96</ele>
        <time>2010-04-13T13:36:45Z</time>
      </trkpt>
      <trkpt lat="46.0662" lon="7.35585">
        <ele>3132.11</ele>
        <time>2010-04-13T13:36:48Z</time>
      </trkpt>
      <trkpt lat="46.06635" lon="7.35593">
        <ele>3130.19</ele>
        <time>2010-04-13T13:36:50Z</time>
      </trkpt>
      <trkpt lat="46.06647" lon="7.35606">
        <ele>3126.83</ele>
        <time>2010-04-13T13:36:52Z</time>
      </trkpt>
      <trkpt lat="46.06666" lon="7.3563">
        <ele>3123.94</ele>
        <time>2010-04-13T13:36:55Z</time>
      </trkpt>
      <trkpt lat="46.06685" lon="7.35654">
        <ele>3120.58</ele>
        <time>2010-04-13T13:36:58Z</time>
      </trkpt>
      <trkpt lat="46.06698" lon="7.35672">
        <ele>3118.65</ele>
        <time>2010-04-13T13:37:00Z</time>
      </trkpt>
      <trkpt lat="46.06716" lon="7.35698">
        <ele>3115.29</ele>
        <time>2010-04-13T13:37:03Z</time>
      </trkpt>
      <trkpt lat="46.06734" lon="7.35723">
        <ele>3113.85</ele>
        <time>2010-04-13T13:37:06Z</time>
      </trkpt>
      <trkpt lat="46.06745" lon="7.35739">
        <ele>3111.44</ele>
        <time>2010-04-13T13:37:08Z</time>
      </trkpt>
      <trkpt lat="46.06764" lon="7.35784">
        <ele>3108.08</ele>
        <time>2010-04-13T13:37:13Z</time>
      </trkpt>
      <trkpt lat="46.06776" lon="7.35804">
        <ele>3106.16</ele>
        <time>2010-04-13T13:37:16Z</time>
      </trkpt>
      <trkpt lat="46.06783" lon="7.35819">
        <ele>3105.2</ele>
        <time>2010-04-13T13:37:23Z</time>
      </trkpt>
      <trkpt lat="46.06784" lon="7.35821">
        <ele>3101.35</ele>
        <time>2010-04-13T13:37:41Z</time>
      </trkpt>
      <trkpt lat="46.06785" lon="7.35824">
        <ele>3101.35</ele>
        <time>2010-04-13T13:37:42Z</time>
      </trkpt>
      <trkpt lat="46.06788" lon="7.35828">
        <ele>3106.64</ele>
        <time>2010-04-13T13:37:43Z</time>
      </trkpt>
      <trkpt lat="46.0679" lon="7.35832">
        <ele>3105.2</ele>
        <time>2010-04-13T13:37:44Z</time>
      </trkpt>
      <trkpt lat="46.06798" lon="7.35851">
        <ele>3097.99</ele>
        <time>2010-04-13T13:37:47Z</time>
      </trkpt>
      <trkpt lat="46.06807" lon="7.35881">
        <ele>3093.18</ele>
        <time>2010-04-13T13:37:50Z</time>
      </trkpt>
      <trkpt lat="46.06814" lon="7.35901">
        <ele>3085.49</ele>
        <time>2010-04-13T13:37:52Z</time>
      </trkpt>
      <trkpt lat="46.06818" lon="7.3591">
        <ele>3086.93</ele>
        <time>2010-04-13T13:37:53Z</time>
      </trkpt>
      <trkpt lat="46.06826" lon="7.35928">
        <ele>3080.68</ele>
        <time>2010-04-13T13:37:55Z</time>
      </trkpt>
      <trkpt lat="46.06837" lon="7.35944">
        <ele>3079.24</ele>
        <time>2010-04-13T13:37:57Z</time>
      </trkpt>
      <trkpt lat="46.06842" lon="7.35951">
        <ele>3073.95</ele>
        <time>2010-04-13T13:37:58Z</time>
      </trkpt>
      <trkpt lat="46.06849" lon="7.35958">
        <ele>3073.47</ele>
        <time>2010-04-13T13:37:59Z</time>
      </trkpt>
      <trkpt lat="46.06867" lon="7.3598">
        <ele>3068.19</ele>
        <time>2010-04-13T13:38:02Z</time>
      </trkpt>
      <trkpt lat="46.06885" lon="7.35997">
        <ele>3064.34</ele>
        <time>2010-04-13T13:38:05Z</time>
      </trkpt>
      <trkpt lat="46.06892" lon="7.36002">
        <ele>3062.9</ele>
        <time>2010-04-13T13:38:06Z</time>
      </trkpt>
      <trkpt lat="46.06908" lon="7.36025">
        <ele>3058.57</ele>
        <time>2010-04-13T13:38:09Z</time>
      </trkpt>
      <trkpt lat="46.06911" lon="7.36034">
        <ele>3056.65</ele>
        <time>2010-04-13T13:38:10Z</time>
      </trkpt>
      <trkpt lat="46.06915" lon="7.36066">
        <ele>3056.65</ele>
        <time>2010-04-13T13:38:18Z</time>
      </trkpt>
      <trkpt lat="46.06915" lon="7.36066">
        <ele>3055.21</ele>
        <time>2010-04-13T13:38:48Z</time>
      </trkpt>
      <trkpt lat="46.0692" lon="7.36088">
        <ele>3052.32</ele>
        <time>2010-04-13T13:38:54Z</time>
      </trkpt>
      <trkpt lat="46.06926" lon="7.36113">
        <ele>3048</ele>
        <time>2010-04-13T13:38:57Z</time>
      </trkpt>
      <trkpt lat="46.06928" lon="7.36123">
        <ele>3047.04</ele>
        <time>2010-04-13T13:38:58Z</time>
      </trkpt>
      <trkpt lat="46.06932" lon="7.3615">
        <ele>3041.27</ele>
        <time>2010-04-13T13:39:01Z</time>
      </trkpt>
      <trkpt lat="46.06932" lon="7.36155">
        <ele>3044.63</ele>
        <time>2010-04-13T13:39:02Z</time>
      </trkpt>
      <trkpt lat="46.06936" lon="7.36159">
        <ele>3040.79</ele>
        <time>2010-04-13T13:39:04Z</time>
      </trkpt>
      <trkpt lat="46.06943" lon="7.36162">
        <ele>3035.02</ele>
        <time>2010-04-13T13:39:06Z</time>
      </trkpt>
      <trkpt lat="46.06949" lon="7.36163">
        <ele>3032.14</ele>
        <time>2010-04-13T13:39:07Z</time>
      </trkpt>
      <trkpt lat="46.0696" lon="7.36164">
        <ele>3027.33</ele>
        <time>2010-04-13T13:39:09Z</time>
      </trkpt>
      <trkpt lat="46.06972" lon="7.36168">
        <ele>3022.04</ele>
        <time>2010-04-13T13:39:11Z</time>
      </trkpt>
      <trkpt lat="46.06978" lon="7.36172">
        <ele>3016.27</ele>
        <time>2010-04-13T13:39:12Z</time>
      </trkpt>
      <trkpt lat="46.06984" lon="7.36175">
        <ele>3016.27</ele>
        <time>2010-04-13T13:39:13Z</time>
      </trkpt>
      <trkpt lat="46.07006" lon="7.3619">
        <ele>3010.99</ele>
        <time>2010-04-13T13:39:16Z</time>
      </trkpt>
      <trkpt lat="46.07013" lon="7.36197">
        <ele>3010.99</ele>
        <time>2010-04-13T13:39:17Z</time>
      </trkpt>
      <trkpt lat="46.07026" lon="7.36208">
        <ele>3007.62</ele>
        <time>2010-04-13T13:39:19Z</time>
      </trkpt>
      <trkpt lat="46.07047" lon="7.36218">
        <ele>3003.3</ele>
        <time>2010-04-13T13:39:22Z</time>
      </trkpt>
      <trkpt lat="46.07055" lon="7.36222">
        <ele>3002.82</ele>
        <time>2010-04-13T13:39:23Z</time>
      </trkpt>
      <trkpt lat="46.07069" lon="7.36231">
        <ele>3001.37</ele>
        <time>2010-04-13T13:39:25Z</time>
      </trkpt>
      <trkpt lat="46.07094" lon="7.36249">
        <ele>2998.49</ele>
        <time>2010-04-13T13:39:29Z</time>
      </trkpt>
      <trkpt lat="46.07104" lon="7.36257">
        <ele>2996.57</ele>
        <time>2010-04-13T13:39:31Z</time>
      </trkpt>
      <trkpt lat="46.07115" lon="7.36259">
        <ele>2998.49</ele>
        <time>2010-04-13T13:39:39Z</time>
      </trkpt>
      <trkpt lat="46.07116" lon="7.3626">
        <ele>2997.05</ele>
        <time>2010-04-13T13:40:02Z</time>
      </trkpt>
      <trkpt lat="46.07115" lon="7.3626">
        <ele>2998.01</ele>
        <time>2010-04-13T13:40:49Z</time>
      </trkpt>
      <trkpt lat="46.07115" lon="7.3626">
        <ele>2998.49</ele>
        <time>2010-04-13T13:40:55Z</time>
      </trkpt>
      <trkpt lat="46.07123" lon="7.36269">
        <ele>2993.68</ele>
        <time>2010-04-13T13:41:00Z</time>
      </trkpt>
      <trkpt lat="46.07127" lon="7.36273">
        <ele>2995.12</ele>
        <time>2010-04-13T13:41:01Z</time>
      </trkpt>
      <trkpt lat="46.0713" lon="7.36277">
        <ele>2991.28</ele>
        <time>2010-04-13T13:41:02Z</time>
      </trkpt>
      <trkpt lat="46.07134" lon="7.36281">
        <ele>2995.6</ele>
        <time>2010-04-13T13:41:03Z</time>
      </trkpt>
      <trkpt lat="46.07138" lon="7.36285">
        <ele>2995.12</ele>
        <time>2010-04-13T13:41:04Z</time>
      </trkpt>
      <trkpt lat="46.07151" lon="7.36297">
        <ele>2992.72</ele>
        <time>2010-04-13T13:41:07Z</time>
      </trkpt>
      <trkpt lat="46.07162" lon="7.36304">
        <ele>2992.24</ele>
        <time>2010-04-13T13:41:09Z</time>
      </trkpt>
      <trkpt lat="46.07179" lon="7.36319">
        <ele>2987.91</ele>
        <time>2010-04-13T13:41:12Z</time>
      </trkpt>
      <trkpt lat="46.07196" lon="7.36338">
        <ele>2985.51</ele>
        <time>2010-04-13T13:41:15Z</time>
      </trkpt>
      <trkpt lat="46.07214" lon="7.36377">
        <ele>2979.26</ele>
        <time>2010-04-13T13:41:19Z</time>
      </trkpt>
      <trkpt lat="46.07224" lon="7.36398">
        <ele>2975.9</ele>
        <time>2010-04-13T13:41:21Z</time>
      </trkpt>
      <trkpt lat="46.07231" lon="7.3642">
        <ele>2974.46</ele>
        <time>2010-04-13T13:41:23Z</time>
      </trkpt>
      <trkpt lat="46.07243" lon="7.36445">
        <ele>2970.13</ele>
        <time>2010-04-13T13:41:26Z</time>
      </trkpt>
      <trkpt lat="46.07247" lon="7.36451">
        <ele>2969.65</ele>
        <time>2010-04-13T13:41:27Z</time>
      </trkpt>
      <trkpt lat="46.07257" lon="7.36473">
        <ele>2963.4</ele>
        <time>2010-04-13T13:41:30Z</time>
      </trkpt>
      <trkpt lat="46.07259" lon="7.3648">
        <ele>2965.32</ele>
        <time>2010-04-13T13:41:31Z</time>
      </trkpt>
      <trkpt lat="46.07262" lon="7.36484">
        <ele>2960.52</ele>
        <time>2010-04-13T13:41:32Z</time>
      </trkpt>
      <trkpt lat="46.07279" lon="7.36486">
        <ele>2956.19</ele>
        <time>2010-04-13T13:41:35Z</time>
      </trkpt>
      <trkpt lat="46.07283" lon="7.3648">
        <ele>2955.23</ele>
        <time>2010-04-13T13:41:37Z</time>
      </trkpt>
      <trkpt lat="46.07285" lon="7.36473">
        <ele>2955.23</ele>
        <time>2010-04-13T13:41:52Z</time>
      </trkpt>
      <trkpt lat="46.07289" lon="7.36471">
        <ele>2953.79</ele>
        <time>2010-04-13T13:41:56Z</time>
      </trkpt>
      <trkpt lat="46.07289" lon="7.36471">
        <ele>2953.31</ele>
        <time>2010-04-13T13:42:13Z</time>
      </trkpt>
      <trkpt lat="46.07291" lon="7.36476">
        <ele>2951.38</ele>
        <time>2010-04-13T13:42:15Z</time>
      </trkpt>
      <trkpt lat="46.07298" lon="7.3649">
        <ele>2946.58</ele>
        <time>2010-04-13T13:42:18Z</time>
      </trkpt>
      <trkpt lat="46.07299" lon="7.36498">
        <ele>2942.73</ele>
        <time>2010-04-13T13:42:20Z</time>
      </trkpt>
      <trkpt lat="46.07299" lon="7.365">
        <ele>2942.73</ele>
        <time>2010-04-13T13:42:21Z</time>
      </trkpt>
      <trkpt lat="46.07297" lon="7.36508">
        <ele>2941.29</ele>
        <time>2010-04-13T13:42:31Z</time>
      </trkpt>
      <trkpt lat="46.07293" lon="7.36517">
        <ele>2939.37</ele>
        <time>2010-04-13T13:42:38Z</time>
      </trkpt>
      <trkpt lat="46.07296" lon="7.36516">
        <ele>2939.37</ele>
        <time>2010-04-13T13:42:55Z</time>
      </trkpt>
      <trkpt lat="46.07291" lon="7.36536">
        <ele>2937.93</ele>
        <time>2010-04-13T13:43:08Z</time>
      </trkpt>
      <trkpt lat="46.07289" lon="7.36541">
        <ele>2936.97</ele>
        <time>2010-04-13T13:43:12Z</time>
      </trkpt>
      <trkpt lat="46.07288" lon="7.36545">
        <ele>2936.48</ele>
        <time>2010-04-13T13:43:35Z</time>
      </trkpt>
      <trkpt lat="46.07284" lon="7.36558">
        <ele>2936</ele>
        <time>2010-04-13T13:43:51Z</time>
      </trkpt>
      <trkpt lat="46.07279" lon="7.3657">
        <ele>2934.08</ele>
        <time>2010-04-13T13:44:11Z</time>
      </trkpt>
      <trkpt lat="46.07279" lon="7.3657">
        <ele>2933.6</ele>
        <time>2010-04-13T13:44:12Z</time>
      </trkpt>
      <trkpt lat="46.0728" lon="7.36575">
        <ele>2934.56</ele>
        <time>2010-04-13T13:44:14Z</time>
      </trkpt>
      <trkpt lat="46.07281" lon="7.3658">
        <ele>2923.51</ele>
        <time>2010-04-13T13:44:16Z</time>
      </trkpt>
      <trkpt lat="46.07283" lon="7.36584">
        <ele>2907.16</ele>
        <time>2010-04-13T13:44:17Z</time>
      </trkpt>
      <trkpt lat="46.07285" lon="7.3659">
        <ele>2923.99</ele>
        <time>2010-04-13T13:44:18Z</time>
      </trkpt>
      <trkpt lat="46.07288" lon="7.36593">
        <ele>2916.78</ele>
        <time>2010-04-13T13:44:19Z</time>
      </trkpt>
      <trkpt lat="46.07291" lon="7.36595">
        <ele>2913.89</ele>
        <time>2010-04-13T13:44:20Z</time>
      </trkpt>
      <trkpt lat="46.07295" lon="7.36598">
        <ele>2919.18</ele>
        <time>2010-04-13T13:44:21Z</time>
      </trkpt>
      <trkpt lat="46.07299" lon="7.36599">
        <ele>2908.61</ele>
        <time>2010-04-13T13:44:22Z</time>
      </trkpt>
      <trkpt lat="46.07307" lon="7.36609">
        <ele>2903.8</ele>
        <time>2010-04-13T13:44:24Z</time>
      </trkpt>
      <trkpt lat="46.07306" lon="7.36641">
        <ele>2897.55</ele>
        <time>2010-04-13T13:44:27Z</time>
      </trkpt>
      <trkpt lat="46.07298" lon="7.36673">
        <ele>2894.19</ele>
        <time>2010-04-13T13:44:30Z</time>
      </trkpt>
      <trkpt lat="46.07289" lon="7.36712">
        <ele>2889.86</ele>
        <time>2010-04-13T13:44:34Z</time>
      </trkpt>
      <trkpt lat="46.07284" lon="7.36728">
        <ele>2888.42</ele>
        <time>2010-04-13T13:44:36Z</time>
      </trkpt>
      <trkpt lat="46.07279" lon="7.36748">
        <ele>2885.05</ele>
        <time>2010-04-13T13:44:38Z</time>
      </trkpt>
      <trkpt lat="46.07274" lon="7.36783">
        <ele>2879.29</ele>
        <time>2010-04-13T13:44:41Z</time>
      </trkpt>
      <trkpt lat="46.07273" lon="7.36793">
        <ele>2877.84</ele>
        <time>2010-04-13T13:44:42Z</time>
      </trkpt>
      <trkpt lat="46.07271" lon="7.36825">
        <ele>2874.96</ele>
        <time>2010-04-13T13:44:46Z</time>
      </trkpt>
      <trkpt lat="46.0727" lon="7.36833">
        <ele>2874</ele>
        <time>2010-04-13T13:44:47Z</time>
      </trkpt>
      <trkpt lat="46.0727" lon="7.36837">
        <ele>2875.44</ele>
        <time>2010-04-13T13:44:53Z</time>
      </trkpt>
      <trkpt lat="46.07272" lon="7.36859">
        <ele>2872.08</ele>
        <time>2010-04-13T13:44:59Z</time>
      </trkpt>
      <trkpt lat="46.07269" lon="7.3687">
        <ele>2870.15</ele>
        <time>2010-04-13T13:45:01Z</time>
      </trkpt>
      <trkpt lat="46.07262" lon="7.36893">
        <ele>2864.39</ele>
        <time>2010-04-13T13:45:04Z</time>
      </trkpt>
      <trkpt lat="46.07259" lon="7.36901">
        <ele>2864.87</ele>
        <time>2010-04-13T13:45:05Z</time>
      </trkpt>
      <trkpt lat="46.07255" lon="7.36918">
        <ele>2864.87</ele>
        <time>2010-04-13T13:45:07Z</time>
      </trkpt>
      <trkpt lat="46.07254" lon="7.36925">
        <ele>2861.02</ele>
        <time>2010-04-13T13:45:08Z</time>
      </trkpt>
      <trkpt lat="46.07252" lon="7.36939">
        <ele>2859.58</ele>
        <time>2010-04-13T13:45:10Z</time>
      </trkpt>
      <trkpt lat="46.07244" lon="7.36989">
        <ele>2856.21</ele>
        <time>2010-04-13T13:45:16Z</time>
      </trkpt>
      <trkpt lat="46.07238" lon="7.37013">
        <ele>2855.73</ele>
        <time>2010-04-13T13:45:27Z</time>
      </trkpt>
      <trkpt lat="46.07233" lon="7.37014">
        <ele>2856.21</ele>
        <time>2010-04-13T13:45:40Z</time>
      </trkpt>
      <trkpt lat="46.07233" lon="7.37013">
        <ele>2857.66</ele>
        <time>2010-04-13T13:46:51Z</time>
      </trkpt>
      <trkpt lat="46.07234" lon="7.37012">
        <ele>2859.58</ele>
        <time>2010-04-13T13:48:05Z</time>
      </trkpt>
      <trkpt lat="46.07234" lon="7.37011">
        <ele>2854.77</ele>
        <time>2010-04-13T13:48:32Z</time>
      </trkpt>
      <trkpt lat="46.07234" lon="7.37011">
        <ele>2862.94</ele>
        <time>2010-04-13T13:48:33Z</time>
      </trkpt>
      <trkpt lat="46.07234" lon="7.37011">
        <ele>2859.1</ele>
        <time>2010-04-13T13:48:34Z</time>
      </trkpt>
      <trkpt lat="46.07235" lon="7.37009">
        <ele>2862.46</ele>
        <time>2010-04-13T13:49:27Z</time>
      </trkpt>
      <trkpt lat="46.07235" lon="7.37009">
        <ele>2859.1</ele>
        <time>2010-04-13T13:49:28Z</time>
      </trkpt>
      <trkpt lat="46.07237" lon="7.3701">
        <ele>2857.66</ele>
        <time>2010-04-13T13:49:52Z</time>
      </trkpt>
      <trkpt lat="46.07239" lon="7.37017">
        <ele>2855.73</ele>
        <time>2010-04-13T13:49:56Z</time>
      </trkpt>
      <trkpt lat="46.0724" lon="7.37019">
        <ele>2854.77</ele>
        <time>2010-04-13T13:49:58Z</time>
      </trkpt>
      <trkpt lat="46.07238" lon="7.37021">
        <ele>2852.37</ele>
        <time>2010-04-13T13:50:07Z</time>
      </trkpt>
      <trkpt lat="46.07227" lon="7.37027">
        <ele>2850.45</ele>
        <time>2010-04-13T13:50:12Z</time>
      </trkpt>
      <trkpt lat="46.07214" lon="7.37037">
        <ele>2845.64</ele>
        <time>2010-04-13T13:50:18Z</time>
      </trkpt>
      <trkpt lat="46.07208" lon="7.37044">
        <ele>2840.35</ele>
        <time>2010-04-13T13:50:20Z</time>
      </trkpt>
      <trkpt lat="46.07201" lon="7.37055">
        <ele>2840.83</ele>
        <time>2010-04-13T13:50:23Z</time>
      </trkpt>
      <trkpt lat="46.0719" lon="7.37076">
        <ele>2836.99</ele>
        <time>2010-04-13T13:50:28Z</time>
      </trkpt>
      <trkpt lat="46.07177" lon="7.37085">
        <ele>2836.99</ele>
        <time>2010-04-13T13:50:37Z</time>
      </trkpt>
      <trkpt lat="46.07177" lon="7.37083">
        <ele>2838.43</ele>
        <time>2010-04-13T13:52:08Z</time>
      </trkpt>
      <trkpt lat="46.07179" lon="7.37084">
        <ele>2837.47</ele>
        <time>2010-04-13T13:52:19Z</time>
      </trkpt>
      <trkpt lat="46.07183" lon="7.37091">
        <ele>2833.14</ele>
        <time>2010-04-13T13:52:22Z</time>
      </trkpt>
      <trkpt lat="46.07195" lon="7.3709">
        <ele>2828.82</ele>
        <time>2010-04-13T13:52:25Z</time>
      </trkpt>
      <trkpt lat="46.07203" lon="7.37087">
        <ele>2827.37</ele>
        <time>2010-04-13T13:52:27Z</time>
      </trkpt>
      <trkpt lat="46.07214" lon="7.37082">
        <ele>2826.41</ele>
        <time>2010-04-13T13:52:30Z</time>
      </trkpt>
      <trkpt lat="46.07225" lon="7.37077">
        <ele>2823.53</ele>
        <time>2010-04-13T13:52:34Z</time>
      </trkpt>
      <trkpt lat="46.07237" lon="7.37079">
        <ele>2821.13</ele>
        <time>2010-04-13T13:52:40Z</time>
      </trkpt>
      <trkpt lat="46.07239" lon="7.3708">
        <ele>2819.2</ele>
        <time>2010-04-13T13:52:42Z</time>
      </trkpt>
      <trkpt lat="46.07239" lon="7.3709">
        <ele>2815.36</ele>
        <time>2010-04-13T13:52:44Z</time>
      </trkpt>
      <trkpt lat="46.07238" lon="7.37095">
        <ele>2813.44</ele>
        <time>2010-04-13T13:52:45Z</time>
      </trkpt>
      <trkpt lat="46.07235" lon="7.37107">
        <ele>2809.59</ele>
        <time>2010-04-13T13:52:47Z</time>
      </trkpt>
      <trkpt lat="46.07235" lon="7.37118">
        <ele>2804.3</ele>
        <time>2010-04-13T13:52:49Z</time>
      </trkpt>
      <trkpt lat="46.07237" lon="7.3713">
        <ele>2800.94</ele>
        <time>2010-04-13T13:52:51Z</time>
      </trkpt>
      <trkpt lat="46.07236" lon="7.37142">
        <ele>2798.54</ele>
        <time>2010-04-13T13:52:53Z</time>
      </trkpt>
      <trkpt lat="46.07235" lon="7.37147">
        <ele>2798.54</ele>
        <time>2010-04-13T13:52:54Z</time>
      </trkpt>
      <trkpt lat="46.07215" lon="7.37184">
        <ele>2793.25</ele>
        <time>2010-04-13T13:53:02Z</time>
      </trkpt>
      <trkpt lat="46.07215" lon="7.3719">
        <ele>2794.69</ele>
        <time>2010-04-13T13:53:03Z</time>
      </trkpt>
      <trkpt lat="46.07217" lon="7.37217">
        <ele>2786.04</ele>
        <time>2010-04-13T13:53:07Z</time>
      </trkpt>
      <trkpt lat="46.07218" lon="7.37224">
        <ele>2783.15</ele>
        <time>2010-04-13T13:53:08Z</time>
      </trkpt>
      <trkpt lat="46.07223" lon="7.37221">
        <ele>2784.12</ele>
        <time>2010-04-13T13:53:20Z</time>
      </trkpt>
      <trkpt lat="46.07223" lon="7.37223">
        <ele>2784.6</ele>
        <time>2010-04-13T13:53:21Z</time>
      </trkpt>
      <trkpt lat="46.07225" lon="7.37231">
        <ele>2782.19</ele>
        <time>2010-04-13T13:53:24Z</time>
      </trkpt>
      <trkpt lat="46.07235" lon="7.37257">
        <ele>2776.42</ele>
        <time>2010-04-13T13:53:28Z</time>
      </trkpt>
      <trkpt lat="46.07236" lon="7.37269">
        <ele>2771.14</ele>
        <time>2010-04-13T13:53:29Z</time>
      </trkpt>
      <trkpt lat="46.07236" lon="7.37305">
        <ele>2768.73</ele>
        <time>2010-04-13T13:53:32Z</time>
      </trkpt>
      <trkpt lat="46.0723" lon="7.37322">
        <ele>2769.21</ele>
        <time>2010-04-13T13:53:35Z</time>
      </trkpt>
      <trkpt lat="46.07221" lon="7.37341">
        <ele>2766.81</ele>
        <time>2010-04-13T13:53:39Z</time>
      </trkpt>
      <trkpt lat="46.07216" lon="7.37368">
        <ele>2762.97</ele>
        <time>2010-04-13T13:53:42Z</time>
      </trkpt>
      <trkpt lat="46.07216" lon="7.37379">
        <ele>2761.52</ele>
        <time>2010-04-13T13:53:43Z</time>
      </trkpt>
      <trkpt lat="46.07216" lon="7.3742">
        <ele>2757.2</ele>
        <time>2010-04-13T13:53:47Z</time>
      </trkpt>
      <trkpt lat="46.07216" lon="7.37428">
        <ele>2756.72</ele>
        <time>2010-04-13T13:53:48Z</time>
      </trkpt>
      <trkpt lat="46.07216" lon="7.37434">
        <ele>2755.76</ele>
        <time>2010-04-13T13:53:49Z</time>
      </trkpt>
      <trkpt lat="46.07216" lon="7.37446">
        <ele>2755.76</ele>
        <time>2010-04-13T13:53:51Z</time>
      </trkpt>
      <trkpt lat="46.0721" lon="7.37469">
        <ele>2749.03</ele>
        <time>2010-04-13T13:53:56Z</time>
      </trkpt>
      <trkpt lat="46.07224" lon="7.37443">
        <ele>2748.55</ele>
        <time>2010-04-13T13:54:07Z</time>
      </trkpt>
      <trkpt lat="46.07224" lon="7.37432">
        <ele>2749.03</ele>
        <time>2010-04-13T13:54:26Z</time>
      </trkpt>
      <trkpt lat="46.07221" lon="7.37431">
        <ele>2749.99</ele>
        <time>2010-04-13T13:55:10Z</time>
      </trkpt>
      <trkpt lat="46.0722" lon="7.37434">
        <ele>2749.03</ele>
        <time>2010-04-13T13:55:13Z</time>
      </trkpt>
      <trkpt lat="46.07221" lon="7.37434">
        <ele>2748.07</ele>
        <time>2010-04-13T13:55:50Z</time>
      </trkpt>
      <trkpt lat="46.07215" lon="7.37431">
        <ele>2748.07</ele>
        <time>2010-04-13T13:56:34Z</time>
      </trkpt>
      <trkpt lat="46.07212" lon="7.37437">
        <ele>2744.22</ele>
        <time>2010-04-13T13:58:04Z</time>
      </trkpt>
      <trkpt lat="46.07212" lon="7.37437">
        <ele>2744.7</ele>
        <time>2010-04-13T13:58:05Z</time>
      </trkpt>
      <trkpt lat="46.07214" lon="7.37444">
        <ele>2740.38</ele>
        <time>2010-04-13T13:58:11Z</time>
      </trkpt>
      <trkpt lat="46.07215" lon="7.37456">
        <ele>2737.49</ele>
        <time>2010-04-13T13:58:16Z</time>
      </trkpt>
      <trkpt lat="46.07217" lon="7.37464">
        <ele>2733.17</ele>
        <time>2010-04-13T13:58:19Z</time>
      </trkpt>
      <trkpt lat="46.07217" lon="7.37467">
        <ele>2732.2</ele>
        <time>2010-04-13T13:58:20Z</time>
      </trkpt>
      <trkpt lat="46.07216" lon="7.37481">
        <ele>2729.32</ele>
        <time>2010-04-13T13:58:25Z</time>
      </trkpt>
      <trkpt lat="46.0721" lon="7.37493">
        <ele>2726.92</ele>
        <time>2010-04-13T13:58:28Z</time>
      </trkpt>
      <trkpt lat="46.07209" lon="7.37494">
        <ele>2726.44</ele>
        <time>2010-04-13T13:58:29Z</time>
      </trkpt>
      <trkpt lat="46.07207" lon="7.37502">
        <ele>2723.55</ele>
        <time>2010-04-13T13:58:32Z</time>
      </trkpt>
      <trkpt lat="46.07205" lon="7.37507">
        <ele>2722.11</ele>
        <time>2010-04-13T13:58:33Z</time>
      </trkpt>
      <trkpt lat="46.072" lon="7.37527">
        <ele>2720.19</ele>
        <time>2010-04-13T13:58:37Z</time>
      </trkpt>
      <trkpt lat="46.072" lon="7.37544">
        <ele>2710.57</ele>
        <time>2010-04-13T13:58:39Z</time>
      </trkpt>
      <trkpt lat="46.072" lon="7.37553">
        <ele>2712.98</ele>
        <time>2010-04-13T13:58:40Z</time>
      </trkpt>
      <trkpt lat="46.07204" lon="7.37568">
        <ele>2717.3</ele>
        <time>2010-04-13T13:58:43Z</time>
      </trkpt>
      <trkpt lat="46.07212" lon="7.37597">
        <ele>2713.94</ele>
        <time>2010-04-13T13:58:49Z</time>
      </trkpt>
      <trkpt lat="46.07214" lon="7.37604">
        <ele>2713.94</ele>
        <time>2010-04-13T13:58:50Z</time>
      </trkpt>
      <trkpt lat="46.0722" lon="7.3763">
        <ele>2714.42</ele>
        <time>2010-04-13T13:58:56Z</time>
      </trkpt>
      <trkpt lat="46.07227" lon="7.37626">
        <ele>2715.38</ele>
        <time>2010-04-13T13:59:13Z</time>
      </trkpt>
      <trkpt lat="46.07226" lon="7.37625">
        <ele>2714.9</ele>
        <time>2010-04-13T13:59:45Z</time>
      </trkpt>
      <trkpt lat="46.07226" lon="7.3764">
        <ele>2712.98</ele>
        <time>2010-04-13T13:59:51Z</time>
      </trkpt>
      <trkpt lat="46.0723" lon="7.37667">
        <ele>2710.57</ele>
        <time>2010-04-13T13:59:57Z</time>
      </trkpt>
      <trkpt lat="46.07231" lon="7.37694">
        <ele>2709.13</ele>
        <time>2010-04-13T14:00:02Z</time>
      </trkpt>
      <trkpt lat="46.07229" lon="7.37707">
        <ele>2708.65</ele>
        <time>2010-04-13T14:00:04Z</time>
      </trkpt>
      <trkpt lat="46.07227" lon="7.37721">
        <ele>2707.21</ele>
        <time>2010-04-13T14:00:06Z</time>
      </trkpt>
      <trkpt lat="46.07226" lon="7.37738">
        <ele>2705.29</ele>
        <time>2010-04-13T14:00:08Z</time>
      </trkpt>
      <trkpt lat="46.07224" lon="7.37756">
        <ele>2701.44</ele>
        <time>2010-04-13T14:00:10Z</time>
      </trkpt>
      <trkpt lat="46.07222" lon="7.37774">
        <ele>2700.48</ele>
        <time>2010-04-13T14:00:12Z</time>
      </trkpt>
      <trkpt lat="46.07219" lon="7.3779">
        <ele>2699.52</ele>
        <time>2010-04-13T14:00:14Z</time>
      </trkpt>
      <trkpt lat="46.07224" lon="7.37813">
        <ele>2695.19</ele>
        <time>2010-04-13T14:00:17Z</time>
      </trkpt>
      <trkpt lat="46.07241" lon="7.37831">
        <ele>2690.87</ele>
        <time>2010-04-13T14:00:21Z</time>
      </trkpt>
      <trkpt lat="46.0725" lon="7.37831">
        <ele>2685.58</ele>
        <time>2010-04-13T14:00:23Z</time>
      </trkpt>
      <trkpt lat="46.07271" lon="7.37819">
        <ele>2686.54</ele>
        <time>2010-04-13T14:00:25Z</time>
      </trkpt>
      <trkpt lat="46.07288" lon="7.37815">
        <ele>2687.5</ele>
        <time>2010-04-13T14:00:28Z</time>
      </trkpt>
      <trkpt lat="46.07297" lon="7.37816">
        <ele>2687.98</ele>
        <time>2010-04-13T14:00:30Z</time>
      </trkpt>
      <trkpt lat="46.07315" lon="7.37825">
        <ele>2687.02</ele>
        <time>2010-04-13T14:00:35Z</time>
      </trkpt>
      <trkpt lat="46.07329" lon="7.37831">
        <ele>2683.66</ele>
        <time>2010-04-13T14:00:38Z</time>
      </trkpt>
      <trkpt lat="46.07344" lon="7.37839">
        <ele>2680.77</ele>
        <time>2010-04-13T14:00:41Z</time>
      </trkpt>
      <trkpt lat="46.07369" lon="7.37846">
        <ele>2681.25</ele>
        <time>2010-04-13T14:00:46Z</time>
      </trkpt>
      <trkpt lat="46.07386" lon="7.37858">
        <ele>2677.89</ele>
        <time>2010-04-13T14:00:50Z</time>
      </trkpt>
      <trkpt lat="46.07392" lon="7.37866">
        <ele>2676.93</ele>
        <time>2010-04-13T14:00:52Z</time>
      </trkpt>
      <trkpt lat="46.07405" lon="7.37886">
        <ele>2676.45</ele>
        <time>2010-04-13T14:00:57Z</time>
      </trkpt>
      <trkpt lat="46.07415" lon="7.37887">
        <ele>2668.76</ele>
        <time>2010-04-13T14:01:00Z</time>
      </trkpt>
      <trkpt lat="46.07423" lon="7.37878">
        <ele>2668.76</ele>
        <time>2010-04-13T14:01:01Z</time>
      </trkpt>
      <trkpt lat="46.0743" lon="7.37868">
        <ele>2669.72</ele>
        <time>2010-04-13T14:01:05Z</time>
      </trkpt>
      <trkpt lat="46.07433" lon="7.37864">
        <ele>2667.8</ele>
        <time>2010-04-13T14:01:50Z</time>
      </trkpt>
      <trkpt lat="46.07435" lon="7.37864">
        <ele>2667.8</ele>
        <time>2010-04-13T14:02:06Z</time>
      </trkpt>
      <trkpt lat="46.07454" lon="7.37864">
        <ele>2662.99</ele>
        <time>2010-04-13T14:02:12Z</time>
      </trkpt>
      <trkpt lat="46.0747" lon="7.37872">
        <ele>2662.99</ele>
        <time>2010-04-13T14:02:15Z</time>
      </trkpt>
      <trkpt lat="46.07475" lon="7.37879">
        <ele>2663.47</ele>
        <time>2010-04-13T14:02:17Z</time>
      </trkpt>
      <trkpt lat="46.07476" lon="7.37881">
        <ele>2663.95</ele>
        <time>2010-04-13T14:02:19Z</time>
      </trkpt>
      <trkpt lat="46.07478" lon="7.37879">
        <ele>2663.47</ele>
        <time>2010-04-13T14:02:40Z</time>
      </trkpt>
      <trkpt lat="46.07479" lon="7.37878">
        <ele>2663.95</ele>
        <time>2010-04-13T14:03:04Z</time>
      </trkpt>
      <trkpt lat="46.07479" lon="7.37878">
        <ele>2660.59</ele>
        <time>2010-04-13T14:03:21Z</time>
      </trkpt>
      <trkpt lat="46.07479" lon="7.37878">
        <ele>2661.55</ele>
        <time>2010-04-13T14:03:22Z</time>
      </trkpt>
      <trkpt lat="46.07479" lon="7.37878">
        <ele>2664.91</ele>
        <time>2010-04-13T14:03:24Z</time>
      </trkpt>
      <trkpt lat="46.07479" lon="7.37878">
        <ele>2663.95</ele>
        <time>2010-04-13T14:03:25Z</time>
      </trkpt>
      <trkpt lat="46.07479" lon="7.37874">
        <ele>2664.43</ele>
        <time>2010-04-13T14:03:48Z</time>
      </trkpt>
      <trkpt lat="46.07479" lon="7.37873">
        <ele>2664.91</ele>
        <time>2010-04-13T14:04:10Z</time>
      </trkpt>
      <trkpt lat="46.07479" lon="7.37873">
        <ele>2661.07</ele>
        <time>2010-04-13T14:04:14Z</time>
      </trkpt>
      <trkpt lat="46.0748" lon="7.37873">
        <ele>2664.43</ele>
        <time>2010-04-13T14:04:15Z</time>
      </trkpt>
      <trkpt lat="46.07481" lon="7.37873">
        <ele>2663.95</ele>
        <time>2010-04-13T14:04:16Z</time>
      </trkpt>
      <trkpt lat="46.07483" lon="7.37873">
        <ele>2663.47</ele>
        <time>2010-04-13T14:04:41Z</time>
      </trkpt>
      <trkpt lat="46.07483" lon="7.37873">
        <ele>2662.51</ele>
        <time>2010-04-13T14:05:13Z</time>
      </trkpt>
      <trkpt lat="46.07485" lon="7.37873">
        <ele>2664.91</ele>
        <time>2010-04-13T14:05:51Z</time>
      </trkpt>
      <trkpt lat="46.07485" lon="7.37873">
        <ele>2661.07</ele>
        <time>2010-04-13T14:05:54Z</time>
      </trkpt>
      <trkpt lat="46.07485" lon="7.37873">
        <ele>2662.03</ele>
        <time>2010-04-13T14:05:55Z</time>
      </trkpt>
      <trkpt lat="46.07485" lon="7.37873">
        <ele>2663.47</ele>
        <time>2010-04-13T14:05:57Z</time>
      </trkpt>
      <trkpt lat="46.07485" lon="7.37873">
        <ele>2661.55</ele>
        <time>2010-04-13T14:06:19Z</time>
      </trkpt>
      <trkpt lat="46.07486" lon="7.37872">
        <ele>2659.62</ele>
        <time>2010-04-13T14:06:21Z</time>
      </trkpt>
      <trkpt lat="46.07486" lon="7.37872">
        <ele>2662.99</ele>
        <time>2010-04-13T14:06:23Z</time>
      </trkpt>
      <trkpt lat="46.07486" lon="7.37872">
        <ele>2662.99</ele>
        <time>2010-04-13T14:06:24Z</time>
      </trkpt>
      <trkpt lat="46.07485" lon="7.37872">
        <ele>2662.99</ele>
        <time>2010-04-13T14:07:25Z</time>
      </trkpt>
      <trkpt lat="46.07485" lon="7.37872">
        <ele>2663.47</ele>
        <time>2010-04-13T14:08:59Z</time>
      </trkpt>
      <trkpt lat="46.07485" lon="7.37873">
        <ele>2662.51</ele>
        <time>2010-04-13T14:09:15Z</time>
      </trkpt>
      <trkpt lat="46.07485" lon="7.37873">
        <ele>2661.07</ele>
        <time>2010-04-13T14:10:06Z</time>
      </trkpt>
      <trkpt lat="46.07484" lon="7.3787">
        <ele>2664.91</ele>
        <time>2010-04-13T14:19:42Z</time>
      </trkpt>
      <trkpt lat="46.07485" lon="7.37869">
        <ele>2662.51</ele>
        <time>2010-04-13T14:19:45Z</time>
      </trkpt>
      <trkpt lat="46.07489" lon="7.37869">
        <ele>2662.03</ele>
        <time>2010-04-13T14:19:51Z</time>
      </trkpt>
      <trkpt lat="46.07491" lon="7.37874">
        <ele>2661.55</ele>
        <time>2010-04-13T14:20:00Z</time>
      </trkpt>
      <trkpt lat="46.07486" lon="7.3787">
        <ele>2661.07</ele>
        <time>2010-04-13T14:20:04Z</time>
      </trkpt>
      <trkpt lat="46.07483" lon="7.37871">
        <ele>2661.55</ele>
        <time>2010-04-13T14:20:06Z</time>
      </trkpt>
      <trkpt lat="46.07481" lon="7.37887">
        <ele>2662.03</ele>
        <time>2010-04-13T14:20:19Z</time>
      </trkpt>
      <trkpt lat="46.07482" lon="7.37889">
        <ele>2662.03</ele>
        <time>2010-04-13T14:20:20Z</time>
      </trkpt>
      <trkpt lat="46.07492" lon="7.37904">
        <ele>2662.99</ele>
        <time>2010-04-13T14:20:34Z</time>
      </trkpt>
      <trkpt lat="46.07492" lon="7.37906">
        <ele>2661.07</ele>
        <time>2010-04-13T14:20:37Z</time>
      </trkpt>
      <trkpt lat="46.07492" lon="7.37908">
        <ele>2661.55</ele>
        <time>2010-04-13T14:20:45Z</time>
      </trkpt>
      <trkpt lat="46.07487" lon="7.37907">
        <ele>2660.11</ele>
        <time>2010-04-13T14:20:55Z</time>
      </trkpt>
      <trkpt lat="46.07487" lon="7.37907">
        <ele>2661.55</ele>
        <time>2010-04-13T14:21:00Z</time>
      </trkpt>
      <trkpt lat="46.07484" lon="7.37912">
        <ele>2659.62</ele>
        <time>2010-04-13T14:21:09Z</time>
      </trkpt>
      <trkpt lat="46.07484" lon="7.37912">
        <ele>2658.18</ele>
        <time>2010-04-13T14:21:10Z</time>
      </trkpt>
      <trkpt lat="46.07483" lon="7.37913">
        <ele>2661.55</ele>
        <time>2010-04-13T14:21:11Z</time>
      </trkpt>
      <trkpt lat="46.07471" lon="7.37925">
        <ele>2660.59</ele>
        <time>2010-04-13T14:21:38Z</time>
      </trkpt>
      <trkpt lat="46.07471" lon="7.37925">
        <ele>2659.14</ele>
        <time>2010-04-13T14:21:41Z</time>
      </trkpt>
      <trkpt lat="46.07471" lon="7.37925">
        <ele>2656.74</ele>
        <time>2010-04-13T14:21:47Z</time>
      </trkpt>
      <trkpt lat="46.07471" lon="7.37925">
        <ele>2660.11</ele>
        <time>2010-04-13T14:21:48Z</time>
      </trkpt>
      <trkpt lat="46.07476" lon="7.37923">
        <ele>2660.11</ele>
        <time>2010-04-13T14:24:50Z</time>
      </trkpt>
      <trkpt lat="46.07487" lon="7.37927">
        <ele>2657.7</ele>
        <time>2010-04-13T14:26:08Z</time>
      </trkpt>
      <trkpt lat="46.0748" lon="7.37927">
        <ele>2659.14</ele>
        <time>2010-04-13T14:26:18Z</time>
      </trkpt>
      <trkpt lat="46.07479" lon="7.37927">
        <ele>2661.07</ele>
        <time>2010-04-13T14:26:20Z</time>
      </trkpt>
      <trkpt lat="46.07457" lon="7.37926">
        <ele>2661.55</ele>
        <time>2010-04-13T14:26:29Z</time>
      </trkpt>
      <trkpt lat="46.07455" lon="7.37926">
        <ele>2660.11</ele>
        <time>2010-04-13T14:26:31Z</time>
      </trkpt>
    </trkseg>
  </trk>
</gpx>